<?xml version="1.0" encoding="UTF-8" standalone="no" ?>
<gpx xmlns="http://www.topografix.com/GPX/1/1" xmlns:xsi="http://www.w3.org/2001/XMLSchema-instance" xsi:schemaLocation="http://www.topografix.com/GPX/1/1 http://www.topografix.com/GPX/1/1/gpx.xsd" version="1.1" creator="VisuGPX - https://www.visugpx.com">
  <metadata>
    <name>Circuit dans la vallée de la Durdent</name>
    <desc><![CDATA[Au départ de Roquefort, circuit mixte forêt et plaine très agréable en passant par Le Hanouard et ses moulins et Héricourt en Caux sur une journée]]></desc>
  </metadata>
  <wpt lat="49.6662" lon="0.69341">
    <ele>59</ele>
  </wpt>
  <wpt lat="49.66671" lon="0.69326">
    <ele>131</ele>
    <name><![CDATA[WPROQUEFQRT]]></name>
  </wpt>
  <trk>
    <name><![CDATA[Circuit dans la vallée de la Durdent_1]]></name>
    <trkseg>
      <trkpt lat="49.6662" lon="0.69341">
        <ele>59</ele>
        <time>2012-05-31T07:46:57Z</time>
      </trkpt>
      <trkpt lat="49.66659" lon="0.69327">
        <ele>115</ele>
        <time>2012-05-31T07:47:03Z</time>
      </trkpt>
      <trkpt lat="49.66669" lon="0.69323">
        <ele>129</ele>
        <time>2012-05-31T07:47:26Z</time>
      </trkpt>
      <trkpt lat="49.66671" lon="0.69326">
        <ele>131</ele>
        <time>2012-05-31T07:58:07Z</time>
      </trkpt>
      <trkpt lat="49.66667" lon="0.69313">
        <ele>129</ele>
        <time>2012-05-31T08:05:49Z</time>
      </trkpt>
      <trkpt lat="49.6666" lon="0.69303">
        <ele>129</ele>
        <time>2012-05-31T08:06:21Z</time>
      </trkpt>
      <trkpt lat="49.66654" lon="0.69293">
        <ele>129</ele>
        <time>2012-05-31T08:06:31Z</time>
      </trkpt>
      <trkpt lat="49.66647" lon="0.69284">
        <ele>129</ele>
        <time>2012-05-31T08:06:40Z</time>
      </trkpt>
      <trkpt lat="49.66641" lon="0.69272">
        <ele>129</ele>
        <time>2012-05-31T08:06:49Z</time>
      </trkpt>
      <trkpt lat="49.66638" lon="0.69258">
        <ele>129</ele>
        <time>2012-05-31T08:06:58Z</time>
      </trkpt>
      <trkpt lat="49.66637" lon="0.69243">
        <ele>129</ele>
        <time>2012-05-31T08:07:08Z</time>
      </trkpt>
      <trkpt lat="49.66636" lon="0.69228">
        <ele>129</ele>
        <time>2012-05-31T08:07:17Z</time>
      </trkpt>
      <trkpt lat="49.66629" lon="0.69218">
        <ele>129</ele>
        <time>2012-05-31T08:07:25Z</time>
      </trkpt>
      <trkpt lat="49.66622" lon="0.69208">
        <ele>129</ele>
        <time>2012-05-31T08:07:36Z</time>
      </trkpt>
      <trkpt lat="49.66616" lon="0.69197">
        <ele>129</ele>
        <time>2012-05-31T08:07:45Z</time>
      </trkpt>
      <trkpt lat="49.6661" lon="0.69186">
        <ele>129</ele>
        <time>2012-05-31T08:07:55Z</time>
      </trkpt>
      <trkpt lat="49.66603" lon="0.69177">
        <ele>129</ele>
        <time>2012-05-31T08:08:08Z</time>
      </trkpt>
      <trkpt lat="49.66593" lon="0.69173">
        <ele>129</ele>
        <time>2012-05-31T08:08:16Z</time>
      </trkpt>
      <trkpt lat="49.66585" lon="0.69168">
        <ele>124</ele>
        <time>2012-05-31T08:08:25Z</time>
      </trkpt>
      <trkpt lat="49.66576" lon="0.69164">
        <ele>124</ele>
        <time>2012-05-31T08:08:35Z</time>
      </trkpt>
      <trkpt lat="49.66567" lon="0.69161">
        <ele>124</ele>
        <time>2012-05-31T08:08:42Z</time>
      </trkpt>
      <trkpt lat="49.66558" lon="0.69158">
        <ele>124</ele>
        <time>2012-05-31T08:08:48Z</time>
      </trkpt>
      <trkpt lat="49.66548" lon="0.69157">
        <ele>124</ele>
        <time>2012-05-31T08:08:54Z</time>
      </trkpt>
      <trkpt lat="49.66539" lon="0.69154">
        <ele>124</ele>
        <time>2012-05-31T08:09:00Z</time>
      </trkpt>
      <trkpt lat="49.6653" lon="0.69151">
        <ele>124</ele>
        <time>2012-05-31T08:09:07Z</time>
      </trkpt>
      <trkpt lat="49.6652" lon="0.69147">
        <ele>124</ele>
        <time>2012-05-31T08:09:13Z</time>
      </trkpt>
      <trkpt lat="49.66512" lon="0.69141">
        <ele>124</ele>
        <time>2012-05-31T08:09:19Z</time>
      </trkpt>
      <trkpt lat="49.66502" lon="0.69134">
        <ele>124</ele>
        <time>2012-05-31T08:09:26Z</time>
      </trkpt>
      <trkpt lat="49.66494" lon="0.6913">
        <ele>124</ele>
        <time>2012-05-31T08:09:32Z</time>
      </trkpt>
      <trkpt lat="49.66484" lon="0.69125">
        <ele>124</ele>
        <time>2012-05-31T08:09:39Z</time>
      </trkpt>
      <trkpt lat="49.66475" lon="0.69119">
        <ele>124</ele>
        <time>2012-05-31T08:09:46Z</time>
      </trkpt>
      <trkpt lat="49.66465" lon="0.69113">
        <ele>124</ele>
        <time>2012-05-31T08:09:53Z</time>
      </trkpt>
      <trkpt lat="49.66456" lon="0.69107">
        <ele>124</ele>
        <time>2012-05-31T08:09:59Z</time>
      </trkpt>
      <trkpt lat="49.66448" lon="0.69101">
        <ele>118</ele>
        <time>2012-05-31T08:10:06Z</time>
      </trkpt>
      <trkpt lat="49.66438" lon="0.69095">
        <ele>118</ele>
        <time>2012-05-31T08:10:13Z</time>
      </trkpt>
      <trkpt lat="49.66428" lon="0.69089">
        <ele>118</ele>
        <time>2012-05-31T08:10:20Z</time>
      </trkpt>
      <trkpt lat="49.6642" lon="0.69082">
        <ele>118</ele>
        <time>2012-05-31T08:10:27Z</time>
      </trkpt>
      <trkpt lat="49.66411" lon="0.69076">
        <ele>118</ele>
        <time>2012-05-31T08:10:34Z</time>
      </trkpt>
      <trkpt lat="49.66402" lon="0.69071">
        <ele>118</ele>
        <time>2012-05-31T08:10:41Z</time>
      </trkpt>
      <trkpt lat="49.66393" lon="0.69064">
        <ele>118</ele>
        <time>2012-05-31T08:10:48Z</time>
      </trkpt>
      <trkpt lat="49.66384" lon="0.69062">
        <ele>118</ele>
        <time>2012-05-31T08:10:55Z</time>
      </trkpt>
      <trkpt lat="49.66375" lon="0.69057">
        <ele>118</ele>
        <time>2012-05-31T08:11:03Z</time>
      </trkpt>
      <trkpt lat="49.66365" lon="0.69054">
        <ele>118</ele>
        <time>2012-05-31T08:11:10Z</time>
      </trkpt>
      <trkpt lat="49.66357" lon="0.6905">
        <ele>118</ele>
        <time>2012-05-31T08:11:19Z</time>
      </trkpt>
      <trkpt lat="49.66347" lon="0.69049">
        <ele>118</ele>
        <time>2012-05-31T08:11:26Z</time>
      </trkpt>
      <trkpt lat="49.66337" lon="0.69046">
        <ele>118</ele>
        <time>2012-05-31T08:11:33Z</time>
      </trkpt>
      <trkpt lat="49.66327" lon="0.69045">
        <ele>118</ele>
        <time>2012-05-31T08:11:40Z</time>
      </trkpt>
      <trkpt lat="49.66318" lon="0.69043">
        <ele>118</ele>
        <time>2012-05-31T08:11:46Z</time>
      </trkpt>
      <trkpt lat="49.66308" lon="0.69035">
        <ele>118</ele>
        <time>2012-05-31T08:11:54Z</time>
      </trkpt>
      <trkpt lat="49.663" lon="0.69028">
        <ele>118</ele>
        <time>2012-05-31T08:12:01Z</time>
      </trkpt>
      <trkpt lat="49.66291" lon="0.69025">
        <ele>118</ele>
        <time>2012-05-31T08:12:09Z</time>
      </trkpt>
      <trkpt lat="49.66284" lon="0.69016">
        <ele>118</ele>
        <time>2012-05-31T08:12:15Z</time>
      </trkpt>
      <trkpt lat="49.66274" lon="0.69011">
        <ele>118</ele>
        <time>2012-05-31T08:12:23Z</time>
      </trkpt>
      <trkpt lat="49.66264" lon="0.69004">
        <ele>118</ele>
        <time>2012-05-31T08:12:30Z</time>
      </trkpt>
      <trkpt lat="49.66256" lon="0.68998">
        <ele>118</ele>
        <time>2012-05-31T08:12:38Z</time>
      </trkpt>
      <trkpt lat="49.66246" lon="0.68992">
        <ele>118</ele>
        <time>2012-05-31T08:12:45Z</time>
      </trkpt>
      <trkpt lat="49.66239" lon="0.68982">
        <ele>118</ele>
        <time>2012-05-31T08:12:52Z</time>
      </trkpt>
      <trkpt lat="49.66232" lon="0.68973">
        <ele>118</ele>
        <time>2012-05-31T08:12:58Z</time>
      </trkpt>
      <trkpt lat="49.66226" lon="0.68963">
        <ele>111</ele>
        <time>2012-05-31T08:13:06Z</time>
      </trkpt>
      <trkpt lat="49.66221" lon="0.68948">
        <ele>111</ele>
        <time>2012-05-31T08:13:15Z</time>
      </trkpt>
      <trkpt lat="49.66214" lon="0.68939">
        <ele>111</ele>
        <time>2012-05-31T08:13:21Z</time>
      </trkpt>
      <trkpt lat="49.66207" lon="0.68929">
        <ele>111</ele>
        <time>2012-05-31T08:13:27Z</time>
      </trkpt>
      <trkpt lat="49.66199" lon="0.68921">
        <ele>116</ele>
        <time>2012-05-31T08:13:33Z</time>
      </trkpt>
      <trkpt lat="49.66192" lon="0.68911">
        <ele>116</ele>
        <time>2012-05-31T08:13:41Z</time>
      </trkpt>
      <trkpt lat="49.66182" lon="0.68906">
        <ele>116</ele>
        <time>2012-05-31T08:13:48Z</time>
      </trkpt>
      <trkpt lat="49.66172" lon="0.68908">
        <ele>110</ele>
        <time>2012-05-31T08:13:55Z</time>
      </trkpt>
      <trkpt lat="49.66162" lon="0.68906">
        <ele>110</ele>
        <time>2012-05-31T08:14:02Z</time>
      </trkpt>
      <trkpt lat="49.66161" lon="0.68892">
        <ele>98</ele>
        <time>2012-05-31T08:14:16Z</time>
      </trkpt>
      <trkpt lat="49.66169" lon="0.68884">
        <ele>98</ele>
        <time>2012-05-31T08:14:31Z</time>
      </trkpt>
      <trkpt lat="49.66178" lon="0.6888">
        <ele>98</ele>
        <time>2012-05-31T08:14:39Z</time>
      </trkpt>
      <trkpt lat="49.66187" lon="0.68879">
        <ele>98</ele>
        <time>2012-05-31T08:14:48Z</time>
      </trkpt>
      <trkpt lat="49.66196" lon="0.68879">
        <ele>98</ele>
        <time>2012-05-31T08:14:57Z</time>
      </trkpt>
      <trkpt lat="49.66206" lon="0.68878">
        <ele>98</ele>
        <time>2012-05-31T08:15:22Z</time>
      </trkpt>
      <trkpt lat="49.66214" lon="0.68873">
        <ele>111</ele>
        <time>2012-05-31T08:16:46Z</time>
      </trkpt>
      <trkpt lat="49.66225" lon="0.68873">
        <ele>111</ele>
        <time>2012-05-31T08:16:53Z</time>
      </trkpt>
      <trkpt lat="49.66234" lon="0.68877">
        <ele>104</ele>
        <time>2012-05-31T08:16:59Z</time>
      </trkpt>
      <trkpt lat="49.66241" lon="0.68886">
        <ele>97</ele>
        <time>2012-05-31T08:17:05Z</time>
      </trkpt>
      <trkpt lat="49.66248" lon="0.68896">
        <ele>89</ele>
        <time>2012-05-31T08:17:11Z</time>
      </trkpt>
      <trkpt lat="49.66257" lon="0.68902">
        <ele>89</ele>
        <time>2012-05-31T08:17:19Z</time>
      </trkpt>
      <trkpt lat="49.66267" lon="0.68906">
        <ele>100</ele>
        <time>2012-05-31T08:17:27Z</time>
      </trkpt>
      <trkpt lat="49.66274" lon="0.68914">
        <ele>107</ele>
        <time>2012-05-31T08:17:35Z</time>
      </trkpt>
      <trkpt lat="49.66282" lon="0.68923">
        <ele>112</ele>
        <time>2012-05-31T08:17:44Z</time>
      </trkpt>
      <trkpt lat="49.66291" lon="0.68929">
        <ele>112</ele>
        <time>2012-05-31T08:17:51Z</time>
      </trkpt>
      <trkpt lat="49.663" lon="0.68936">
        <ele>105</ele>
        <time>2012-05-31T08:18:00Z</time>
      </trkpt>
      <trkpt lat="49.66309" lon="0.68943">
        <ele>105</ele>
        <time>2012-05-31T08:18:09Z</time>
      </trkpt>
      <trkpt lat="49.66318" lon="0.68949">
        <ele>98</ele>
        <time>2012-05-31T08:18:19Z</time>
      </trkpt>
      <trkpt lat="49.66329" lon="0.68957">
        <ele>92</ele>
        <time>2012-05-31T08:18:28Z</time>
      </trkpt>
      <trkpt lat="49.66339" lon="0.68959">
        <ele>92</ele>
        <time>2012-05-31T08:18:34Z</time>
      </trkpt>
      <trkpt lat="49.66348" lon="0.6896">
        <ele>92</ele>
        <time>2012-05-31T08:18:44Z</time>
      </trkpt>
      <trkpt lat="49.66356" lon="0.68952">
        <ele>92</ele>
        <time>2012-05-31T08:18:50Z</time>
      </trkpt>
      <trkpt lat="49.66364" lon="0.68945">
        <ele>105</ele>
        <time>2012-05-31T08:18:58Z</time>
      </trkpt>
      <trkpt lat="49.66371" lon="0.68936">
        <ele>105</ele>
        <time>2012-05-31T08:19:04Z</time>
      </trkpt>
      <trkpt lat="49.6638" lon="0.6893">
        <ele>105</ele>
        <time>2012-05-31T08:19:12Z</time>
      </trkpt>
      <trkpt lat="49.66388" lon="0.68921">
        <ele>99</ele>
        <time>2012-05-31T08:19:21Z</time>
      </trkpt>
      <trkpt lat="49.66396" lon="0.68912">
        <ele>99</ele>
        <time>2012-05-31T08:19:29Z</time>
      </trkpt>
      <trkpt lat="49.66402" lon="0.689">
        <ele>104</ele>
        <time>2012-05-31T08:19:37Z</time>
      </trkpt>
      <trkpt lat="49.66409" lon="0.6889">
        <ele>104</ele>
        <time>2012-05-31T08:19:44Z</time>
      </trkpt>
      <trkpt lat="49.66418" lon="0.68883">
        <ele>104</ele>
        <time>2012-05-31T08:19:51Z</time>
      </trkpt>
      <trkpt lat="49.66424" lon="0.68873">
        <ele>104</ele>
        <time>2012-05-31T08:20:00Z</time>
      </trkpt>
      <trkpt lat="49.66432" lon="0.68866">
        <ele>104</ele>
        <time>2012-05-31T08:20:10Z</time>
      </trkpt>
      <trkpt lat="49.66441" lon="0.68856">
        <ele>98</ele>
        <time>2012-05-31T08:20:20Z</time>
      </trkpt>
      <trkpt lat="49.66449" lon="0.68848">
        <ele>98</ele>
        <time>2012-05-31T08:20:28Z</time>
      </trkpt>
      <trkpt lat="49.66455" lon="0.68835">
        <ele>98</ele>
        <time>2012-05-31T08:20:36Z</time>
      </trkpt>
      <trkpt lat="49.66462" lon="0.68826">
        <ele>98</ele>
        <time>2012-05-31T08:20:43Z</time>
      </trkpt>
      <trkpt lat="49.66468" lon="0.68815">
        <ele>98</ele>
        <time>2012-05-31T08:20:50Z</time>
      </trkpt>
      <trkpt lat="49.66474" lon="0.68802">
        <ele>104</ele>
        <time>2012-05-31T08:20:58Z</time>
      </trkpt>
      <trkpt lat="49.66481" lon="0.68791">
        <ele>104</ele>
        <time>2012-05-31T08:21:05Z</time>
      </trkpt>
      <trkpt lat="49.66484" lon="0.68777">
        <ele>104</ele>
        <time>2012-05-31T08:21:12Z</time>
      </trkpt>
      <trkpt lat="49.6649" lon="0.68765">
        <ele>97</ele>
        <time>2012-05-31T08:21:20Z</time>
      </trkpt>
      <trkpt lat="49.66495" lon="0.68753">
        <ele>97</ele>
        <time>2012-05-31T08:21:28Z</time>
      </trkpt>
      <trkpt lat="49.66502" lon="0.68741">
        <ele>90</ele>
        <time>2012-05-31T08:21:37Z</time>
      </trkpt>
      <trkpt lat="49.66505" lon="0.68727">
        <ele>90</ele>
        <time>2012-05-31T08:21:44Z</time>
      </trkpt>
      <trkpt lat="49.66508" lon="0.68713">
        <ele>90</ele>
        <time>2012-05-31T08:21:52Z</time>
      </trkpt>
      <trkpt lat="49.66512" lon="0.687">
        <ele>102</ele>
        <time>2012-05-31T08:21:57Z</time>
      </trkpt>
      <trkpt lat="49.66513" lon="0.68685">
        <ele>102</ele>
        <time>2012-05-31T08:22:04Z</time>
      </trkpt>
      <trkpt lat="49.66513" lon="0.6867">
        <ele>102</ele>
        <time>2012-05-31T08:22:13Z</time>
      </trkpt>
      <trkpt lat="49.66513" lon="0.68656">
        <ele>96</ele>
        <time>2012-05-31T08:22:20Z</time>
      </trkpt>
      <trkpt lat="49.66515" lon="0.6864">
        <ele>96</ele>
        <time>2012-05-31T08:22:28Z</time>
      </trkpt>
      <trkpt lat="49.66518" lon="0.68627">
        <ele>87</ele>
        <time>2012-05-31T08:22:36Z</time>
      </trkpt>
      <trkpt lat="49.6652" lon="0.68612">
        <ele>87</ele>
        <time>2012-05-31T08:22:43Z</time>
      </trkpt>
      <trkpt lat="49.66525" lon="0.68599">
        <ele>87</ele>
        <time>2012-05-31T08:22:50Z</time>
      </trkpt>
      <trkpt lat="49.66529" lon="0.68586">
        <ele>87</ele>
        <time>2012-05-31T08:22:57Z</time>
      </trkpt>
      <trkpt lat="49.66534" lon="0.68575">
        <ele>87</ele>
        <time>2012-05-31T08:23:04Z</time>
      </trkpt>
      <trkpt lat="49.66542" lon="0.68566">
        <ele>87</ele>
        <time>2012-05-31T08:23:11Z</time>
      </trkpt>
      <trkpt lat="49.66551" lon="0.68561">
        <ele>87</ele>
        <time>2012-05-31T08:23:18Z</time>
      </trkpt>
      <trkpt lat="49.66561" lon="0.68562">
        <ele>87</ele>
        <time>2012-05-31T08:23:26Z</time>
      </trkpt>
      <trkpt lat="49.66569" lon="0.68568">
        <ele>87</ele>
        <time>2012-05-31T08:23:33Z</time>
      </trkpt>
      <trkpt lat="49.66578" lon="0.68575">
        <ele>87</ele>
        <time>2012-05-31T08:23:41Z</time>
      </trkpt>
      <trkpt lat="49.66587" lon="0.6858">
        <ele>87</ele>
        <time>2012-05-31T08:23:49Z</time>
      </trkpt>
      <trkpt lat="49.66596" lon="0.68587">
        <ele>87</ele>
        <time>2012-05-31T08:23:56Z</time>
      </trkpt>
      <trkpt lat="49.66603" lon="0.68595">
        <ele>87</ele>
        <time>2012-05-31T08:24:03Z</time>
      </trkpt>
      <trkpt lat="49.6661" lon="0.68604">
        <ele>87</ele>
        <time>2012-05-31T08:24:10Z</time>
      </trkpt>
      <trkpt lat="49.66618" lon="0.68614">
        <ele>87</ele>
        <time>2012-05-31T08:24:19Z</time>
      </trkpt>
      <trkpt lat="49.66625" lon="0.68624">
        <ele>87</ele>
        <time>2012-05-31T08:24:26Z</time>
      </trkpt>
      <trkpt lat="49.66632" lon="0.68634">
        <ele>87</ele>
        <time>2012-05-31T08:24:34Z</time>
      </trkpt>
      <trkpt lat="49.66641" lon="0.68642">
        <ele>87</ele>
        <time>2012-05-31T08:24:42Z</time>
      </trkpt>
      <trkpt lat="49.66649" lon="0.68646">
        <ele>87</ele>
        <time>2012-05-31T08:24:49Z</time>
      </trkpt>
      <trkpt lat="49.6666" lon="0.68645">
        <ele>87</ele>
        <time>2012-05-31T08:24:56Z</time>
      </trkpt>
      <trkpt lat="49.66667" lon="0.68637">
        <ele>87</ele>
        <time>2012-05-31T08:25:03Z</time>
      </trkpt>
      <trkpt lat="49.66674" lon="0.68627">
        <ele>87</ele>
        <time>2012-05-31T08:25:11Z</time>
      </trkpt>
      <trkpt lat="49.66684" lon="0.68623">
        <ele>87</ele>
        <time>2012-05-31T08:25:18Z</time>
      </trkpt>
      <trkpt lat="49.66692" lon="0.68617">
        <ele>87</ele>
        <time>2012-05-31T08:25:25Z</time>
      </trkpt>
      <trkpt lat="49.66699" lon="0.68605">
        <ele>87</ele>
        <time>2012-05-31T08:25:32Z</time>
      </trkpt>
      <trkpt lat="49.66705" lon="0.68594">
        <ele>87</ele>
        <time>2012-05-31T08:25:39Z</time>
      </trkpt>
      <trkpt lat="49.66712" lon="0.68583">
        <ele>87</ele>
        <time>2012-05-31T08:25:46Z</time>
      </trkpt>
      <trkpt lat="49.6672" lon="0.68573">
        <ele>87</ele>
        <time>2012-05-31T08:25:54Z</time>
      </trkpt>
      <trkpt lat="49.66727" lon="0.68564">
        <ele>87</ele>
        <time>2012-05-31T08:26:01Z</time>
      </trkpt>
      <trkpt lat="49.66734" lon="0.68555">
        <ele>87</ele>
        <time>2012-05-31T08:26:08Z</time>
      </trkpt>
      <trkpt lat="49.66742" lon="0.68546">
        <ele>87</ele>
        <time>2012-05-31T08:26:15Z</time>
      </trkpt>
      <trkpt lat="49.66749" lon="0.68537">
        <ele>87</ele>
        <time>2012-05-31T08:26:22Z</time>
      </trkpt>
      <trkpt lat="49.66756" lon="0.68525">
        <ele>87</ele>
        <time>2012-05-31T08:26:30Z</time>
      </trkpt>
      <trkpt lat="49.66762" lon="0.68515">
        <ele>87</ele>
        <time>2012-05-31T08:26:37Z</time>
      </trkpt>
      <trkpt lat="49.66768" lon="0.68503">
        <ele>87</ele>
        <time>2012-05-31T08:26:44Z</time>
      </trkpt>
      <trkpt lat="49.66774" lon="0.68491">
        <ele>87</ele>
        <time>2012-05-31T08:26:51Z</time>
      </trkpt>
      <trkpt lat="49.6678" lon="0.6848">
        <ele>81</ele>
        <time>2012-05-31T08:26:58Z</time>
      </trkpt>
      <trkpt lat="49.66788" lon="0.68471">
        <ele>81</ele>
        <time>2012-05-31T08:27:05Z</time>
      </trkpt>
      <trkpt lat="49.66796" lon="0.68463">
        <ele>81</ele>
        <time>2012-05-31T08:27:13Z</time>
      </trkpt>
      <trkpt lat="49.66804" lon="0.68454">
        <ele>81</ele>
        <time>2012-05-31T08:27:20Z</time>
      </trkpt>
      <trkpt lat="49.66808" lon="0.68442">
        <ele>81</ele>
        <time>2012-05-31T08:27:27Z</time>
      </trkpt>
      <trkpt lat="49.66815" lon="0.68431">
        <ele>81</ele>
        <time>2012-05-31T08:27:34Z</time>
      </trkpt>
      <trkpt lat="49.66821" lon="0.68421">
        <ele>81</ele>
        <time>2012-05-31T08:27:41Z</time>
      </trkpt>
      <trkpt lat="49.66829" lon="0.6841">
        <ele>81</ele>
        <time>2012-05-31T08:27:49Z</time>
      </trkpt>
      <trkpt lat="49.66835" lon="0.684">
        <ele>81</ele>
        <time>2012-05-31T08:27:56Z</time>
      </trkpt>
      <trkpt lat="49.66842" lon="0.68389">
        <ele>81</ele>
        <time>2012-05-31T08:28:04Z</time>
      </trkpt>
      <trkpt lat="49.66848" lon="0.68378">
        <ele>81</ele>
        <time>2012-05-31T08:28:12Z</time>
      </trkpt>
      <trkpt lat="49.66856" lon="0.68368">
        <ele>86</ele>
        <time>2012-05-31T08:28:21Z</time>
      </trkpt>
      <trkpt lat="49.66864" lon="0.68361">
        <ele>86</ele>
        <time>2012-05-31T08:28:29Z</time>
      </trkpt>
      <trkpt lat="49.66873" lon="0.68355">
        <ele>86</ele>
        <time>2012-05-31T08:28:36Z</time>
      </trkpt>
      <trkpt lat="49.66881" lon="0.68348">
        <ele>86</ele>
        <time>2012-05-31T08:28:42Z</time>
      </trkpt>
      <trkpt lat="49.6689" lon="0.68345">
        <ele>86</ele>
        <time>2012-05-31T08:28:51Z</time>
      </trkpt>
      <trkpt lat="49.66899" lon="0.68341">
        <ele>86</ele>
        <time>2012-05-31T08:28:58Z</time>
      </trkpt>
      <trkpt lat="49.66909" lon="0.68338">
        <ele>86</ele>
        <time>2012-05-31T08:29:05Z</time>
      </trkpt>
      <trkpt lat="49.66919" lon="0.68338">
        <ele>86</ele>
        <time>2012-05-31T08:29:13Z</time>
      </trkpt>
      <trkpt lat="49.66929" lon="0.68334">
        <ele>86</ele>
        <time>2012-05-31T08:29:20Z</time>
      </trkpt>
      <trkpt lat="49.66938" lon="0.68333">
        <ele>86</ele>
        <time>2012-05-31T08:29:27Z</time>
      </trkpt>
      <trkpt lat="49.66947" lon="0.68329">
        <ele>92</ele>
        <time>2012-05-31T08:29:36Z</time>
      </trkpt>
      <trkpt lat="49.66957" lon="0.68328">
        <ele>92</ele>
        <time>2012-05-31T08:29:43Z</time>
      </trkpt>
      <trkpt lat="49.66966" lon="0.68324">
        <ele>92</ele>
        <time>2012-05-31T08:29:50Z</time>
      </trkpt>
      <trkpt lat="49.66976" lon="0.68323">
        <ele>92</ele>
        <time>2012-05-31T08:29:57Z</time>
      </trkpt>
      <trkpt lat="49.66986" lon="0.68323">
        <ele>92</ele>
        <time>2012-05-31T08:30:04Z</time>
      </trkpt>
      <trkpt lat="49.66995" lon="0.68321">
        <ele>92</ele>
        <time>2012-05-31T08:30:11Z</time>
      </trkpt>
      <trkpt lat="49.67005" lon="0.68318">
        <ele>85</ele>
        <time>2012-05-31T08:30:18Z</time>
      </trkpt>
      <trkpt lat="49.67014" lon="0.68313">
        <ele>85</ele>
        <time>2012-05-31T08:30:25Z</time>
      </trkpt>
      <trkpt lat="49.67024" lon="0.68313">
        <ele>91</ele>
        <time>2012-05-31T08:30:41Z</time>
      </trkpt>
      <trkpt lat="49.67032" lon="0.6832">
        <ele>91</ele>
        <time>2012-05-31T08:30:47Z</time>
      </trkpt>
      <trkpt lat="49.67041" lon="0.68325">
        <ele>91</ele>
        <time>2012-05-31T08:30:54Z</time>
      </trkpt>
      <trkpt lat="49.67049" lon="0.6833">
        <ele>86</ele>
        <time>2012-05-31T08:31:02Z</time>
      </trkpt>
      <trkpt lat="49.67058" lon="0.68334">
        <ele>86</ele>
        <time>2012-05-31T08:31:09Z</time>
      </trkpt>
      <trkpt lat="49.67067" lon="0.68338">
        <ele>86</ele>
        <time>2012-05-31T08:31:15Z</time>
      </trkpt>
      <trkpt lat="49.67076" lon="0.68343">
        <ele>86</ele>
        <time>2012-05-31T08:31:24Z</time>
      </trkpt>
      <trkpt lat="49.67084" lon="0.68349">
        <ele>86</ele>
        <time>2012-05-31T08:31:30Z</time>
      </trkpt>
      <trkpt lat="49.67093" lon="0.68354">
        <ele>86</ele>
        <time>2012-05-31T08:31:37Z</time>
      </trkpt>
      <trkpt lat="49.67102" lon="0.6836">
        <ele>86</ele>
        <time>2012-05-31T08:31:45Z</time>
      </trkpt>
      <trkpt lat="49.6711" lon="0.68365">
        <ele>86</ele>
        <time>2012-05-31T08:31:52Z</time>
      </trkpt>
      <trkpt lat="49.6712" lon="0.6837">
        <ele>79</ele>
        <time>2012-05-31T08:31:58Z</time>
      </trkpt>
      <trkpt lat="49.67129" lon="0.68374">
        <ele>79</ele>
        <time>2012-05-31T08:32:05Z</time>
      </trkpt>
      <trkpt lat="49.67138" lon="0.6838">
        <ele>79</ele>
        <time>2012-05-31T08:32:12Z</time>
      </trkpt>
      <trkpt lat="49.67147" lon="0.68383">
        <ele>79</ele>
        <time>2012-05-31T08:32:19Z</time>
      </trkpt>
      <trkpt lat="49.67156" lon="0.68388">
        <ele>79</ele>
        <time>2012-05-31T08:32:27Z</time>
      </trkpt>
      <trkpt lat="49.67165" lon="0.68392">
        <ele>79</ele>
        <time>2012-05-31T08:32:34Z</time>
      </trkpt>
      <trkpt lat="49.67175" lon="0.68399">
        <ele>79</ele>
        <time>2012-05-31T08:32:41Z</time>
      </trkpt>
      <trkpt lat="49.67185" lon="0.68404">
        <ele>79</ele>
        <time>2012-05-31T08:32:49Z</time>
      </trkpt>
      <trkpt lat="49.67193" lon="0.68411">
        <ele>79</ele>
        <time>2012-05-31T08:32:57Z</time>
      </trkpt>
      <trkpt lat="49.67203" lon="0.68416">
        <ele>79</ele>
        <time>2012-05-31T08:33:04Z</time>
      </trkpt>
      <trkpt lat="49.67212" lon="0.68422">
        <ele>79</ele>
        <time>2012-05-31T08:33:11Z</time>
      </trkpt>
      <trkpt lat="49.67221" lon="0.68428">
        <ele>79</ele>
        <time>2012-05-31T08:33:18Z</time>
      </trkpt>
      <trkpt lat="49.6723" lon="0.68434">
        <ele>79</ele>
        <time>2012-05-31T08:33:25Z</time>
      </trkpt>
      <trkpt lat="49.67239" lon="0.68438">
        <ele>79</ele>
        <time>2012-05-31T08:33:32Z</time>
      </trkpt>
      <trkpt lat="49.67249" lon="0.68443">
        <ele>79</ele>
        <time>2012-05-31T08:33:40Z</time>
      </trkpt>
      <trkpt lat="49.67258" lon="0.68448">
        <ele>79</ele>
        <time>2012-05-31T08:33:47Z</time>
      </trkpt>
      <trkpt lat="49.67267" lon="0.68452">
        <ele>79</ele>
        <time>2012-05-31T08:33:54Z</time>
      </trkpt>
      <trkpt lat="49.67277" lon="0.68454">
        <ele>79</ele>
        <time>2012-05-31T08:34:01Z</time>
      </trkpt>
      <trkpt lat="49.67286" lon="0.68455">
        <ele>79</ele>
        <time>2012-05-31T08:34:08Z</time>
      </trkpt>
      <trkpt lat="49.67295" lon="0.68454">
        <ele>79</ele>
        <time>2012-05-31T08:34:15Z</time>
      </trkpt>
      <trkpt lat="49.67305" lon="0.68453">
        <ele>79</ele>
        <time>2012-05-31T08:34:23Z</time>
      </trkpt>
      <trkpt lat="49.67315" lon="0.68452">
        <ele>79</ele>
        <time>2012-05-31T08:34:30Z</time>
      </trkpt>
      <trkpt lat="49.67324" lon="0.68449">
        <ele>79</ele>
        <time>2012-05-31T08:34:37Z</time>
      </trkpt>
      <trkpt lat="49.67335" lon="0.68447">
        <ele>79</ele>
        <time>2012-05-31T08:34:45Z</time>
      </trkpt>
      <trkpt lat="49.67344" lon="0.68445">
        <ele>79</ele>
        <time>2012-05-31T08:34:53Z</time>
      </trkpt>
      <trkpt lat="49.67352" lon="0.68437">
        <ele>79</ele>
        <time>2012-05-31T08:35:02Z</time>
      </trkpt>
      <trkpt lat="49.6736" lon="0.6843">
        <ele>87</ele>
        <time>2012-05-31T08:35:11Z</time>
      </trkpt>
      <trkpt lat="49.67369" lon="0.68432">
        <ele>87</ele>
        <time>2012-05-31T08:35:17Z</time>
      </trkpt>
      <trkpt lat="49.67379" lon="0.6843">
        <ele>87</ele>
        <time>2012-05-31T08:35:24Z</time>
      </trkpt>
      <trkpt lat="49.67387" lon="0.68422">
        <ele>87</ele>
        <time>2012-05-31T08:35:32Z</time>
      </trkpt>
      <trkpt lat="49.67398" lon="0.68424">
        <ele>87</ele>
        <time>2012-05-31T08:35:39Z</time>
      </trkpt>
      <trkpt lat="49.67407" lon="0.68421">
        <ele>79</ele>
        <time>2012-05-31T08:35:45Z</time>
      </trkpt>
      <trkpt lat="49.67416" lon="0.68417">
        <ele>79</ele>
        <time>2012-05-31T08:35:51Z</time>
      </trkpt>
      <trkpt lat="49.67425" lon="0.68418">
        <ele>79</ele>
        <time>2012-05-31T08:35:59Z</time>
      </trkpt>
      <trkpt lat="49.67434" lon="0.68409">
        <ele>79</ele>
        <time>2012-05-31T08:36:09Z</time>
      </trkpt>
      <trkpt lat="49.67443" lon="0.68409">
        <ele>85</ele>
        <time>2012-05-31T08:36:16Z</time>
      </trkpt>
      <trkpt lat="49.67453" lon="0.68407">
        <ele>85</ele>
        <time>2012-05-31T08:36:23Z</time>
      </trkpt>
      <trkpt lat="49.67464" lon="0.68402">
        <ele>85</ele>
        <time>2012-05-31T08:36:32Z</time>
      </trkpt>
      <trkpt lat="49.67474" lon="0.684">
        <ele>85</ele>
        <time>2012-05-31T08:36:40Z</time>
      </trkpt>
      <trkpt lat="49.67482" lon="0.68391">
        <ele>85</ele>
        <time>2012-05-31T08:36:47Z</time>
      </trkpt>
      <trkpt lat="49.67491" lon="0.68383">
        <ele>85</ele>
        <time>2012-05-31T08:36:55Z</time>
      </trkpt>
      <trkpt lat="49.67499" lon="0.68375">
        <ele>85</ele>
        <time>2012-05-31T08:37:03Z</time>
      </trkpt>
      <trkpt lat="49.67507" lon="0.68367">
        <ele>85</ele>
        <time>2012-05-31T08:37:09Z</time>
      </trkpt>
      <trkpt lat="49.67514" lon="0.68357">
        <ele>85</ele>
        <time>2012-05-31T08:37:17Z</time>
      </trkpt>
      <trkpt lat="49.6752" lon="0.68347">
        <ele>78</ele>
        <time>2012-05-31T08:37:23Z</time>
      </trkpt>
      <trkpt lat="49.67528" lon="0.68339">
        <ele>78</ele>
        <time>2012-05-31T08:37:32Z</time>
      </trkpt>
      <trkpt lat="49.67538" lon="0.68339">
        <ele>78</ele>
        <time>2012-05-31T08:37:41Z</time>
      </trkpt>
      <trkpt lat="49.67547" lon="0.68345">
        <ele>78</ele>
        <time>2012-05-31T08:37:48Z</time>
      </trkpt>
      <trkpt lat="49.67552" lon="0.68356">
        <ele>78</ele>
        <time>2012-05-31T08:37:56Z</time>
      </trkpt>
      <trkpt lat="49.67559" lon="0.68366">
        <ele>78</ele>
        <time>2012-05-31T08:38:03Z</time>
      </trkpt>
      <trkpt lat="49.67565" lon="0.6838">
        <ele>78</ele>
        <time>2012-05-31T08:38:13Z</time>
      </trkpt>
      <trkpt lat="49.67572" lon="0.6839">
        <ele>78</ele>
        <time>2012-05-31T08:38:20Z</time>
      </trkpt>
      <trkpt lat="49.67578" lon="0.684">
        <ele>78</ele>
        <time>2012-05-31T08:38:27Z</time>
      </trkpt>
      <trkpt lat="49.67584" lon="0.68411">
        <ele>78</ele>
        <time>2012-05-31T08:38:34Z</time>
      </trkpt>
      <trkpt lat="49.6759" lon="0.68422">
        <ele>78</ele>
        <time>2012-05-31T08:38:41Z</time>
      </trkpt>
      <trkpt lat="49.67596" lon="0.68436">
        <ele>78</ele>
        <time>2012-05-31T08:38:48Z</time>
      </trkpt>
      <trkpt lat="49.67602" lon="0.68446">
        <ele>78</ele>
        <time>2012-05-31T08:38:55Z</time>
      </trkpt>
      <trkpt lat="49.67609" lon="0.68458">
        <ele>78</ele>
        <time>2012-05-31T08:39:03Z</time>
      </trkpt>
      <trkpt lat="49.67614" lon="0.68471">
        <ele>78</ele>
        <time>2012-05-31T08:39:11Z</time>
      </trkpt>
      <trkpt lat="49.6762" lon="0.68482">
        <ele>78</ele>
        <time>2012-05-31T08:39:18Z</time>
      </trkpt>
      <trkpt lat="49.67626" lon="0.68493">
        <ele>78</ele>
        <time>2012-05-31T08:39:25Z</time>
      </trkpt>
      <trkpt lat="49.67633" lon="0.68505">
        <ele>78</ele>
        <time>2012-05-31T08:39:33Z</time>
      </trkpt>
      <trkpt lat="49.67639" lon="0.68517">
        <ele>78</ele>
        <time>2012-05-31T08:39:42Z</time>
      </trkpt>
      <trkpt lat="49.67644" lon="0.68528">
        <ele>78</ele>
        <time>2012-05-31T08:39:49Z</time>
      </trkpt>
      <trkpt lat="49.67651" lon="0.6854">
        <ele>78</ele>
        <time>2012-05-31T08:39:57Z</time>
      </trkpt>
      <trkpt lat="49.67657" lon="0.68551">
        <ele>78</ele>
        <time>2012-05-31T08:40:05Z</time>
      </trkpt>
      <trkpt lat="49.67664" lon="0.68563">
        <ele>78</ele>
        <time>2012-05-31T08:40:13Z</time>
      </trkpt>
      <trkpt lat="49.6767" lon="0.68576">
        <ele>78</ele>
        <time>2012-05-31T08:40:21Z</time>
      </trkpt>
      <trkpt lat="49.67677" lon="0.68586">
        <ele>78</ele>
        <time>2012-05-31T08:40:29Z</time>
      </trkpt>
      <trkpt lat="49.67683" lon="0.68599">
        <ele>78</ele>
        <time>2012-05-31T08:40:37Z</time>
      </trkpt>
      <trkpt lat="49.67689" lon="0.68611">
        <ele>83</ele>
        <time>2012-05-31T08:40:46Z</time>
      </trkpt>
      <trkpt lat="49.67695" lon="0.68622">
        <ele>83</ele>
        <time>2012-05-31T08:40:55Z</time>
      </trkpt>
      <trkpt lat="49.67701" lon="0.68635">
        <ele>83</ele>
        <time>2012-05-31T08:41:04Z</time>
      </trkpt>
      <trkpt lat="49.67703" lon="0.68649">
        <ele>83</ele>
        <time>2012-05-31T08:41:24Z</time>
      </trkpt>
      <trkpt lat="49.6771" lon="0.6864">
        <ele>83</ele>
        <time>2012-05-31T08:42:19Z</time>
      </trkpt>
      <trkpt lat="49.67717" lon="0.6863">
        <ele>83</ele>
        <time>2012-05-31T08:42:27Z</time>
      </trkpt>
      <trkpt lat="49.67724" lon="0.6862">
        <ele>83</ele>
        <time>2012-05-31T08:42:35Z</time>
      </trkpt>
      <trkpt lat="49.67727" lon="0.68605">
        <ele>83</ele>
        <time>2012-05-31T08:42:44Z</time>
      </trkpt>
      <trkpt lat="49.67731" lon="0.68591">
        <ele>83</ele>
        <time>2012-05-31T08:42:49Z</time>
      </trkpt>
      <trkpt lat="49.67736" lon="0.68579">
        <ele>83</ele>
        <time>2012-05-31T08:42:57Z</time>
      </trkpt>
      <trkpt lat="49.67742" lon="0.68568">
        <ele>83</ele>
        <time>2012-05-31T08:43:03Z</time>
      </trkpt>
      <trkpt lat="49.67748" lon="0.68552">
        <ele>83</ele>
        <time>2012-05-31T08:43:11Z</time>
      </trkpt>
      <trkpt lat="49.6775" lon="0.68537">
        <ele>83</ele>
        <time>2012-05-31T08:43:17Z</time>
      </trkpt>
      <trkpt lat="49.67758" lon="0.68528">
        <ele>83</ele>
        <time>2012-05-31T08:43:26Z</time>
      </trkpt>
      <trkpt lat="49.67766" lon="0.68521">
        <ele>78</ele>
        <time>2012-05-31T08:43:33Z</time>
      </trkpt>
      <trkpt lat="49.67776" lon="0.68517">
        <ele>78</ele>
        <time>2012-05-31T08:43:40Z</time>
      </trkpt>
      <trkpt lat="49.67784" lon="0.68514">
        <ele>78</ele>
        <time>2012-05-31T08:43:47Z</time>
      </trkpt>
      <trkpt lat="49.67794" lon="0.68512">
        <ele>78</ele>
        <time>2012-05-31T08:43:58Z</time>
      </trkpt>
      <trkpt lat="49.67802" lon="0.68508">
        <ele>78</ele>
        <time>2012-05-31T08:44:05Z</time>
      </trkpt>
      <trkpt lat="49.67809" lon="0.68497">
        <ele>78</ele>
        <time>2012-05-31T08:44:12Z</time>
      </trkpt>
      <trkpt lat="49.67819" lon="0.68493">
        <ele>78</ele>
        <time>2012-05-31T08:44:18Z</time>
      </trkpt>
      <trkpt lat="49.67827" lon="0.68487">
        <ele>70</ele>
        <time>2012-05-31T08:44:25Z</time>
      </trkpt>
      <trkpt lat="49.67835" lon="0.6848">
        <ele>70</ele>
        <time>2012-05-31T08:44:30Z</time>
      </trkpt>
      <trkpt lat="49.67843" lon="0.68471">
        <ele>70</ele>
        <time>2012-05-31T08:44:36Z</time>
      </trkpt>
      <trkpt lat="49.67849" lon="0.68461">
        <ele>70</ele>
        <time>2012-05-31T08:44:42Z</time>
      </trkpt>
      <trkpt lat="49.67854" lon="0.6845">
        <ele>78</ele>
        <time>2012-05-31T08:44:49Z</time>
      </trkpt>
      <trkpt lat="49.67865" lon="0.6845">
        <ele>78</ele>
        <time>2012-05-31T08:44:56Z</time>
      </trkpt>
      <trkpt lat="49.67874" lon="0.68443">
        <ele>78</ele>
        <time>2012-05-31T08:45:07Z</time>
      </trkpt>
      <trkpt lat="49.67883" lon="0.68442">
        <ele>78</ele>
        <time>2012-05-31T08:45:13Z</time>
      </trkpt>
      <trkpt lat="49.67894" lon="0.68441">
        <ele>78</ele>
        <time>2012-05-31T08:45:21Z</time>
      </trkpt>
      <trkpt lat="49.67904" lon="0.68442">
        <ele>78</ele>
        <time>2012-05-31T08:45:28Z</time>
      </trkpt>
      <trkpt lat="49.67913" lon="0.68442">
        <ele>78</ele>
        <time>2012-05-31T08:45:35Z</time>
      </trkpt>
      <trkpt lat="49.67923" lon="0.68444">
        <ele>78</ele>
        <time>2012-05-31T08:45:42Z</time>
      </trkpt>
      <trkpt lat="49.67932" lon="0.68443">
        <ele>78</ele>
        <time>2012-05-31T08:45:49Z</time>
      </trkpt>
      <trkpt lat="49.67941" lon="0.68447">
        <ele>78</ele>
        <time>2012-05-31T08:45:55Z</time>
      </trkpt>
      <trkpt lat="49.67951" lon="0.68453">
        <ele>78</ele>
        <time>2012-05-31T08:46:02Z</time>
      </trkpt>
      <trkpt lat="49.6796" lon="0.68456">
        <ele>85</ele>
        <time>2012-05-31T08:46:11Z</time>
      </trkpt>
      <trkpt lat="49.6797" lon="0.68462">
        <ele>85</ele>
        <time>2012-05-31T08:46:18Z</time>
      </trkpt>
      <trkpt lat="49.6798" lon="0.68469">
        <ele>85</ele>
        <time>2012-05-31T08:46:25Z</time>
      </trkpt>
      <trkpt lat="49.67989" lon="0.68474">
        <ele>85</ele>
        <time>2012-05-31T08:46:33Z</time>
      </trkpt>
      <trkpt lat="49.67997" lon="0.68483">
        <ele>85</ele>
        <time>2012-05-31T08:46:42Z</time>
      </trkpt>
      <trkpt lat="49.68005" lon="0.68489">
        <ele>80</ele>
        <time>2012-05-31T08:46:47Z</time>
      </trkpt>
      <trkpt lat="49.68013" lon="0.68497">
        <ele>80</ele>
        <time>2012-05-31T08:46:54Z</time>
      </trkpt>
      <trkpt lat="49.68022" lon="0.68505">
        <ele>80</ele>
        <time>2012-05-31T08:47:00Z</time>
      </trkpt>
      <trkpt lat="49.6803" lon="0.68515">
        <ele>80</ele>
        <time>2012-05-31T08:47:08Z</time>
      </trkpt>
      <trkpt lat="49.68039" lon="0.68521">
        <ele>80</ele>
        <time>2012-05-31T08:47:15Z</time>
      </trkpt>
      <trkpt lat="49.68047" lon="0.68528">
        <ele>80</ele>
        <time>2012-05-31T08:47:22Z</time>
      </trkpt>
      <trkpt lat="49.68055" lon="0.68536">
        <ele>80</ele>
        <time>2012-05-31T08:47:29Z</time>
      </trkpt>
      <trkpt lat="49.68064" lon="0.68544">
        <ele>80</ele>
        <time>2012-05-31T08:47:36Z</time>
      </trkpt>
      <trkpt lat="49.68073" lon="0.6855">
        <ele>73</ele>
        <time>2012-05-31T08:47:44Z</time>
      </trkpt>
      <trkpt lat="49.68081" lon="0.68557">
        <ele>73</ele>
        <time>2012-05-31T08:47:51Z</time>
      </trkpt>
      <trkpt lat="49.68089" lon="0.68563">
        <ele>73</ele>
        <time>2012-05-31T08:47:57Z</time>
      </trkpt>
      <trkpt lat="49.68098" lon="0.68569">
        <ele>73</ele>
        <time>2012-05-31T08:48:04Z</time>
      </trkpt>
      <trkpt lat="49.68107" lon="0.68575">
        <ele>73</ele>
        <time>2012-05-31T08:48:11Z</time>
      </trkpt>
      <trkpt lat="49.68117" lon="0.68579">
        <ele>73</ele>
        <time>2012-05-31T08:48:18Z</time>
      </trkpt>
      <trkpt lat="49.68126" lon="0.68584">
        <ele>73</ele>
        <time>2012-05-31T08:48:25Z</time>
      </trkpt>
      <trkpt lat="49.68136" lon="0.68588">
        <ele>73</ele>
        <time>2012-05-31T08:48:32Z</time>
      </trkpt>
      <trkpt lat="49.68145" lon="0.68593">
        <ele>73</ele>
        <time>2012-05-31T08:48:39Z</time>
      </trkpt>
      <trkpt lat="49.68155" lon="0.68596">
        <ele>73</ele>
        <time>2012-05-31T08:48:46Z</time>
      </trkpt>
      <trkpt lat="49.68164" lon="0.68601">
        <ele>73</ele>
        <time>2012-05-31T08:48:53Z</time>
      </trkpt>
      <trkpt lat="49.68175" lon="0.68604">
        <ele>73</ele>
        <time>2012-05-31T08:49:01Z</time>
      </trkpt>
      <trkpt lat="49.68184" lon="0.68611">
        <ele>73</ele>
        <time>2012-05-31T08:49:09Z</time>
      </trkpt>
      <trkpt lat="49.68194" lon="0.68616">
        <ele>73</ele>
        <time>2012-05-31T08:49:16Z</time>
      </trkpt>
      <trkpt lat="49.68202" lon="0.68621">
        <ele>73</ele>
        <time>2012-05-31T08:49:23Z</time>
      </trkpt>
      <trkpt lat="49.68211" lon="0.68625">
        <ele>73</ele>
        <time>2012-05-31T08:49:30Z</time>
      </trkpt>
      <trkpt lat="49.68221" lon="0.6863">
        <ele>73</ele>
        <time>2012-05-31T08:49:38Z</time>
      </trkpt>
      <trkpt lat="49.6823" lon="0.68634">
        <ele>73</ele>
        <time>2012-05-31T08:49:45Z</time>
      </trkpt>
      <trkpt lat="49.68238" lon="0.68639">
        <ele>73</ele>
        <time>2012-05-31T08:49:52Z</time>
      </trkpt>
      <trkpt lat="49.68248" lon="0.68645">
        <ele>73</ele>
        <time>2012-05-31T08:50:00Z</time>
      </trkpt>
      <trkpt lat="49.68258" lon="0.68648">
        <ele>73</ele>
        <time>2012-05-31T08:50:07Z</time>
      </trkpt>
      <trkpt lat="49.68266" lon="0.68653">
        <ele>73</ele>
        <time>2012-05-31T08:50:14Z</time>
      </trkpt>
      <trkpt lat="49.68275" lon="0.68658">
        <ele>73</ele>
        <time>2012-05-31T08:50:21Z</time>
      </trkpt>
      <trkpt lat="49.68285" lon="0.68662">
        <ele>73</ele>
        <time>2012-05-31T08:50:28Z</time>
      </trkpt>
      <trkpt lat="49.68293" lon="0.68668">
        <ele>73</ele>
        <time>2012-05-31T08:50:35Z</time>
      </trkpt>
      <trkpt lat="49.68302" lon="0.68672">
        <ele>73</ele>
        <time>2012-05-31T08:50:42Z</time>
      </trkpt>
      <trkpt lat="49.68311" lon="0.68676">
        <ele>73</ele>
        <time>2012-05-31T08:50:49Z</time>
      </trkpt>
      <trkpt lat="49.68321" lon="0.6868">
        <ele>73</ele>
        <time>2012-05-31T08:50:56Z</time>
      </trkpt>
      <trkpt lat="49.68331" lon="0.68684">
        <ele>73</ele>
        <time>2012-05-31T08:51:03Z</time>
      </trkpt>
      <trkpt lat="49.6834" lon="0.68689">
        <ele>73</ele>
        <time>2012-05-31T08:51:10Z</time>
      </trkpt>
      <trkpt lat="49.68349" lon="0.68694">
        <ele>73</ele>
        <time>2012-05-31T08:51:17Z</time>
      </trkpt>
      <trkpt lat="49.68358" lon="0.68699">
        <ele>73</ele>
        <time>2012-05-31T08:51:24Z</time>
      </trkpt>
      <trkpt lat="49.68368" lon="0.68703">
        <ele>73</ele>
        <time>2012-05-31T08:51:31Z</time>
      </trkpt>
      <trkpt lat="49.68377" lon="0.68706">
        <ele>73</ele>
        <time>2012-05-31T08:51:38Z</time>
      </trkpt>
      <trkpt lat="49.68387" lon="0.68709">
        <ele>73</ele>
        <time>2012-05-31T08:51:45Z</time>
      </trkpt>
      <trkpt lat="49.68396" lon="0.68716">
        <ele>73</ele>
        <time>2012-05-31T08:51:52Z</time>
      </trkpt>
      <trkpt lat="49.68403" lon="0.68725">
        <ele>73</ele>
        <time>2012-05-31T08:51:59Z</time>
      </trkpt>
      <trkpt lat="49.68411" lon="0.68731">
        <ele>73</ele>
        <time>2012-05-31T08:52:07Z</time>
      </trkpt>
      <trkpt lat="49.6842" lon="0.68736">
        <ele>73</ele>
        <time>2012-05-31T08:52:15Z</time>
      </trkpt>
      <trkpt lat="49.68429" lon="0.68745">
        <ele>73</ele>
        <time>2012-05-31T08:52:23Z</time>
      </trkpt>
      <trkpt lat="49.68437" lon="0.68754">
        <ele>73</ele>
        <time>2012-05-31T08:52:31Z</time>
      </trkpt>
      <trkpt lat="49.68446" lon="0.68762">
        <ele>73</ele>
        <time>2012-05-31T08:52:39Z</time>
      </trkpt>
      <trkpt lat="49.68455" lon="0.68767">
        <ele>73</ele>
        <time>2012-05-31T08:52:47Z</time>
      </trkpt>
      <trkpt lat="49.68465" lon="0.68772">
        <ele>68</ele>
        <time>2012-05-31T08:52:54Z</time>
      </trkpt>
      <trkpt lat="49.68472" lon="0.68781">
        <ele>68</ele>
        <time>2012-05-31T08:53:00Z</time>
      </trkpt>
      <trkpt lat="49.6848" lon="0.68789">
        <ele>68</ele>
        <time>2012-05-31T08:53:07Z</time>
      </trkpt>
      <trkpt lat="49.68489" lon="0.68795">
        <ele>68</ele>
        <time>2012-05-31T08:53:15Z</time>
      </trkpt>
      <trkpt lat="49.68497" lon="0.68801">
        <ele>68</ele>
        <time>2012-05-31T08:53:22Z</time>
      </trkpt>
      <trkpt lat="49.68506" lon="0.68807">
        <ele>68</ele>
        <time>2012-05-31T08:53:29Z</time>
      </trkpt>
      <trkpt lat="49.68513" lon="0.68798">
        <ele>78</ele>
        <time>2012-05-31T08:54:03Z</time>
      </trkpt>
      <trkpt lat="49.6852" lon="0.68788">
        <ele>78</ele>
        <time>2012-05-31T08:54:18Z</time>
      </trkpt>
      <trkpt lat="49.68528" lon="0.68778">
        <ele>78</ele>
        <time>2012-05-31T08:54:26Z</time>
      </trkpt>
      <trkpt lat="49.68536" lon="0.68769">
        <ele>78</ele>
        <time>2012-05-31T08:54:35Z</time>
      </trkpt>
      <trkpt lat="49.68544" lon="0.68758">
        <ele>90</ele>
        <time>2012-05-31T08:54:58Z</time>
      </trkpt>
      <trkpt lat="49.68551" lon="0.68745">
        <ele>90</ele>
        <time>2012-05-31T08:55:12Z</time>
      </trkpt>
      <trkpt lat="49.68558" lon="0.68735">
        <ele>99</ele>
        <time>2012-05-31T08:55:32Z</time>
      </trkpt>
      <trkpt lat="49.68562" lon="0.68722">
        <ele>99</ele>
        <time>2012-05-31T08:55:44Z</time>
      </trkpt>
      <trkpt lat="49.6857" lon="0.68713">
        <ele>99</ele>
        <time>2012-05-31T08:55:56Z</time>
      </trkpt>
      <trkpt lat="49.68578" lon="0.68705">
        <ele>99</ele>
        <time>2012-05-31T08:56:15Z</time>
      </trkpt>
      <trkpt lat="49.68585" lon="0.68695">
        <ele>99</ele>
        <time>2012-05-31T08:56:26Z</time>
      </trkpt>
      <trkpt lat="49.68591" lon="0.68683">
        <ele>99</ele>
        <time>2012-05-31T08:56:35Z</time>
      </trkpt>
      <trkpt lat="49.68597" lon="0.68674">
        <ele>112</ele>
        <time>2012-05-31T08:56:56Z</time>
      </trkpt>
      <trkpt lat="49.68603" lon="0.68663">
        <ele>112</ele>
        <time>2012-05-31T08:57:14Z</time>
      </trkpt>
      <trkpt lat="49.68609" lon="0.68651">
        <ele>112</ele>
        <time>2012-05-31T08:57:28Z</time>
      </trkpt>
      <trkpt lat="49.68619" lon="0.68646">
        <ele>112</ele>
        <time>2012-05-31T08:57:40Z</time>
      </trkpt>
      <trkpt lat="49.68623" lon="0.6863">
        <ele>112</ele>
        <time>2012-05-31T08:57:49Z</time>
      </trkpt>
      <trkpt lat="49.68629" lon="0.68621">
        <ele>112</ele>
        <time>2012-05-31T08:58:03Z</time>
      </trkpt>
      <trkpt lat="49.68638" lon="0.68612">
        <ele>118</ele>
        <time>2012-05-31T08:58:21Z</time>
      </trkpt>
      <trkpt lat="49.68646" lon="0.68603">
        <ele>118</ele>
        <time>2012-05-31T08:58:30Z</time>
      </trkpt>
      <trkpt lat="49.6865" lon="0.68589">
        <ele>125</ele>
        <time>2012-05-31T08:58:52Z</time>
      </trkpt>
      <trkpt lat="49.68655" lon="0.68576">
        <ele>125</ele>
        <time>2012-05-31T08:59:49Z</time>
      </trkpt>
      <trkpt lat="49.68658" lon="0.68562">
        <ele>125</ele>
        <time>2012-05-31T09:00:00Z</time>
      </trkpt>
      <trkpt lat="49.68663" lon="0.68548">
        <ele>117</ele>
        <time>2012-05-31T09:00:07Z</time>
      </trkpt>
      <trkpt lat="49.68667" lon="0.68533">
        <ele>117</ele>
        <time>2012-05-31T09:00:15Z</time>
      </trkpt>
      <trkpt lat="49.68669" lon="0.68518">
        <ele>117</ele>
        <time>2012-05-31T09:00:24Z</time>
      </trkpt>
      <trkpt lat="49.6867" lon="0.68503">
        <ele>117</ele>
        <time>2012-05-31T09:00:35Z</time>
      </trkpt>
      <trkpt lat="49.68676" lon="0.6849">
        <ele>117</ele>
        <time>2012-05-31T09:00:44Z</time>
      </trkpt>
      <trkpt lat="49.68679" lon="0.68476">
        <ele>117</ele>
        <time>2012-05-31T09:00:52Z</time>
      </trkpt>
      <trkpt lat="49.68684" lon="0.68465">
        <ele>123</ele>
        <time>2012-05-31T09:01:09Z</time>
      </trkpt>
      <trkpt lat="49.6869" lon="0.68453">
        <ele>123</ele>
        <time>2012-05-31T09:01:16Z</time>
      </trkpt>
      <trkpt lat="49.68694" lon="0.68441">
        <ele>117</ele>
        <time>2012-05-31T09:01:24Z</time>
      </trkpt>
      <trkpt lat="49.68701" lon="0.6843">
        <ele>117</ele>
        <time>2012-05-31T09:01:33Z</time>
      </trkpt>
      <trkpt lat="49.68709" lon="0.68422">
        <ele>117</ele>
        <time>2012-05-31T09:01:42Z</time>
      </trkpt>
      <trkpt lat="49.68715" lon="0.6841">
        <ele>117</ele>
        <time>2012-05-31T09:01:51Z</time>
      </trkpt>
      <trkpt lat="49.68722" lon="0.684">
        <ele>117</ele>
        <time>2012-05-31T09:01:58Z</time>
      </trkpt>
      <trkpt lat="49.68728" lon="0.68389">
        <ele>117</ele>
        <time>2012-05-31T09:02:06Z</time>
      </trkpt>
      <trkpt lat="49.68736" lon="0.68382">
        <ele>117</ele>
        <time>2012-05-31T09:02:13Z</time>
      </trkpt>
      <trkpt lat="49.68743" lon="0.68372">
        <ele>117</ele>
        <time>2012-05-31T09:02:22Z</time>
      </trkpt>
      <trkpt lat="49.68747" lon="0.68359">
        <ele>124</ele>
        <time>2012-05-31T09:02:32Z</time>
      </trkpt>
      <trkpt lat="49.68755" lon="0.68349">
        <ele>124</ele>
        <time>2012-05-31T09:02:38Z</time>
      </trkpt>
      <trkpt lat="49.68762" lon="0.68338">
        <ele>118</ele>
        <time>2012-05-31T09:02:48Z</time>
      </trkpt>
      <trkpt lat="49.6877" lon="0.68329">
        <ele>118</ele>
        <time>2012-05-31T09:02:55Z</time>
      </trkpt>
      <trkpt lat="49.68775" lon="0.68316">
        <ele>118</ele>
        <time>2012-05-31T09:03:02Z</time>
      </trkpt>
      <trkpt lat="49.68781" lon="0.68303">
        <ele>118</ele>
        <time>2012-05-31T09:03:11Z</time>
      </trkpt>
      <trkpt lat="49.68787" lon="0.68292">
        <ele>118</ele>
        <time>2012-05-31T09:03:20Z</time>
      </trkpt>
      <trkpt lat="49.68793" lon="0.68282">
        <ele>118</ele>
        <time>2012-05-31T09:03:26Z</time>
      </trkpt>
      <trkpt lat="49.688" lon="0.6827">
        <ele>118</ele>
        <time>2012-05-31T09:03:31Z</time>
      </trkpt>
      <trkpt lat="49.68803" lon="0.68257">
        <ele>118</ele>
        <time>2012-05-31T09:03:43Z</time>
      </trkpt>
      <trkpt lat="49.68806" lon="0.68243">
        <ele>118</ele>
        <time>2012-05-31T09:03:50Z</time>
      </trkpt>
      <trkpt lat="49.6881" lon="0.68229">
        <ele>118</ele>
        <time>2012-05-31T09:03:58Z</time>
      </trkpt>
      <trkpt lat="49.68814" lon="0.68216">
        <ele>118</ele>
        <time>2012-05-31T09:04:03Z</time>
      </trkpt>
      <trkpt lat="49.68817" lon="0.68203">
        <ele>118</ele>
        <time>2012-05-31T09:04:11Z</time>
      </trkpt>
      <trkpt lat="49.68821" lon="0.68188">
        <ele>118</ele>
        <time>2012-05-31T09:04:20Z</time>
      </trkpt>
      <trkpt lat="49.68823" lon="0.68175">
        <ele>118</ele>
        <time>2012-05-31T09:04:29Z</time>
      </trkpt>
      <trkpt lat="49.68827" lon="0.68162">
        <ele>118</ele>
        <time>2012-05-31T09:04:35Z</time>
      </trkpt>
      <trkpt lat="49.68831" lon="0.68147">
        <ele>118</ele>
        <time>2012-05-31T09:04:54Z</time>
      </trkpt>
      <trkpt lat="49.68839" lon="0.68135">
        <ele>118</ele>
        <time>2012-05-31T09:05:03Z</time>
      </trkpt>
      <trkpt lat="49.68845" lon="0.68125">
        <ele>118</ele>
        <time>2012-05-31T09:05:22Z</time>
      </trkpt>
      <trkpt lat="49.68853" lon="0.68115">
        <ele>118</ele>
        <time>2012-05-31T09:05:32Z</time>
      </trkpt>
      <trkpt lat="49.68859" lon="0.68105">
        <ele>118</ele>
        <time>2012-05-31T09:05:38Z</time>
      </trkpt>
      <trkpt lat="49.68867" lon="0.68096">
        <ele>118</ele>
        <time>2012-05-31T09:05:45Z</time>
      </trkpt>
      <trkpt lat="49.68876" lon="0.68088">
        <ele>118</ele>
        <time>2012-05-31T09:05:53Z</time>
      </trkpt>
      <trkpt lat="49.68883" lon="0.68079">
        <ele>118</ele>
        <time>2012-05-31T09:06:01Z</time>
      </trkpt>
      <trkpt lat="49.68891" lon="0.6807">
        <ele>118</ele>
        <time>2012-05-31T09:06:10Z</time>
      </trkpt>
      <trkpt lat="49.68897" lon="0.6806">
        <ele>118</ele>
        <time>2012-05-31T09:06:18Z</time>
      </trkpt>
      <trkpt lat="49.68904" lon="0.6805">
        <ele>118</ele>
        <time>2012-05-31T09:06:27Z</time>
      </trkpt>
      <trkpt lat="49.68913" lon="0.68044">
        <ele>118</ele>
        <time>2012-05-31T09:06:35Z</time>
      </trkpt>
      <trkpt lat="49.68921" lon="0.68038">
        <ele>118</ele>
        <time>2012-05-31T09:06:44Z</time>
      </trkpt>
      <trkpt lat="49.6893" lon="0.68028">
        <ele>118</ele>
        <time>2012-05-31T09:06:52Z</time>
      </trkpt>
      <trkpt lat="49.68936" lon="0.68017">
        <ele>118</ele>
        <time>2012-05-31T09:07:21Z</time>
      </trkpt>
      <trkpt lat="49.68944" lon="0.68009">
        <ele>118</ele>
        <time>2012-05-31T09:07:31Z</time>
      </trkpt>
      <trkpt lat="49.68951" lon="0.68">
        <ele>118</ele>
        <time>2012-05-31T09:07:55Z</time>
      </trkpt>
      <trkpt lat="49.68958" lon="0.67991">
        <ele>118</ele>
        <time>2012-05-31T09:08:03Z</time>
      </trkpt>
      <trkpt lat="49.68966" lon="0.67981">
        <ele>118</ele>
        <time>2012-05-31T09:08:11Z</time>
      </trkpt>
      <trkpt lat="49.68973" lon="0.6797">
        <ele>118</ele>
        <time>2012-05-31T09:08:19Z</time>
      </trkpt>
      <trkpt lat="49.6898" lon="0.67961">
        <ele>118</ele>
        <time>2012-05-31T09:08:26Z</time>
      </trkpt>
      <trkpt lat="49.68987" lon="0.67951">
        <ele>118</ele>
        <time>2012-05-31T09:08:33Z</time>
      </trkpt>
      <trkpt lat="49.68994" lon="0.6794">
        <ele>118</ele>
        <time>2012-05-31T09:08:41Z</time>
      </trkpt>
      <trkpt lat="49.69001" lon="0.67929">
        <ele>123</ele>
        <time>2012-05-31T09:08:49Z</time>
      </trkpt>
      <trkpt lat="49.69007" lon="0.67918">
        <ele>123</ele>
        <time>2012-05-31T09:08:56Z</time>
      </trkpt>
      <trkpt lat="49.69014" lon="0.67908">
        <ele>123</ele>
        <time>2012-05-31T09:09:04Z</time>
      </trkpt>
      <trkpt lat="49.69019" lon="0.67897">
        <ele>123</ele>
        <time>2012-05-31T09:09:11Z</time>
      </trkpt>
      <trkpt lat="49.69025" lon="0.67886">
        <ele>123</ele>
        <time>2012-05-31T09:09:19Z</time>
      </trkpt>
      <trkpt lat="49.69032" lon="0.67873">
        <ele>123</ele>
        <time>2012-05-31T09:09:27Z</time>
      </trkpt>
      <trkpt lat="49.69038" lon="0.67861">
        <ele>123</ele>
        <time>2012-05-31T09:09:35Z</time>
      </trkpt>
      <trkpt lat="49.69043" lon="0.6785">
        <ele>123</ele>
        <time>2012-05-31T09:09:42Z</time>
      </trkpt>
      <trkpt lat="49.69049" lon="0.67837">
        <ele>123</ele>
        <time>2012-05-31T09:09:50Z</time>
      </trkpt>
      <trkpt lat="49.69055" lon="0.67825">
        <ele>123</ele>
        <time>2012-05-31T09:09:58Z</time>
      </trkpt>
      <trkpt lat="49.6906" lon="0.67813">
        <ele>123</ele>
        <time>2012-05-31T09:10:05Z</time>
      </trkpt>
      <trkpt lat="49.69067" lon="0.67803">
        <ele>123</ele>
        <time>2012-05-31T09:10:12Z</time>
      </trkpt>
      <trkpt lat="49.69073" lon="0.67793">
        <ele>123</ele>
        <time>2012-05-31T09:10:19Z</time>
      </trkpt>
      <trkpt lat="49.6908" lon="0.67784">
        <ele>123</ele>
        <time>2012-05-31T09:10:26Z</time>
      </trkpt>
      <trkpt lat="49.69086" lon="0.67774">
        <ele>123</ele>
        <time>2012-05-31T09:10:33Z</time>
      </trkpt>
      <trkpt lat="49.69093" lon="0.67765">
        <ele>123</ele>
        <time>2012-05-31T09:10:40Z</time>
      </trkpt>
      <trkpt lat="49.69102" lon="0.67756">
        <ele>123</ele>
        <time>2012-05-31T09:10:48Z</time>
      </trkpt>
      <trkpt lat="49.69109" lon="0.67747">
        <ele>123</ele>
        <time>2012-05-31T09:10:55Z</time>
      </trkpt>
      <trkpt lat="49.69116" lon="0.67738">
        <ele>123</ele>
        <time>2012-05-31T09:11:03Z</time>
      </trkpt>
      <trkpt lat="49.69123" lon="0.67729">
        <ele>123</ele>
        <time>2012-05-31T09:11:10Z</time>
      </trkpt>
      <trkpt lat="49.6913" lon="0.67718">
        <ele>123</ele>
        <time>2012-05-31T09:11:18Z</time>
      </trkpt>
      <trkpt lat="49.69138" lon="0.67709">
        <ele>123</ele>
        <time>2012-05-31T09:11:26Z</time>
      </trkpt>
      <trkpt lat="49.69145" lon="0.67698">
        <ele>123</ele>
        <time>2012-05-31T09:11:34Z</time>
      </trkpt>
      <trkpt lat="49.69152" lon="0.67688">
        <ele>123</ele>
        <time>2012-05-31T09:11:42Z</time>
      </trkpt>
      <trkpt lat="49.69159" lon="0.67679">
        <ele>123</ele>
        <time>2012-05-31T09:11:49Z</time>
      </trkpt>
      <trkpt lat="49.69166" lon="0.6767">
        <ele>123</ele>
        <time>2012-05-31T09:11:56Z</time>
      </trkpt>
      <trkpt lat="49.69174" lon="0.67662">
        <ele>123</ele>
        <time>2012-05-31T09:12:03Z</time>
      </trkpt>
      <trkpt lat="49.69181" lon="0.67653">
        <ele>123</ele>
        <time>2012-05-31T09:12:10Z</time>
      </trkpt>
      <trkpt lat="49.6919" lon="0.67643">
        <ele>123</ele>
        <time>2012-05-31T09:12:18Z</time>
      </trkpt>
      <trkpt lat="49.69198" lon="0.67634">
        <ele>123</ele>
        <time>2012-05-31T09:12:26Z</time>
      </trkpt>
      <trkpt lat="49.69205" lon="0.67626">
        <ele>123</ele>
        <time>2012-05-31T09:12:33Z</time>
      </trkpt>
      <trkpt lat="49.69213" lon="0.67618">
        <ele>123</ele>
        <time>2012-05-31T09:12:40Z</time>
      </trkpt>
      <trkpt lat="49.69221" lon="0.67609">
        <ele>123</ele>
        <time>2012-05-31T09:12:48Z</time>
      </trkpt>
      <trkpt lat="49.6923" lon="0.67601">
        <ele>123</ele>
        <time>2012-05-31T09:12:56Z</time>
      </trkpt>
      <trkpt lat="49.69237" lon="0.67593">
        <ele>123</ele>
        <time>2012-05-31T09:13:03Z</time>
      </trkpt>
      <trkpt lat="49.69246" lon="0.67585">
        <ele>123</ele>
        <time>2012-05-31T09:13:11Z</time>
      </trkpt>
      <trkpt lat="49.69255" lon="0.67576">
        <ele>123</ele>
        <time>2012-05-31T09:13:19Z</time>
      </trkpt>
      <trkpt lat="49.69263" lon="0.67568">
        <ele>123</ele>
        <time>2012-05-31T09:13:27Z</time>
      </trkpt>
      <trkpt lat="49.69272" lon="0.67571">
        <ele>123</ele>
        <time>2012-05-31T09:13:49Z</time>
      </trkpt>
      <trkpt lat="49.69276" lon="0.67585">
        <ele>123</ele>
        <time>2012-05-31T09:13:58Z</time>
      </trkpt>
      <trkpt lat="49.69282" lon="0.67596">
        <ele>123</ele>
        <time>2012-05-31T09:14:06Z</time>
      </trkpt>
      <trkpt lat="49.69287" lon="0.67609">
        <ele>123</ele>
        <time>2012-05-31T09:14:14Z</time>
      </trkpt>
      <trkpt lat="49.69293" lon="0.67622">
        <ele>123</ele>
        <time>2012-05-31T09:14:22Z</time>
      </trkpt>
      <trkpt lat="49.69298" lon="0.67633">
        <ele>123</ele>
        <time>2012-05-31T09:14:30Z</time>
      </trkpt>
      <trkpt lat="49.69303" lon="0.67645">
        <ele>123</ele>
        <time>2012-05-31T09:14:38Z</time>
      </trkpt>
      <trkpt lat="49.69309" lon="0.67657">
        <ele>123</ele>
        <time>2012-05-31T09:14:46Z</time>
      </trkpt>
      <trkpt lat="49.69314" lon="0.67667">
        <ele>123</ele>
        <time>2012-05-31T09:14:54Z</time>
      </trkpt>
      <trkpt lat="49.6932" lon="0.6768">
        <ele>123</ele>
        <time>2012-05-31T09:15:02Z</time>
      </trkpt>
      <trkpt lat="49.69325" lon="0.67693">
        <ele>129</ele>
        <time>2012-05-31T09:15:10Z</time>
      </trkpt>
      <trkpt lat="49.69331" lon="0.67706">
        <ele>129</ele>
        <time>2012-05-31T09:15:18Z</time>
      </trkpt>
      <trkpt lat="49.69335" lon="0.67719">
        <ele>129</ele>
        <time>2012-05-31T09:15:26Z</time>
      </trkpt>
      <trkpt lat="49.69341" lon="0.6773">
        <ele>129</ele>
        <time>2012-05-31T09:15:34Z</time>
      </trkpt>
      <trkpt lat="49.69346" lon="0.67742">
        <ele>129</ele>
        <time>2012-05-31T09:15:41Z</time>
      </trkpt>
      <trkpt lat="49.69352" lon="0.67755">
        <ele>129</ele>
        <time>2012-05-31T09:15:49Z</time>
      </trkpt>
      <trkpt lat="49.69359" lon="0.67765">
        <ele>129</ele>
        <time>2012-05-31T09:15:57Z</time>
      </trkpt>
      <trkpt lat="49.69364" lon="0.67777">
        <ele>129</ele>
        <time>2012-05-31T09:16:05Z</time>
      </trkpt>
      <trkpt lat="49.6937" lon="0.6779">
        <ele>129</ele>
        <time>2012-05-31T09:16:13Z</time>
      </trkpt>
      <trkpt lat="49.69376" lon="0.67802">
        <ele>129</ele>
        <time>2012-05-31T09:16:21Z</time>
      </trkpt>
      <trkpt lat="49.69382" lon="0.67815">
        <ele>129</ele>
        <time>2012-05-31T09:16:29Z</time>
      </trkpt>
      <trkpt lat="49.69388" lon="0.67826">
        <ele>129</ele>
        <time>2012-05-31T09:16:36Z</time>
      </trkpt>
      <trkpt lat="49.69394" lon="0.67839">
        <ele>129</ele>
        <time>2012-05-31T09:16:44Z</time>
      </trkpt>
      <trkpt lat="49.694" lon="0.67852">
        <ele>129</ele>
        <time>2012-05-31T09:16:52Z</time>
      </trkpt>
      <trkpt lat="49.69406" lon="0.67863">
        <ele>129</ele>
        <time>2012-05-31T09:17:00Z</time>
      </trkpt>
      <trkpt lat="49.69412" lon="0.67876">
        <ele>129</ele>
        <time>2012-05-31T09:17:08Z</time>
      </trkpt>
      <trkpt lat="49.69419" lon="0.67888">
        <ele>129</ele>
        <time>2012-05-31T09:17:16Z</time>
      </trkpt>
      <trkpt lat="49.69424" lon="0.67899">
        <ele>129</ele>
        <time>2012-05-31T09:17:24Z</time>
      </trkpt>
      <trkpt lat="49.6943" lon="0.67911">
        <ele>129</ele>
        <time>2012-05-31T09:17:32Z</time>
      </trkpt>
      <trkpt lat="49.69436" lon="0.67923">
        <ele>129</ele>
        <time>2012-05-31T09:17:40Z</time>
      </trkpt>
      <trkpt lat="49.69442" lon="0.67934">
        <ele>129</ele>
        <time>2012-05-31T09:17:47Z</time>
      </trkpt>
      <trkpt lat="49.69447" lon="0.67947">
        <ele>129</ele>
        <time>2012-05-31T09:17:55Z</time>
      </trkpt>
      <trkpt lat="49.69452" lon="0.67958">
        <ele>129</ele>
        <time>2012-05-31T09:18:03Z</time>
      </trkpt>
      <trkpt lat="49.69458" lon="0.67969">
        <ele>129</ele>
        <time>2012-05-31T09:18:10Z</time>
      </trkpt>
      <trkpt lat="49.69464" lon="0.6798">
        <ele>129</ele>
        <time>2012-05-31T09:18:17Z</time>
      </trkpt>
      <trkpt lat="49.6947" lon="0.67993">
        <ele>129</ele>
        <time>2012-05-31T09:18:25Z</time>
      </trkpt>
      <trkpt lat="49.69476" lon="0.68004">
        <ele>129</ele>
        <time>2012-05-31T09:18:33Z</time>
      </trkpt>
      <trkpt lat="49.69482" lon="0.68016">
        <ele>129</ele>
        <time>2012-05-31T09:18:41Z</time>
      </trkpt>
      <trkpt lat="49.69489" lon="0.68028">
        <ele>129</ele>
        <time>2012-05-31T09:18:49Z</time>
      </trkpt>
      <trkpt lat="49.69494" lon="0.68038">
        <ele>129</ele>
        <time>2012-05-31T09:18:57Z</time>
      </trkpt>
      <trkpt lat="49.69501" lon="0.68049">
        <ele>129</ele>
        <time>2012-05-31T09:19:05Z</time>
      </trkpt>
      <trkpt lat="49.69507" lon="0.68061">
        <ele>129</ele>
        <time>2012-05-31T09:19:12Z</time>
      </trkpt>
      <trkpt lat="49.69513" lon="0.68072">
        <ele>129</ele>
        <time>2012-05-31T09:19:20Z</time>
      </trkpt>
      <trkpt lat="49.69519" lon="0.68082">
        <ele>129</ele>
        <time>2012-05-31T09:19:27Z</time>
      </trkpt>
      <trkpt lat="49.69525" lon="0.68093">
        <ele>129</ele>
        <time>2012-05-31T09:19:35Z</time>
      </trkpt>
      <trkpt lat="49.69531" lon="0.68106">
        <ele>129</ele>
        <time>2012-05-31T09:19:43Z</time>
      </trkpt>
      <trkpt lat="49.69538" lon="0.68118">
        <ele>129</ele>
        <time>2012-05-31T09:19:51Z</time>
      </trkpt>
      <trkpt lat="49.69545" lon="0.68128">
        <ele>129</ele>
        <time>2012-05-31T09:19:59Z</time>
      </trkpt>
      <trkpt lat="49.69552" lon="0.68138">
        <ele>129</ele>
        <time>2012-05-31T09:20:07Z</time>
      </trkpt>
      <trkpt lat="49.69558" lon="0.68148">
        <ele>129</ele>
        <time>2012-05-31T09:20:14Z</time>
      </trkpt>
      <trkpt lat="49.69565" lon="0.68159">
        <ele>129</ele>
        <time>2012-05-31T09:20:22Z</time>
      </trkpt>
      <trkpt lat="49.69572" lon="0.68169">
        <ele>129</ele>
        <time>2012-05-31T09:20:29Z</time>
      </trkpt>
      <trkpt lat="49.69578" lon="0.68179">
        <ele>129</ele>
        <time>2012-05-31T09:20:37Z</time>
      </trkpt>
      <trkpt lat="49.69586" lon="0.6819">
        <ele>129</ele>
        <time>2012-05-31T09:20:45Z</time>
      </trkpt>
      <trkpt lat="49.69592" lon="0.682">
        <ele>129</ele>
        <time>2012-05-31T09:20:52Z</time>
      </trkpt>
      <trkpt lat="49.69599" lon="0.6821">
        <ele>129</ele>
        <time>2012-05-31T09:21:00Z</time>
      </trkpt>
      <trkpt lat="49.69606" lon="0.68219">
        <ele>129</ele>
        <time>2012-05-31T09:21:07Z</time>
      </trkpt>
      <trkpt lat="49.69614" lon="0.6823">
        <ele>129</ele>
        <time>2012-05-31T09:21:15Z</time>
      </trkpt>
      <trkpt lat="49.69621" lon="0.6824">
        <ele>129</ele>
        <time>2012-05-31T09:21:23Z</time>
      </trkpt>
      <trkpt lat="49.69628" lon="0.6825">
        <ele>129</ele>
        <time>2012-05-31T09:21:31Z</time>
      </trkpt>
      <trkpt lat="49.69635" lon="0.6826">
        <ele>129</ele>
        <time>2012-05-31T09:21:39Z</time>
      </trkpt>
      <trkpt lat="49.69643" lon="0.68269">
        <ele>129</ele>
        <time>2012-05-31T09:21:47Z</time>
      </trkpt>
      <trkpt lat="49.69651" lon="0.68278">
        <ele>129</ele>
        <time>2012-05-31T09:21:55Z</time>
      </trkpt>
      <trkpt lat="49.69659" lon="0.68286">
        <ele>129</ele>
        <time>2012-05-31T09:22:03Z</time>
      </trkpt>
      <trkpt lat="49.69667" lon="0.68294">
        <ele>123</ele>
        <time>2012-05-31T09:22:11Z</time>
      </trkpt>
      <trkpt lat="49.69676" lon="0.68302">
        <ele>123</ele>
        <time>2012-05-31T09:22:19Z</time>
      </trkpt>
      <trkpt lat="49.69685" lon="0.68309">
        <ele>123</ele>
        <time>2012-05-31T09:22:27Z</time>
      </trkpt>
      <trkpt lat="49.69693" lon="0.68315">
        <ele>123</ele>
        <time>2012-05-31T09:22:34Z</time>
      </trkpt>
      <trkpt lat="49.69701" lon="0.68324">
        <ele>123</ele>
        <time>2012-05-31T09:22:42Z</time>
      </trkpt>
      <trkpt lat="49.69709" lon="0.68332">
        <ele>123</ele>
        <time>2012-05-31T09:22:50Z</time>
      </trkpt>
      <trkpt lat="49.69716" lon="0.68341">
        <ele>123</ele>
        <time>2012-05-31T09:22:59Z</time>
      </trkpt>
      <trkpt lat="49.69725" lon="0.6835">
        <ele>123</ele>
        <time>2012-05-31T09:23:07Z</time>
      </trkpt>
      <trkpt lat="49.69733" lon="0.68357">
        <ele>118</ele>
        <time>2012-05-31T09:23:15Z</time>
      </trkpt>
      <trkpt lat="49.69741" lon="0.68365">
        <ele>118</ele>
        <time>2012-05-31T09:23:23Z</time>
      </trkpt>
      <trkpt lat="49.6975" lon="0.68373">
        <ele>118</ele>
        <time>2012-05-31T09:23:31Z</time>
      </trkpt>
      <trkpt lat="49.69758" lon="0.68381">
        <ele>118</ele>
        <time>2012-05-31T09:23:39Z</time>
      </trkpt>
      <trkpt lat="49.69766" lon="0.68389">
        <ele>118</ele>
        <time>2012-05-31T09:23:47Z</time>
      </trkpt>
      <trkpt lat="49.69774" lon="0.68397">
        <ele>118</ele>
        <time>2012-05-31T09:23:54Z</time>
      </trkpt>
      <trkpt lat="49.69782" lon="0.68404">
        <ele>118</ele>
        <time>2012-05-31T09:24:02Z</time>
      </trkpt>
      <trkpt lat="49.6979" lon="0.68413">
        <ele>118</ele>
        <time>2012-05-31T09:24:09Z</time>
      </trkpt>
      <trkpt lat="49.69799" lon="0.68421">
        <ele>118</ele>
        <time>2012-05-31T09:24:17Z</time>
      </trkpt>
      <trkpt lat="49.69806" lon="0.68429">
        <ele>118</ele>
        <time>2012-05-31T09:24:25Z</time>
      </trkpt>
      <trkpt lat="49.69815" lon="0.68437">
        <ele>118</ele>
        <time>2012-05-31T09:24:33Z</time>
      </trkpt>
      <trkpt lat="49.69823" lon="0.68444">
        <ele>118</ele>
        <time>2012-05-31T09:24:41Z</time>
      </trkpt>
      <trkpt lat="49.69832" lon="0.68451">
        <ele>118</ele>
        <time>2012-05-31T09:24:50Z</time>
      </trkpt>
      <trkpt lat="49.69841" lon="0.68457">
        <ele>112</ele>
        <time>2012-05-31T09:24:58Z</time>
      </trkpt>
      <trkpt lat="49.6985" lon="0.68463">
        <ele>112</ele>
        <time>2012-05-31T09:25:06Z</time>
      </trkpt>
      <trkpt lat="49.69859" lon="0.6847">
        <ele>112</ele>
        <time>2012-05-31T09:25:14Z</time>
      </trkpt>
      <trkpt lat="49.69868" lon="0.68473">
        <ele>112</ele>
        <time>2012-05-31T09:25:22Z</time>
      </trkpt>
      <trkpt lat="49.69878" lon="0.68476">
        <ele>112</ele>
        <time>2012-05-31T09:25:30Z</time>
      </trkpt>
      <trkpt lat="49.69888" lon="0.68479">
        <ele>112</ele>
        <time>2012-05-31T09:25:38Z</time>
      </trkpt>
      <trkpt lat="49.69898" lon="0.6848">
        <ele>112</ele>
        <time>2012-05-31T09:25:46Z</time>
      </trkpt>
      <trkpt lat="49.69908" lon="0.68478">
        <ele>112</ele>
        <time>2012-05-31T09:25:54Z</time>
      </trkpt>
      <trkpt lat="49.69917" lon="0.68475">
        <ele>107</ele>
        <time>2012-05-31T09:26:02Z</time>
      </trkpt>
      <trkpt lat="49.69926" lon="0.68469">
        <ele>107</ele>
        <time>2012-05-31T09:26:22Z</time>
      </trkpt>
      <trkpt lat="49.69926" lon="0.68454">
        <ele>107</ele>
        <time>2012-05-31T09:29:13Z</time>
      </trkpt>
      <trkpt lat="49.6993" lon="0.68441">
        <ele>107</ele>
        <time>2012-05-31T09:29:20Z</time>
      </trkpt>
      <trkpt lat="49.69924" lon="0.68453">
        <ele>107</ele>
        <time>2012-05-31T09:30:49Z</time>
      </trkpt>
      <trkpt lat="49.69933" lon="0.68457">
        <ele>107</ele>
        <time>2012-05-31T09:31:00Z</time>
      </trkpt>
      <trkpt lat="49.69941" lon="0.6845">
        <ele>107</ele>
        <time>2012-05-31T09:31:07Z</time>
      </trkpt>
      <trkpt lat="49.69949" lon="0.68442">
        <ele>107</ele>
        <time>2012-05-31T09:31:15Z</time>
      </trkpt>
      <trkpt lat="49.69955" lon="0.68432">
        <ele>107</ele>
        <time>2012-05-31T09:31:26Z</time>
      </trkpt>
      <trkpt lat="49.69963" lon="0.68425">
        <ele>107</ele>
        <time>2012-05-31T09:32:14Z</time>
      </trkpt>
      <trkpt lat="49.69973" lon="0.68418">
        <ele>107</ele>
        <time>2012-05-31T09:32:33Z</time>
      </trkpt>
      <trkpt lat="49.69982" lon="0.68422">
        <ele>107</ele>
        <time>2012-05-31T09:32:41Z</time>
      </trkpt>
      <trkpt lat="49.69988" lon="0.68434">
        <ele>107</ele>
        <time>2012-05-31T09:32:50Z</time>
      </trkpt>
      <trkpt lat="49.69993" lon="0.68445">
        <ele>99</ele>
        <time>2012-05-31T09:32:59Z</time>
      </trkpt>
      <trkpt lat="49.69999" lon="0.68457">
        <ele>99</ele>
        <time>2012-05-31T09:33:06Z</time>
      </trkpt>
      <trkpt lat="49.70004" lon="0.6847">
        <ele>94</ele>
        <time>2012-05-31T09:33:13Z</time>
      </trkpt>
      <trkpt lat="49.70009" lon="0.68482">
        <ele>94</ele>
        <time>2012-05-31T09:33:22Z</time>
      </trkpt>
      <trkpt lat="49.70012" lon="0.68496">
        <ele>94</ele>
        <time>2012-05-31T09:33:29Z</time>
      </trkpt>
      <trkpt lat="49.70017" lon="0.68509">
        <ele>88</ele>
        <time>2012-05-31T09:33:37Z</time>
      </trkpt>
      <trkpt lat="49.70021" lon="0.68524">
        <ele>88</ele>
        <time>2012-05-31T09:33:45Z</time>
      </trkpt>
      <trkpt lat="49.70024" lon="0.68537">
        <ele>88</ele>
        <time>2012-05-31T09:33:52Z</time>
      </trkpt>
      <trkpt lat="49.70029" lon="0.6855">
        <ele>88</ele>
        <time>2012-05-31T09:33:59Z</time>
      </trkpt>
      <trkpt lat="49.70035" lon="0.6856">
        <ele>80</ele>
        <time>2012-05-31T09:34:08Z</time>
      </trkpt>
      <trkpt lat="49.7004" lon="0.68573">
        <ele>80</ele>
        <time>2012-05-31T09:34:17Z</time>
      </trkpt>
      <trkpt lat="49.70043" lon="0.68588">
        <ele>80</ele>
        <time>2012-05-31T09:34:24Z</time>
      </trkpt>
      <trkpt lat="49.70047" lon="0.68601">
        <ele>87</ele>
        <time>2012-05-31T09:34:33Z</time>
      </trkpt>
      <trkpt lat="49.70056" lon="0.68612">
        <ele>87</ele>
        <time>2012-05-31T09:34:43Z</time>
      </trkpt>
      <trkpt lat="49.70064" lon="0.68621">
        <ele>87</ele>
        <time>2012-05-31T09:34:52Z</time>
      </trkpt>
      <trkpt lat="49.70075" lon="0.68625">
        <ele>87</ele>
        <time>2012-05-31T09:35:00Z</time>
      </trkpt>
      <trkpt lat="49.70084" lon="0.68632">
        <ele>87</ele>
        <time>2012-05-31T09:35:07Z</time>
      </trkpt>
      <trkpt lat="49.70095" lon="0.68639">
        <ele>87</ele>
        <time>2012-05-31T09:35:15Z</time>
      </trkpt>
      <trkpt lat="49.70102" lon="0.68647">
        <ele>82</ele>
        <time>2012-05-31T09:35:22Z</time>
      </trkpt>
      <trkpt lat="49.70109" lon="0.68656">
        <ele>82</ele>
        <time>2012-05-31T09:35:33Z</time>
      </trkpt>
      <trkpt lat="49.70116" lon="0.68666">
        <ele>82</ele>
        <time>2012-05-31T09:35:43Z</time>
      </trkpt>
      <trkpt lat="49.70122" lon="0.68676">
        <ele>82</ele>
        <time>2012-05-31T09:35:48Z</time>
      </trkpt>
      <trkpt lat="49.70129" lon="0.68689">
        <ele>82</ele>
        <time>2012-05-31T09:35:59Z</time>
      </trkpt>
      <trkpt lat="49.70135" lon="0.68699">
        <ele>75</ele>
        <time>2012-05-31T09:36:04Z</time>
      </trkpt>
      <trkpt lat="49.70142" lon="0.68709">
        <ele>75</ele>
        <time>2012-05-31T09:36:11Z</time>
      </trkpt>
      <trkpt lat="49.70149" lon="0.6872">
        <ele>75</ele>
        <time>2012-05-31T09:36:19Z</time>
      </trkpt>
      <trkpt lat="49.70157" lon="0.6873">
        <ele>75</ele>
        <time>2012-05-31T09:36:27Z</time>
      </trkpt>
      <trkpt lat="49.70163" lon="0.68742">
        <ele>75</ele>
        <time>2012-05-31T09:36:37Z</time>
      </trkpt>
      <trkpt lat="49.7017" lon="0.68751">
        <ele>75</ele>
        <time>2012-05-31T09:36:44Z</time>
      </trkpt>
      <trkpt lat="49.70176" lon="0.68761">
        <ele>75</ele>
        <time>2012-05-31T09:36:50Z</time>
      </trkpt>
      <trkpt lat="49.70183" lon="0.6877">
        <ele>75</ele>
        <time>2012-05-31T09:36:57Z</time>
      </trkpt>
      <trkpt lat="49.7019" lon="0.68779">
        <ele>75</ele>
        <time>2012-05-31T09:37:03Z</time>
      </trkpt>
      <trkpt lat="49.70197" lon="0.68788">
        <ele>75</ele>
        <time>2012-05-31T09:37:09Z</time>
      </trkpt>
      <trkpt lat="49.70204" lon="0.68799">
        <ele>75</ele>
        <time>2012-05-31T09:37:17Z</time>
      </trkpt>
      <trkpt lat="49.70211" lon="0.68809">
        <ele>75</ele>
        <time>2012-05-31T09:37:27Z</time>
      </trkpt>
      <trkpt lat="49.70217" lon="0.6882">
        <ele>75</ele>
        <time>2012-05-31T09:37:34Z</time>
      </trkpt>
      <trkpt lat="49.70225" lon="0.68829">
        <ele>75</ele>
        <time>2012-05-31T09:37:42Z</time>
      </trkpt>
      <trkpt lat="49.70233" lon="0.68837">
        <ele>67</ele>
        <time>2012-05-31T09:37:51Z</time>
      </trkpt>
      <trkpt lat="49.70241" lon="0.68846">
        <ele>67</ele>
        <time>2012-05-31T09:37:57Z</time>
      </trkpt>
      <trkpt lat="49.70247" lon="0.68857">
        <ele>62</ele>
        <time>2012-05-31T09:38:04Z</time>
      </trkpt>
      <trkpt lat="49.70256" lon="0.68865">
        <ele>62</ele>
        <time>2012-05-31T09:38:11Z</time>
      </trkpt>
      <trkpt lat="49.70265" lon="0.68859">
        <ele>62</ele>
        <time>2012-05-31T09:38:22Z</time>
      </trkpt>
      <trkpt lat="49.70274" lon="0.68852">
        <ele>62</ele>
        <time>2012-05-31T09:38:31Z</time>
      </trkpt>
      <trkpt lat="49.70283" lon="0.6885">
        <ele>62</ele>
        <time>2012-05-31T09:38:40Z</time>
      </trkpt>
      <trkpt lat="49.70291" lon="0.68842">
        <ele>62</ele>
        <time>2012-05-31T09:38:49Z</time>
      </trkpt>
      <trkpt lat="49.70298" lon="0.68832">
        <ele>62</ele>
        <time>2012-05-31T09:38:58Z</time>
      </trkpt>
      <trkpt lat="49.70305" lon="0.68822">
        <ele>62</ele>
        <time>2012-05-31T09:39:03Z</time>
      </trkpt>
      <trkpt lat="49.70315" lon="0.68817">
        <ele>62</ele>
        <time>2012-05-31T09:39:10Z</time>
      </trkpt>
      <trkpt lat="49.70324" lon="0.68811">
        <ele>68</ele>
        <time>2012-05-31T09:39:18Z</time>
      </trkpt>
      <trkpt lat="49.70333" lon="0.68807">
        <ele>68</ele>
        <time>2012-05-31T09:39:26Z</time>
      </trkpt>
      <trkpt lat="49.70342" lon="0.68803">
        <ele>68</ele>
        <time>2012-05-31T09:39:40Z</time>
      </trkpt>
      <trkpt lat="49.7035" lon="0.68796">
        <ele>68</ele>
        <time>2012-05-31T09:39:52Z</time>
      </trkpt>
      <trkpt lat="49.7036" lon="0.68793">
        <ele>68</ele>
        <time>2012-05-31T09:39:59Z</time>
      </trkpt>
      <trkpt lat="49.70368" lon="0.68789">
        <ele>68</ele>
        <time>2012-05-31T09:40:06Z</time>
      </trkpt>
      <trkpt lat="49.70377" lon="0.68783">
        <ele>68</ele>
        <time>2012-05-31T09:40:16Z</time>
      </trkpt>
      <trkpt lat="49.70387" lon="0.68781">
        <ele>68</ele>
        <time>2012-05-31T09:40:24Z</time>
      </trkpt>
      <trkpt lat="49.70397" lon="0.68779">
        <ele>68</ele>
        <time>2012-05-31T09:40:32Z</time>
      </trkpt>
      <trkpt lat="49.70406" lon="0.68778">
        <ele>68</ele>
        <time>2012-05-31T09:40:38Z</time>
      </trkpt>
      <trkpt lat="49.70416" lon="0.68777">
        <ele>74</ele>
        <time>2012-05-31T09:40:46Z</time>
      </trkpt>
      <trkpt lat="49.70425" lon="0.68777">
        <ele>81</ele>
        <time>2012-05-31T09:40:56Z</time>
      </trkpt>
      <trkpt lat="49.70435" lon="0.68779">
        <ele>81</ele>
        <time>2012-05-31T09:41:02Z</time>
      </trkpt>
      <trkpt lat="49.70444" lon="0.68778">
        <ele>86</ele>
        <time>2012-05-31T09:41:10Z</time>
      </trkpt>
      <trkpt lat="49.70455" lon="0.68777">
        <ele>86</ele>
        <time>2012-05-31T09:41:19Z</time>
      </trkpt>
      <trkpt lat="49.70464" lon="0.68777">
        <ele>80</ele>
        <time>2012-05-31T09:41:29Z</time>
      </trkpt>
      <trkpt lat="49.70472" lon="0.68783">
        <ele>80</ele>
        <time>2012-05-31T09:41:34Z</time>
      </trkpt>
      <trkpt lat="49.7048" lon="0.68789">
        <ele>74</ele>
        <time>2012-05-31T09:41:42Z</time>
      </trkpt>
      <trkpt lat="49.70487" lon="0.68798">
        <ele>74</ele>
        <time>2012-05-31T09:41:56Z</time>
      </trkpt>
      <trkpt lat="49.70483" lon="0.68786">
        <ele>74</ele>
        <time>2012-05-31T09:42:12Z</time>
      </trkpt>
      <trkpt lat="49.70476" lon="0.68776">
        <ele>74</ele>
        <time>2012-05-31T09:42:40Z</time>
      </trkpt>
      <trkpt lat="49.70483" lon="0.68786">
        <ele>74</ele>
        <time>2012-05-31T09:43:06Z</time>
      </trkpt>
      <trkpt lat="49.70488" lon="0.68775">
        <ele>59</ele>
        <time>2012-05-31T09:44:18Z</time>
      </trkpt>
      <trkpt lat="49.70497" lon="0.6877">
        <ele>72</ele>
        <time>2012-05-31T09:44:42Z</time>
      </trkpt>
      <trkpt lat="49.70506" lon="0.68765">
        <ele>72</ele>
        <time>2012-05-31T09:44:49Z</time>
      </trkpt>
      <trkpt lat="49.70516" lon="0.68761">
        <ele>72</ele>
        <time>2012-05-31T09:44:56Z</time>
      </trkpt>
      <trkpt lat="49.70522" lon="0.68749">
        <ele>72</ele>
        <time>2012-05-31T09:45:03Z</time>
      </trkpt>
      <trkpt lat="49.7053" lon="0.6874">
        <ele>64</ele>
        <time>2012-05-31T09:45:11Z</time>
      </trkpt>
      <trkpt lat="49.7054" lon="0.68738">
        <ele>64</ele>
        <time>2012-05-31T09:45:19Z</time>
      </trkpt>
      <trkpt lat="49.70548" lon="0.68745">
        <ele>64</ele>
        <time>2012-05-31T09:45:25Z</time>
      </trkpt>
      <trkpt lat="49.70558" lon="0.68748">
        <ele>73</ele>
        <time>2012-05-31T09:45:35Z</time>
      </trkpt>
      <trkpt lat="49.70563" lon="0.68762">
        <ele>73</ele>
        <time>2012-05-31T09:45:42Z</time>
      </trkpt>
      <trkpt lat="49.70566" lon="0.68777">
        <ele>80</ele>
        <time>2012-05-31T09:45:48Z</time>
      </trkpt>
      <trkpt lat="49.70573" lon="0.68787">
        <ele>75</ele>
        <time>2012-05-31T09:45:58Z</time>
      </trkpt>
      <trkpt lat="49.7058" lon="0.68795">
        <ele>82</ele>
        <time>2012-05-31T09:46:07Z</time>
      </trkpt>
      <trkpt lat="49.70589" lon="0.68789">
        <ele>82</ele>
        <time>2012-05-31T09:46:15Z</time>
      </trkpt>
      <trkpt lat="49.70595" lon="0.68779">
        <ele>82</ele>
        <time>2012-05-31T09:46:23Z</time>
      </trkpt>
      <trkpt lat="49.70598" lon="0.68765">
        <ele>82</ele>
        <time>2012-05-31T09:46:30Z</time>
      </trkpt>
      <trkpt lat="49.70606" lon="0.68759">
        <ele>82</ele>
        <time>2012-05-31T09:46:36Z</time>
      </trkpt>
      <trkpt lat="49.70614" lon="0.68751">
        <ele>82</ele>
        <time>2012-05-31T09:46:46Z</time>
      </trkpt>
      <trkpt lat="49.70622" lon="0.68744">
        <ele>82</ele>
        <time>2012-05-31T09:46:56Z</time>
      </trkpt>
      <trkpt lat="49.7063" lon="0.68732">
        <ele>82</ele>
        <time>2012-05-31T09:47:05Z</time>
      </trkpt>
      <trkpt lat="49.70639" lon="0.6873">
        <ele>82</ele>
        <time>2012-05-31T09:47:11Z</time>
      </trkpt>
      <trkpt lat="49.70649" lon="0.6873">
        <ele>90</ele>
        <time>2012-05-31T09:47:18Z</time>
      </trkpt>
      <trkpt lat="49.70657" lon="0.68718">
        <ele>90</ele>
        <time>2012-05-31T09:47:27Z</time>
      </trkpt>
      <trkpt lat="49.70665" lon="0.68709">
        <ele>82</ele>
        <time>2012-05-31T09:47:33Z</time>
      </trkpt>
      <trkpt lat="49.70673" lon="0.68699">
        <ele>74</ele>
        <time>2012-05-31T09:47:45Z</time>
      </trkpt>
      <trkpt lat="49.70682" lon="0.68695">
        <ele>74</ele>
        <time>2012-05-31T09:47:51Z</time>
      </trkpt>
      <trkpt lat="49.70692" lon="0.68692">
        <ele>74</ele>
        <time>2012-05-31T09:47:59Z</time>
      </trkpt>
      <trkpt lat="49.70703" lon="0.6869">
        <ele>79</ele>
        <time>2012-05-31T09:48:07Z</time>
      </trkpt>
      <trkpt lat="49.70713" lon="0.68686">
        <ele>79</ele>
        <time>2012-05-31T09:48:14Z</time>
      </trkpt>
      <trkpt lat="49.70721" lon="0.68681">
        <ele>79</ele>
        <time>2012-05-31T09:48:24Z</time>
      </trkpt>
      <trkpt lat="49.70731" lon="0.68679">
        <ele>79</ele>
        <time>2012-05-31T09:48:31Z</time>
      </trkpt>
      <trkpt lat="49.7074" lon="0.68673">
        <ele>79</ele>
        <time>2012-05-31T09:48:39Z</time>
      </trkpt>
      <trkpt lat="49.70749" lon="0.68666">
        <ele>79</ele>
        <time>2012-05-31T09:48:48Z</time>
      </trkpt>
      <trkpt lat="49.70758" lon="0.6866">
        <ele>79</ele>
        <time>2012-05-31T09:48:58Z</time>
      </trkpt>
      <trkpt lat="49.70767" lon="0.6866">
        <ele>79</ele>
        <time>2012-05-31T09:49:05Z</time>
      </trkpt>
      <trkpt lat="49.70777" lon="0.68654">
        <ele>79</ele>
        <time>2012-05-31T09:49:13Z</time>
      </trkpt>
      <trkpt lat="49.70786" lon="0.68649">
        <ele>79</ele>
        <time>2012-05-31T09:49:24Z</time>
      </trkpt>
      <trkpt lat="49.70794" lon="0.68644">
        <ele>85</ele>
        <time>2012-05-31T09:49:31Z</time>
      </trkpt>
      <trkpt lat="49.70804" lon="0.68641">
        <ele>94</ele>
        <time>2012-05-31T09:49:40Z</time>
      </trkpt>
      <trkpt lat="49.70812" lon="0.68632">
        <ele>94</ele>
        <time>2012-05-31T09:49:45Z</time>
      </trkpt>
      <trkpt lat="49.70822" lon="0.68628">
        <ele>94</ele>
        <time>2012-05-31T09:49:50Z</time>
      </trkpt>
      <trkpt lat="49.70829" lon="0.68617">
        <ele>83</ele>
        <time>2012-05-31T09:49:59Z</time>
      </trkpt>
      <trkpt lat="49.70836" lon="0.68607">
        <ele>73</ele>
        <time>2012-05-31T09:50:09Z</time>
      </trkpt>
      <trkpt lat="49.70846" lon="0.68606">
        <ele>65</ele>
        <time>2012-05-31T09:50:23Z</time>
      </trkpt>
      <trkpt lat="49.70853" lon="0.68598">
        <ele>65</ele>
        <time>2012-05-31T09:50:34Z</time>
      </trkpt>
      <trkpt lat="49.7086" lon="0.68589">
        <ele>65</ele>
        <time>2012-05-31T09:50:48Z</time>
      </trkpt>
      <trkpt lat="49.70865" lon="0.68576">
        <ele>65</ele>
        <time>2012-05-31T09:50:55Z</time>
      </trkpt>
      <trkpt lat="49.70869" lon="0.68563">
        <ele>57</ele>
        <time>2012-05-31T09:51:02Z</time>
      </trkpt>
      <trkpt lat="49.70876" lon="0.68553">
        <ele>57</ele>
        <time>2012-05-31T09:51:10Z</time>
      </trkpt>
      <trkpt lat="49.70882" lon="0.68543">
        <ele>57</ele>
        <time>2012-05-31T09:51:17Z</time>
      </trkpt>
      <trkpt lat="49.70887" lon="0.68532">
        <ele>57</ele>
        <time>2012-05-31T09:51:24Z</time>
      </trkpt>
      <trkpt lat="49.70894" lon="0.68522">
        <ele>57</ele>
        <time>2012-05-31T09:51:33Z</time>
      </trkpt>
      <trkpt lat="49.70902" lon="0.68512">
        <ele>57</ele>
        <time>2012-05-31T09:52:00Z</time>
      </trkpt>
      <trkpt lat="49.7091" lon="0.68501">
        <ele>57</ele>
        <time>2012-05-31T09:52:07Z</time>
      </trkpt>
      <trkpt lat="49.70916" lon="0.68491">
        <ele>57</ele>
        <time>2012-05-31T09:52:14Z</time>
      </trkpt>
      <trkpt lat="49.70923" lon="0.6848">
        <ele>57</ele>
        <time>2012-05-31T09:52:22Z</time>
      </trkpt>
      <trkpt lat="49.70928" lon="0.68468">
        <ele>57</ele>
        <time>2012-05-31T09:52:29Z</time>
      </trkpt>
      <trkpt lat="49.70931" lon="0.68453">
        <ele>57</ele>
        <time>2012-05-31T09:52:37Z</time>
      </trkpt>
      <trkpt lat="49.70937" lon="0.68442">
        <ele>57</ele>
        <time>2012-05-31T09:52:44Z</time>
      </trkpt>
      <trkpt lat="49.70942" lon="0.68429">
        <ele>57</ele>
        <time>2012-05-31T09:52:52Z</time>
      </trkpt>
      <trkpt lat="49.70947" lon="0.68418">
        <ele>57</ele>
        <time>2012-05-31T09:53:00Z</time>
      </trkpt>
      <trkpt lat="49.70953" lon="0.68407">
        <ele>57</ele>
        <time>2012-05-31T09:53:08Z</time>
      </trkpt>
      <trkpt lat="49.70959" lon="0.68396">
        <ele>57</ele>
        <time>2012-05-31T09:53:19Z</time>
      </trkpt>
      <trkpt lat="49.70963" lon="0.68383">
        <ele>57</ele>
        <time>2012-05-31T09:53:26Z</time>
      </trkpt>
      <trkpt lat="49.70973" lon="0.68374">
        <ele>57</ele>
        <time>2012-05-31T09:53:35Z</time>
      </trkpt>
      <trkpt lat="49.7098" lon="0.68363">
        <ele>62</ele>
        <time>2012-05-31T09:53:42Z</time>
      </trkpt>
      <trkpt lat="49.70982" lon="0.68348">
        <ele>62</ele>
        <time>2012-05-31T09:53:50Z</time>
      </trkpt>
      <trkpt lat="49.70982" lon="0.68334">
        <ele>62</ele>
        <time>2012-05-31T09:53:59Z</time>
      </trkpt>
      <trkpt lat="49.70986" lon="0.68319">
        <ele>49</ele>
        <time>2012-05-31T09:54:07Z</time>
      </trkpt>
      <trkpt lat="49.70992" lon="0.68307">
        <ele>49</ele>
        <time>2012-05-31T09:54:13Z</time>
      </trkpt>
      <trkpt lat="49.70999" lon="0.68294">
        <ele>55</ele>
        <time>2012-05-31T09:54:22Z</time>
      </trkpt>
      <trkpt lat="49.71004" lon="0.68278">
        <ele>55</ele>
        <time>2012-05-31T09:54:32Z</time>
      </trkpt>
      <trkpt lat="49.71013" lon="0.68271">
        <ele>55</ele>
        <time>2012-05-31T09:54:37Z</time>
      </trkpt>
      <trkpt lat="49.7102" lon="0.68262">
        <ele>61</ele>
        <time>2012-05-31T09:54:45Z</time>
      </trkpt>
      <trkpt lat="49.71027" lon="0.68253">
        <ele>61</ele>
        <time>2012-05-31T09:54:54Z</time>
      </trkpt>
      <trkpt lat="49.71034" lon="0.68242">
        <ele>61</ele>
        <time>2012-05-31T09:55:03Z</time>
      </trkpt>
      <trkpt lat="49.71039" lon="0.68229">
        <ele>61</ele>
        <time>2012-05-31T09:55:11Z</time>
      </trkpt>
      <trkpt lat="49.71047" lon="0.68221">
        <ele>61</ele>
        <time>2012-05-31T09:55:18Z</time>
      </trkpt>
      <trkpt lat="49.71056" lon="0.68215">
        <ele>61</ele>
        <time>2012-05-31T09:55:25Z</time>
      </trkpt>
      <trkpt lat="49.71064" lon="0.68207">
        <ele>56</ele>
        <time>2012-05-31T09:55:33Z</time>
      </trkpt>
      <trkpt lat="49.71073" lon="0.68202">
        <ele>56</ele>
        <time>2012-05-31T09:55:38Z</time>
      </trkpt>
      <trkpt lat="49.71076" lon="0.68188">
        <ele>63</ele>
        <time>2012-05-31T09:55:47Z</time>
      </trkpt>
      <trkpt lat="49.71074" lon="0.68172">
        <ele>63</ele>
        <time>2012-05-31T09:55:54Z</time>
      </trkpt>
      <trkpt lat="49.71072" lon="0.68158">
        <ele>63</ele>
        <time>2012-05-31T09:56:02Z</time>
      </trkpt>
      <trkpt lat="49.71069" lon="0.68144">
        <ele>63</ele>
        <time>2012-05-31T09:56:09Z</time>
      </trkpt>
      <trkpt lat="49.71068" lon="0.68129">
        <ele>63</ele>
        <time>2012-05-31T09:56:17Z</time>
      </trkpt>
      <trkpt lat="49.71067" lon="0.68115">
        <ele>63</ele>
        <time>2012-05-31T09:56:24Z</time>
      </trkpt>
      <trkpt lat="49.71068" lon="0.681">
        <ele>63</ele>
        <time>2012-05-31T09:56:31Z</time>
      </trkpt>
      <trkpt lat="49.71069" lon="0.68086">
        <ele>63</ele>
        <time>2012-05-31T09:56:40Z</time>
      </trkpt>
      <trkpt lat="49.71073" lon="0.68073">
        <ele>63</ele>
        <time>2012-05-31T09:56:48Z</time>
      </trkpt>
      <trkpt lat="49.71077" lon="0.6806">
        <ele>63</ele>
        <time>2012-05-31T09:56:56Z</time>
      </trkpt>
      <trkpt lat="49.71083" lon="0.68048">
        <ele>63</ele>
        <time>2012-05-31T09:57:03Z</time>
      </trkpt>
      <trkpt lat="49.7109" lon="0.68032">
        <ele>63</ele>
        <time>2012-05-31T09:57:10Z</time>
      </trkpt>
      <trkpt lat="49.71097" lon="0.68021">
        <ele>63</ele>
        <time>2012-05-31T09:57:18Z</time>
      </trkpt>
      <trkpt lat="49.71108" lon="0.68014">
        <ele>63</ele>
        <time>2012-05-31T09:57:27Z</time>
      </trkpt>
      <trkpt lat="49.71115" lon="0.68004">
        <ele>56</ele>
        <time>2012-05-31T09:57:36Z</time>
      </trkpt>
      <trkpt lat="49.71125" lon="0.68001">
        <ele>56</ele>
        <time>2012-05-31T09:57:43Z</time>
      </trkpt>
      <trkpt lat="49.71131" lon="0.67989">
        <ele>56</ele>
        <time>2012-05-31T09:57:50Z</time>
      </trkpt>
      <trkpt lat="49.71136" lon="0.67976">
        <ele>50</ele>
        <time>2012-05-31T09:57:58Z</time>
      </trkpt>
      <trkpt lat="49.71141" lon="0.67964">
        <ele>50</ele>
        <time>2012-05-31T09:58:06Z</time>
      </trkpt>
      <trkpt lat="49.71153" lon="0.67964">
        <ele>55</ele>
        <time>2012-05-31T09:58:20Z</time>
      </trkpt>
      <trkpt lat="49.71161" lon="0.67956">
        <ele>55</ele>
        <time>2012-05-31T09:58:27Z</time>
      </trkpt>
      <trkpt lat="49.7117" lon="0.6795">
        <ele>55</ele>
        <time>2012-05-31T09:58:32Z</time>
      </trkpt>
      <trkpt lat="49.71179" lon="0.67943">
        <ele>55</ele>
        <time>2012-05-31T09:58:40Z</time>
      </trkpt>
      <trkpt lat="49.71188" lon="0.67941">
        <ele>55</ele>
        <time>2012-05-31T09:58:50Z</time>
      </trkpt>
      <trkpt lat="49.71196" lon="0.67932">
        <ele>55</ele>
        <time>2012-05-31T09:58:57Z</time>
      </trkpt>
      <trkpt lat="49.71207" lon="0.67933">
        <ele>55</ele>
        <time>2012-05-31T09:59:08Z</time>
      </trkpt>
      <trkpt lat="49.71215" lon="0.67924">
        <ele>55</ele>
        <time>2012-05-31T09:59:12Z</time>
      </trkpt>
      <trkpt lat="49.71222" lon="0.67914">
        <ele>55</ele>
        <time>2012-05-31T09:59:19Z</time>
      </trkpt>
      <trkpt lat="49.71231" lon="0.67908">
        <ele>48</ele>
        <time>2012-05-31T09:59:27Z</time>
      </trkpt>
      <trkpt lat="49.71239" lon="0.679">
        <ele>48</ele>
        <time>2012-05-31T09:59:34Z</time>
      </trkpt>
      <trkpt lat="49.71249" lon="0.67896">
        <ele>48</ele>
        <time>2012-05-31T09:59:43Z</time>
      </trkpt>
      <trkpt lat="49.71258" lon="0.67887">
        <ele>43</ele>
        <time>2012-05-31T09:59:52Z</time>
      </trkpt>
      <trkpt lat="49.71265" lon="0.67877">
        <ele>43</ele>
        <time>2012-05-31T09:59:57Z</time>
      </trkpt>
      <trkpt lat="49.71274" lon="0.67871">
        <ele>43</ele>
        <time>2012-05-31T10:00:05Z</time>
      </trkpt>
      <trkpt lat="49.71284" lon="0.67868">
        <ele>43</ele>
        <time>2012-05-31T10:00:11Z</time>
      </trkpt>
      <trkpt lat="49.71292" lon="0.6786">
        <ele>43</ele>
        <time>2012-05-31T10:00:20Z</time>
      </trkpt>
      <trkpt lat="49.71301" lon="0.67856">
        <ele>43</ele>
        <time>2012-05-31T10:00:28Z</time>
      </trkpt>
      <trkpt lat="49.71311" lon="0.67854">
        <ele>43</ele>
        <time>2012-05-31T10:00:37Z</time>
      </trkpt>
      <trkpt lat="49.71321" lon="0.67848">
        <ele>43</ele>
        <time>2012-05-31T10:00:44Z</time>
      </trkpt>
      <trkpt lat="49.71331" lon="0.67838">
        <ele>43</ele>
        <time>2012-05-31T10:00:54Z</time>
      </trkpt>
      <trkpt lat="49.71341" lon="0.67834">
        <ele>35</ele>
        <time>2012-05-31T10:01:14Z</time>
      </trkpt>
      <trkpt lat="49.7135" lon="0.67843">
        <ele>46</ele>
        <time>2012-05-31T10:01:21Z</time>
      </trkpt>
      <trkpt lat="49.71358" lon="0.67849">
        <ele>54</ele>
        <time>2012-05-31T10:01:27Z</time>
      </trkpt>
      <trkpt lat="49.71368" lon="0.67849">
        <ele>54</ele>
        <time>2012-05-31T10:01:35Z</time>
      </trkpt>
      <trkpt lat="49.71378" lon="0.67847">
        <ele>54</ele>
        <time>2012-05-31T10:01:43Z</time>
      </trkpt>
      <trkpt lat="49.71387" lon="0.67851">
        <ele>54</ele>
        <time>2012-05-31T10:01:49Z</time>
      </trkpt>
      <trkpt lat="49.71397" lon="0.67852">
        <ele>54</ele>
        <time>2012-05-31T10:01:59Z</time>
      </trkpt>
      <trkpt lat="49.71407" lon="0.67853">
        <ele>54</ele>
        <time>2012-05-31T10:02:07Z</time>
      </trkpt>
      <trkpt lat="49.71416" lon="0.67857">
        <ele>54</ele>
        <time>2012-05-31T10:02:15Z</time>
      </trkpt>
      <trkpt lat="49.71426" lon="0.67861">
        <ele>54</ele>
        <time>2012-05-31T10:02:23Z</time>
      </trkpt>
      <trkpt lat="49.71434" lon="0.67865">
        <ele>54</ele>
        <time>2012-05-31T10:02:29Z</time>
      </trkpt>
      <trkpt lat="49.71444" lon="0.6787">
        <ele>54</ele>
        <time>2012-05-31T10:02:36Z</time>
      </trkpt>
      <trkpt lat="49.71453" lon="0.6787">
        <ele>54</ele>
        <time>2012-05-31T10:02:44Z</time>
      </trkpt>
      <trkpt lat="49.71463" lon="0.67872">
        <ele>64</ele>
        <time>2012-05-31T10:02:52Z</time>
      </trkpt>
      <trkpt lat="49.71472" lon="0.67872">
        <ele>64</ele>
        <time>2012-05-31T10:02:59Z</time>
      </trkpt>
      <trkpt lat="49.71482" lon="0.67871">
        <ele>56</ele>
        <time>2012-05-31T10:03:05Z</time>
      </trkpt>
      <trkpt lat="49.71491" lon="0.6787">
        <ele>56</ele>
        <time>2012-05-31T10:03:12Z</time>
      </trkpt>
      <trkpt lat="49.715" lon="0.67867">
        <ele>56</ele>
        <time>2012-05-31T10:03:20Z</time>
      </trkpt>
      <trkpt lat="49.7151" lon="0.67864">
        <ele>56</ele>
        <time>2012-05-31T10:03:28Z</time>
      </trkpt>
      <trkpt lat="49.7152" lon="0.67863">
        <ele>46</ele>
        <time>2012-05-31T10:03:35Z</time>
      </trkpt>
      <trkpt lat="49.71529" lon="0.67861">
        <ele>46</ele>
        <time>2012-05-31T10:03:45Z</time>
      </trkpt>
      <trkpt lat="49.71538" lon="0.67859">
        <ele>54</ele>
        <time>2012-05-31T10:03:52Z</time>
      </trkpt>
      <trkpt lat="49.71547" lon="0.67858">
        <ele>60</ele>
        <time>2012-05-31T10:03:59Z</time>
      </trkpt>
      <trkpt lat="49.71557" lon="0.67859">
        <ele>60</ele>
        <time>2012-05-31T10:04:08Z</time>
      </trkpt>
      <trkpt lat="49.71567" lon="0.67861">
        <ele>51</ele>
        <time>2012-05-31T10:04:16Z</time>
      </trkpt>
      <trkpt lat="49.71577" lon="0.67858">
        <ele>58</ele>
        <time>2012-05-31T10:04:24Z</time>
      </trkpt>
      <trkpt lat="49.71586" lon="0.67856">
        <ele>58</ele>
        <time>2012-05-31T10:04:32Z</time>
      </trkpt>
      <trkpt lat="49.71596" lon="0.67853">
        <ele>63</ele>
        <time>2012-05-31T10:04:40Z</time>
      </trkpt>
      <trkpt lat="49.71605" lon="0.6785">
        <ele>63</ele>
        <time>2012-05-31T10:04:50Z</time>
      </trkpt>
      <trkpt lat="49.71614" lon="0.67849">
        <ele>63</ele>
        <time>2012-05-31T10:04:57Z</time>
      </trkpt>
      <trkpt lat="49.71621" lon="0.6784">
        <ele>63</ele>
        <time>2012-05-31T10:05:04Z</time>
      </trkpt>
      <trkpt lat="49.71631" lon="0.67836">
        <ele>63</ele>
        <time>2012-05-31T10:05:12Z</time>
      </trkpt>
      <trkpt lat="49.71641" lon="0.67833">
        <ele>63</ele>
        <time>2012-05-31T10:05:19Z</time>
      </trkpt>
      <trkpt lat="49.71649" lon="0.67826">
        <ele>54</ele>
        <time>2012-05-31T10:05:30Z</time>
      </trkpt>
      <trkpt lat="49.71658" lon="0.67819">
        <ele>60</ele>
        <time>2012-05-31T10:05:39Z</time>
      </trkpt>
      <trkpt lat="49.71666" lon="0.67813">
        <ele>60</ele>
        <time>2012-05-31T10:05:46Z</time>
      </trkpt>
      <trkpt lat="49.71674" lon="0.67805">
        <ele>60</ele>
        <time>2012-05-31T10:05:53Z</time>
      </trkpt>
      <trkpt lat="49.7168" lon="0.67795">
        <ele>60</ele>
        <time>2012-05-31T10:06:00Z</time>
      </trkpt>
      <trkpt lat="49.71684" lon="0.67782">
        <ele>60</ele>
        <time>2012-05-31T10:06:27Z</time>
      </trkpt>
      <trkpt lat="49.71693" lon="0.67776">
        <ele>60</ele>
        <time>2012-05-31T10:06:40Z</time>
      </trkpt>
      <trkpt lat="49.71698" lon="0.67764">
        <ele>60</ele>
        <time>2012-05-31T10:07:26Z</time>
      </trkpt>
      <trkpt lat="49.71704" lon="0.67753">
        <ele>60</ele>
        <time>2012-05-31T10:07:34Z</time>
      </trkpt>
      <trkpt lat="49.71711" lon="0.67743">
        <ele>54</ele>
        <time>2012-05-31T10:07:43Z</time>
      </trkpt>
      <trkpt lat="49.7172" lon="0.67741">
        <ele>54</ele>
        <time>2012-05-31T10:07:55Z</time>
      </trkpt>
      <trkpt lat="49.71729" lon="0.67734">
        <ele>54</ele>
        <time>2012-05-31T10:08:04Z</time>
      </trkpt>
      <trkpt lat="49.71737" lon="0.67728">
        <ele>54</ele>
        <time>2012-05-31T10:08:12Z</time>
      </trkpt>
      <trkpt lat="49.71745" lon="0.67721">
        <ele>54</ele>
        <time>2012-05-31T10:08:20Z</time>
      </trkpt>
      <trkpt lat="49.71754" lon="0.67716">
        <ele>54</ele>
        <time>2012-05-31T10:08:29Z</time>
      </trkpt>
      <trkpt lat="49.71762" lon="0.67708">
        <ele>54</ele>
        <time>2012-05-31T10:08:39Z</time>
      </trkpt>
      <trkpt lat="49.7177" lon="0.677">
        <ele>54</ele>
        <time>2012-05-31T10:08:46Z</time>
      </trkpt>
      <trkpt lat="49.71778" lon="0.67691">
        <ele>54</ele>
        <time>2012-05-31T10:08:54Z</time>
      </trkpt>
      <trkpt lat="49.71786" lon="0.67684">
        <ele>54</ele>
        <time>2012-05-31T10:09:20Z</time>
      </trkpt>
      <trkpt lat="49.71792" lon="0.67672">
        <ele>54</ele>
        <time>2012-05-31T10:09:57Z</time>
      </trkpt>
      <trkpt lat="49.71799" lon="0.67663">
        <ele>54</ele>
        <time>2012-05-31T10:10:30Z</time>
      </trkpt>
      <trkpt lat="49.71799" lon="0.67649">
        <ele>54</ele>
        <time>2012-05-31T10:11:25Z</time>
      </trkpt>
      <trkpt lat="49.71805" lon="0.67638">
        <ele>54</ele>
        <time>2012-05-31T10:11:36Z</time>
      </trkpt>
      <trkpt lat="49.7181" lon="0.67624">
        <ele>54</ele>
        <time>2012-05-31T10:11:45Z</time>
      </trkpt>
      <trkpt lat="49.71817" lon="0.67613">
        <ele>54</ele>
        <time>2012-05-31T10:11:54Z</time>
      </trkpt>
      <trkpt lat="49.71823" lon="0.67601">
        <ele>54</ele>
        <time>2012-05-31T10:12:02Z</time>
      </trkpt>
      <trkpt lat="49.71829" lon="0.67591">
        <ele>54</ele>
        <time>2012-05-31T10:12:11Z</time>
      </trkpt>
      <trkpt lat="49.71835" lon="0.67579">
        <ele>54</ele>
        <time>2012-05-31T10:13:10Z</time>
      </trkpt>
      <trkpt lat="49.71839" lon="0.67565">
        <ele>54</ele>
        <time>2012-05-31T10:13:18Z</time>
      </trkpt>
      <trkpt lat="49.71845" lon="0.67552">
        <ele>54</ele>
        <time>2012-05-31T10:13:26Z</time>
      </trkpt>
      <trkpt lat="49.7185" lon="0.67539">
        <ele>54</ele>
        <time>2012-05-31T10:13:33Z</time>
      </trkpt>
      <trkpt lat="49.71853" lon="0.67525">
        <ele>54</ele>
        <time>2012-05-31T10:13:41Z</time>
      </trkpt>
      <trkpt lat="49.7186" lon="0.67513">
        <ele>54</ele>
        <time>2012-05-31T10:13:48Z</time>
      </trkpt>
      <trkpt lat="49.71868" lon="0.67502">
        <ele>54</ele>
        <time>2012-05-31T10:13:55Z</time>
      </trkpt>
      <trkpt lat="49.71871" lon="0.67488">
        <ele>54</ele>
        <time>2012-05-31T10:14:03Z</time>
      </trkpt>
      <trkpt lat="49.71877" lon="0.67475">
        <ele>54</ele>
        <time>2012-05-31T10:14:12Z</time>
      </trkpt>
      <trkpt lat="49.71881" lon="0.67463">
        <ele>54</ele>
        <time>2012-05-31T10:14:21Z</time>
      </trkpt>
      <trkpt lat="49.71886" lon="0.67451">
        <ele>54</ele>
        <time>2012-05-31T10:14:28Z</time>
      </trkpt>
      <trkpt lat="49.71892" lon="0.67439">
        <ele>54</ele>
        <time>2012-05-31T10:14:36Z</time>
      </trkpt>
      <trkpt lat="49.71898" lon="0.67426">
        <ele>54</ele>
        <time>2012-05-31T10:15:32Z</time>
      </trkpt>
      <trkpt lat="49.71904" lon="0.67415">
        <ele>54</ele>
        <time>2012-05-31T10:15:39Z</time>
      </trkpt>
      <trkpt lat="49.71912" lon="0.67408">
        <ele>54</ele>
        <time>2012-05-31T10:15:54Z</time>
      </trkpt>
      <trkpt lat="49.71918" lon="0.67397">
        <ele>54</ele>
        <time>2012-05-31T10:16:17Z</time>
      </trkpt>
      <trkpt lat="49.71926" lon="0.67389">
        <ele>54</ele>
        <time>2012-05-31T10:16:26Z</time>
      </trkpt>
      <trkpt lat="49.71934" lon="0.6738">
        <ele>54</ele>
        <time>2012-05-31T10:16:35Z</time>
      </trkpt>
      <trkpt lat="49.71941" lon="0.67369">
        <ele>54</ele>
        <time>2012-05-31T10:16:43Z</time>
      </trkpt>
      <trkpt lat="49.71948" lon="0.6736">
        <ele>54</ele>
        <time>2012-05-31T10:16:51Z</time>
      </trkpt>
      <trkpt lat="49.71955" lon="0.6735">
        <ele>54</ele>
        <time>2012-05-31T10:16:59Z</time>
      </trkpt>
      <trkpt lat="49.71962" lon="0.6734">
        <ele>54</ele>
        <time>2012-05-31T10:17:08Z</time>
      </trkpt>
      <trkpt lat="49.71969" lon="0.67331">
        <ele>54</ele>
        <time>2012-05-31T10:17:16Z</time>
      </trkpt>
      <trkpt lat="49.71977" lon="0.67322">
        <ele>54</ele>
        <time>2012-05-31T10:17:24Z</time>
      </trkpt>
      <trkpt lat="49.71983" lon="0.67311">
        <ele>54</ele>
        <time>2012-05-31T10:17:31Z</time>
      </trkpt>
      <trkpt lat="49.7199" lon="0.67301">
        <ele>54</ele>
        <time>2012-05-31T10:17:39Z</time>
      </trkpt>
      <trkpt lat="49.71995" lon="0.67288">
        <ele>54</ele>
        <time>2012-05-31T10:17:55Z</time>
      </trkpt>
      <trkpt lat="49.72002" lon="0.6728">
        <ele>54</ele>
        <time>2012-05-31T10:18:03Z</time>
      </trkpt>
      <trkpt lat="49.72011" lon="0.6727">
        <ele>54</ele>
        <time>2012-05-31T10:18:12Z</time>
      </trkpt>
      <trkpt lat="49.7202" lon="0.67264">
        <ele>54</ele>
        <time>2012-05-31T10:18:29Z</time>
      </trkpt>
      <trkpt lat="49.72027" lon="0.67255">
        <ele>54</ele>
        <time>2012-05-31T10:18:39Z</time>
      </trkpt>
      <trkpt lat="49.72036" lon="0.67246">
        <ele>54</ele>
        <time>2012-05-31T10:18:47Z</time>
      </trkpt>
      <trkpt lat="49.72043" lon="0.67237">
        <ele>54</ele>
        <time>2012-05-31T10:18:55Z</time>
      </trkpt>
      <trkpt lat="49.72051" lon="0.6723">
        <ele>54</ele>
        <time>2012-05-31T10:19:05Z</time>
      </trkpt>
      <trkpt lat="49.72059" lon="0.67223">
        <ele>59</ele>
        <time>2012-05-31T10:19:15Z</time>
      </trkpt>
      <trkpt lat="49.72067" lon="0.67215">
        <ele>59</ele>
        <time>2012-05-31T10:19:24Z</time>
      </trkpt>
      <trkpt lat="49.72075" lon="0.67208">
        <ele>59</ele>
        <time>2012-05-31T10:19:32Z</time>
      </trkpt>
      <trkpt lat="49.72083" lon="0.672">
        <ele>59</ele>
        <time>2012-05-31T10:19:40Z</time>
      </trkpt>
      <trkpt lat="49.7209" lon="0.67191">
        <ele>59</ele>
        <time>2012-05-31T10:19:47Z</time>
      </trkpt>
      <trkpt lat="49.72098" lon="0.67181">
        <ele>59</ele>
        <time>2012-05-31T10:19:55Z</time>
      </trkpt>
      <trkpt lat="49.72105" lon="0.67173">
        <ele>59</ele>
        <time>2012-05-31T10:20:03Z</time>
      </trkpt>
      <trkpt lat="49.72111" lon="0.67163">
        <ele>59</ele>
        <time>2012-05-31T10:20:11Z</time>
      </trkpt>
      <trkpt lat="49.72117" lon="0.67152">
        <ele>59</ele>
        <time>2012-05-31T10:20:18Z</time>
      </trkpt>
      <trkpt lat="49.72123" lon="0.6714">
        <ele>59</ele>
        <time>2012-05-31T10:20:26Z</time>
      </trkpt>
      <trkpt lat="49.72129" lon="0.67129">
        <ele>59</ele>
        <time>2012-05-31T10:20:33Z</time>
      </trkpt>
      <trkpt lat="49.72135" lon="0.67118">
        <ele>59</ele>
        <time>2012-05-31T10:20:40Z</time>
      </trkpt>
      <trkpt lat="49.72142" lon="0.67107">
        <ele>59</ele>
        <time>2012-05-31T10:20:48Z</time>
      </trkpt>
      <trkpt lat="49.72147" lon="0.67096">
        <ele>59</ele>
        <time>2012-05-31T10:20:55Z</time>
      </trkpt>
      <trkpt lat="49.72153" lon="0.67084">
        <ele>59</ele>
        <time>2012-05-31T10:21:03Z</time>
      </trkpt>
      <trkpt lat="49.72159" lon="0.67074">
        <ele>59</ele>
        <time>2012-05-31T10:21:10Z</time>
      </trkpt>
      <trkpt lat="49.72164" lon="0.67061">
        <ele>59</ele>
        <time>2012-05-31T10:21:18Z</time>
      </trkpt>
      <trkpt lat="49.7217" lon="0.67049">
        <ele>59</ele>
        <time>2012-05-31T10:21:26Z</time>
      </trkpt>
      <trkpt lat="49.72175" lon="0.67037">
        <ele>59</ele>
        <time>2012-05-31T10:21:34Z</time>
      </trkpt>
      <trkpt lat="49.72181" lon="0.67026">
        <ele>59</ele>
        <time>2012-05-31T10:21:42Z</time>
      </trkpt>
      <trkpt lat="49.72186" lon="0.67013">
        <ele>59</ele>
        <time>2012-05-31T10:21:50Z</time>
      </trkpt>
      <trkpt lat="49.72192" lon="0.67002">
        <ele>59</ele>
        <time>2012-05-31T10:21:58Z</time>
      </trkpt>
      <trkpt lat="49.72198" lon="0.66991">
        <ele>59</ele>
        <time>2012-05-31T10:22:07Z</time>
      </trkpt>
      <trkpt lat="49.72203" lon="0.66979">
        <ele>59</ele>
        <time>2012-05-31T10:22:15Z</time>
      </trkpt>
      <trkpt lat="49.72209" lon="0.66969">
        <ele>59</ele>
        <time>2012-05-31T10:22:22Z</time>
      </trkpt>
      <trkpt lat="49.72214" lon="0.66957">
        <ele>59</ele>
        <time>2012-05-31T10:22:31Z</time>
      </trkpt>
      <trkpt lat="49.7222" lon="0.66946">
        <ele>65</ele>
        <time>2012-05-31T10:22:41Z</time>
      </trkpt>
      <trkpt lat="49.72226" lon="0.66934">
        <ele>65</ele>
        <time>2012-05-31T10:22:48Z</time>
      </trkpt>
      <trkpt lat="49.72232" lon="0.66923">
        <ele>65</ele>
        <time>2012-05-31T10:22:59Z</time>
      </trkpt>
      <trkpt lat="49.72238" lon="0.66911">
        <ele>65</ele>
        <time>2012-05-31T10:23:08Z</time>
      </trkpt>
      <trkpt lat="49.72245" lon="0.66902">
        <ele>65</ele>
        <time>2012-05-31T10:23:16Z</time>
      </trkpt>
      <trkpt lat="49.72252" lon="0.66892">
        <ele>65</ele>
        <time>2012-05-31T10:23:24Z</time>
      </trkpt>
      <trkpt lat="49.72259" lon="0.66884">
        <ele>72</ele>
        <time>2012-05-31T10:23:36Z</time>
      </trkpt>
      <trkpt lat="49.72267" lon="0.66875">
        <ele>72</ele>
        <time>2012-05-31T10:23:46Z</time>
      </trkpt>
      <trkpt lat="49.72277" lon="0.66867">
        <ele>72</ele>
        <time>2012-05-31T10:23:54Z</time>
      </trkpt>
      <trkpt lat="49.72287" lon="0.66864">
        <ele>72</ele>
        <time>2012-05-31T10:24:01Z</time>
      </trkpt>
      <trkpt lat="49.72296" lon="0.66864">
        <ele>84</ele>
        <time>2012-05-31T10:24:11Z</time>
      </trkpt>
      <trkpt lat="49.72306" lon="0.66867">
        <ele>84</ele>
        <time>2012-05-31T10:24:15Z</time>
      </trkpt>
      <trkpt lat="49.72315" lon="0.66865">
        <ele>92</ele>
        <time>2012-05-31T10:24:25Z</time>
      </trkpt>
      <trkpt lat="49.72324" lon="0.66863">
        <ele>92</ele>
        <time>2012-05-31T10:24:33Z</time>
      </trkpt>
      <trkpt lat="49.72334" lon="0.66862">
        <ele>92</ele>
        <time>2012-05-31T10:24:41Z</time>
      </trkpt>
      <trkpt lat="49.72343" lon="0.66859">
        <ele>92</ele>
        <time>2012-05-31T10:24:49Z</time>
      </trkpt>
      <trkpt lat="49.72352" lon="0.6685">
        <ele>92</ele>
        <time>2012-05-31T10:25:00Z</time>
      </trkpt>
      <trkpt lat="49.72361" lon="0.66841">
        <ele>92</ele>
        <time>2012-05-31T10:25:07Z</time>
      </trkpt>
      <trkpt lat="49.72368" lon="0.66831">
        <ele>92</ele>
        <time>2012-05-31T10:25:15Z</time>
      </trkpt>
      <trkpt lat="49.72376" lon="0.66822">
        <ele>92</ele>
        <time>2012-05-31T10:25:22Z</time>
      </trkpt>
      <trkpt lat="49.72383" lon="0.6681">
        <ele>92</ele>
        <time>2012-05-31T10:25:31Z</time>
      </trkpt>
      <trkpt lat="49.72391" lon="0.66802">
        <ele>92</ele>
        <time>2012-05-31T10:25:38Z</time>
      </trkpt>
      <trkpt lat="49.724" lon="0.66795">
        <ele>92</ele>
        <time>2012-05-31T10:25:44Z</time>
      </trkpt>
      <trkpt lat="49.72409" lon="0.6679">
        <ele>86</ele>
        <time>2012-05-31T10:25:52Z</time>
      </trkpt>
      <trkpt lat="49.72417" lon="0.66781">
        <ele>86</ele>
        <time>2012-05-31T10:26:00Z</time>
      </trkpt>
      <trkpt lat="49.72426" lon="0.66774">
        <ele>86</ele>
        <time>2012-05-31T10:26:08Z</time>
      </trkpt>
      <trkpt lat="49.72434" lon="0.66766">
        <ele>86</ele>
        <time>2012-05-31T10:26:15Z</time>
      </trkpt>
      <trkpt lat="49.72441" lon="0.66756">
        <ele>86</ele>
        <time>2012-05-31T10:26:22Z</time>
      </trkpt>
      <trkpt lat="49.72449" lon="0.66746">
        <ele>81</ele>
        <time>2012-05-31T10:26:30Z</time>
      </trkpt>
      <trkpt lat="49.72455" lon="0.66735">
        <ele>81</ele>
        <time>2012-05-31T10:26:37Z</time>
      </trkpt>
      <trkpt lat="49.72462" lon="0.66725">
        <ele>81</ele>
        <time>2012-05-31T10:26:44Z</time>
      </trkpt>
      <trkpt lat="49.72468" lon="0.66714">
        <ele>81</ele>
        <time>2012-05-31T10:26:51Z</time>
      </trkpt>
      <trkpt lat="49.72474" lon="0.66702">
        <ele>81</ele>
        <time>2012-05-31T10:26:58Z</time>
      </trkpt>
      <trkpt lat="49.7248" lon="0.6669">
        <ele>76</ele>
        <time>2012-05-31T10:27:05Z</time>
      </trkpt>
      <trkpt lat="49.72486" lon="0.66678">
        <ele>76</ele>
        <time>2012-05-31T10:27:13Z</time>
      </trkpt>
      <trkpt lat="49.72493" lon="0.66668">
        <ele>76</ele>
        <time>2012-05-31T10:27:21Z</time>
      </trkpt>
      <trkpt lat="49.72499" lon="0.66658">
        <ele>76</ele>
        <time>2012-05-31T10:27:28Z</time>
      </trkpt>
      <trkpt lat="49.72504" lon="0.66645">
        <ele>76</ele>
        <time>2012-05-31T10:27:35Z</time>
      </trkpt>
      <trkpt lat="49.7251" lon="0.66634">
        <ele>76</ele>
        <time>2012-05-31T10:27:42Z</time>
      </trkpt>
      <trkpt lat="49.72515" lon="0.66621">
        <ele>70</ele>
        <time>2012-05-31T10:27:49Z</time>
      </trkpt>
      <trkpt lat="49.7252" lon="0.66608">
        <ele>70</ele>
        <time>2012-05-31T10:27:56Z</time>
      </trkpt>
      <trkpt lat="49.72527" lon="0.66597">
        <ele>70</ele>
        <time>2012-05-31T10:28:03Z</time>
      </trkpt>
      <trkpt lat="49.72533" lon="0.66585">
        <ele>70</ele>
        <time>2012-05-31T10:28:11Z</time>
      </trkpt>
      <trkpt lat="49.72541" lon="0.66575">
        <ele>70</ele>
        <time>2012-05-31T10:28:19Z</time>
      </trkpt>
      <trkpt lat="49.72548" lon="0.66566">
        <ele>70</ele>
        <time>2012-05-31T10:28:26Z</time>
      </trkpt>
      <trkpt lat="49.72555" lon="0.66557">
        <ele>70</ele>
        <time>2012-05-31T10:28:33Z</time>
      </trkpt>
      <trkpt lat="49.72563" lon="0.66548">
        <ele>70</ele>
        <time>2012-05-31T10:28:41Z</time>
      </trkpt>
      <trkpt lat="49.7257" lon="0.66538">
        <ele>70</ele>
        <time>2012-05-31T10:28:48Z</time>
      </trkpt>
      <trkpt lat="49.72577" lon="0.6653">
        <ele>65</ele>
        <time>2012-05-31T10:28:55Z</time>
      </trkpt>
      <trkpt lat="49.72585" lon="0.66523">
        <ele>65</ele>
        <time>2012-05-31T10:29:02Z</time>
      </trkpt>
      <trkpt lat="49.72593" lon="0.66516">
        <ele>65</ele>
        <time>2012-05-31T10:29:09Z</time>
      </trkpt>
      <trkpt lat="49.72602" lon="0.6651">
        <ele>65</ele>
        <time>2012-05-31T10:29:16Z</time>
      </trkpt>
      <trkpt lat="49.72612" lon="0.66503">
        <ele>65</ele>
        <time>2012-05-31T10:29:24Z</time>
      </trkpt>
      <trkpt lat="49.7262" lon="0.66496">
        <ele>65</ele>
        <time>2012-05-31T10:29:31Z</time>
      </trkpt>
      <trkpt lat="49.72628" lon="0.66491">
        <ele>65</ele>
        <time>2012-05-31T10:29:38Z</time>
      </trkpt>
      <trkpt lat="49.72637" lon="0.66486">
        <ele>65</ele>
        <time>2012-05-31T10:29:45Z</time>
      </trkpt>
      <trkpt lat="49.72646" lon="0.66481">
        <ele>65</ele>
        <time>2012-05-31T10:29:53Z</time>
      </trkpt>
      <trkpt lat="49.72656" lon="0.66476">
        <ele>65</ele>
        <time>2012-05-31T10:30:00Z</time>
      </trkpt>
      <trkpt lat="49.72665" lon="0.66473">
        <ele>65</ele>
        <time>2012-05-31T10:30:07Z</time>
      </trkpt>
      <trkpt lat="49.72674" lon="0.66469">
        <ele>65</ele>
        <time>2012-05-31T10:30:15Z</time>
      </trkpt>
      <trkpt lat="49.72683" lon="0.66465">
        <ele>65</ele>
        <time>2012-05-31T10:30:23Z</time>
      </trkpt>
      <trkpt lat="49.72693" lon="0.66462">
        <ele>65</ele>
        <time>2012-05-31T10:30:32Z</time>
      </trkpt>
      <trkpt lat="49.72702" lon="0.66457">
        <ele>65</ele>
        <time>2012-05-31T10:30:40Z</time>
      </trkpt>
      <trkpt lat="49.72711" lon="0.66452">
        <ele>65</ele>
        <time>2012-05-31T10:30:48Z</time>
      </trkpt>
      <trkpt lat="49.7272" lon="0.66448">
        <ele>65</ele>
        <time>2012-05-31T10:30:56Z</time>
      </trkpt>
      <trkpt lat="49.72729" lon="0.66443">
        <ele>65</ele>
        <time>2012-05-31T10:31:04Z</time>
      </trkpt>
      <trkpt lat="49.72737" lon="0.66436">
        <ele>65</ele>
        <time>2012-05-31T10:31:14Z</time>
      </trkpt>
      <trkpt lat="49.72746" lon="0.6643">
        <ele>65</ele>
        <time>2012-05-31T10:31:23Z</time>
      </trkpt>
      <trkpt lat="49.72754" lon="0.66421">
        <ele>65</ele>
        <time>2012-05-31T10:31:31Z</time>
      </trkpt>
      <trkpt lat="49.72763" lon="0.66414">
        <ele>65</ele>
        <time>2012-05-31T10:31:40Z</time>
      </trkpt>
      <trkpt lat="49.72771" lon="0.66408">
        <ele>65</ele>
        <time>2012-05-31T10:31:47Z</time>
      </trkpt>
      <trkpt lat="49.72777" lon="0.66397">
        <ele>65</ele>
        <time>2012-05-31T10:31:54Z</time>
      </trkpt>
      <trkpt lat="49.7278" lon="0.66384">
        <ele>65</ele>
        <time>2012-05-31T10:32:02Z</time>
      </trkpt>
      <trkpt lat="49.72786" lon="0.66372">
        <ele>65</ele>
        <time>2012-05-31T10:32:11Z</time>
      </trkpt>
      <trkpt lat="49.72791" lon="0.6636">
        <ele>65</ele>
        <time>2012-05-31T10:32:20Z</time>
      </trkpt>
      <trkpt lat="49.72792" lon="0.66346">
        <ele>58</ele>
        <time>2012-05-31T10:33:01Z</time>
      </trkpt>
      <trkpt lat="49.72802" lon="0.66343">
        <ele>64</ele>
        <time>2012-05-31T10:33:49Z</time>
      </trkpt>
      <trkpt lat="49.7281" lon="0.66333">
        <ele>64</ele>
        <time>2012-05-31T10:33:57Z</time>
      </trkpt>
      <trkpt lat="49.72816" lon="0.66321">
        <ele>64</ele>
        <time>2012-05-31T10:34:05Z</time>
      </trkpt>
      <trkpt lat="49.72822" lon="0.66311">
        <ele>64</ele>
        <time>2012-05-31T10:34:12Z</time>
      </trkpt>
      <trkpt lat="49.7283" lon="0.66304">
        <ele>64</ele>
        <time>2012-05-31T10:34:21Z</time>
      </trkpt>
      <trkpt lat="49.72837" lon="0.66295">
        <ele>64</ele>
        <time>2012-05-31T10:34:28Z</time>
      </trkpt>
      <trkpt lat="49.72845" lon="0.66285">
        <ele>64</ele>
        <time>2012-05-31T10:34:35Z</time>
      </trkpt>
      <trkpt lat="49.72852" lon="0.66275">
        <ele>64</ele>
        <time>2012-05-31T10:34:43Z</time>
      </trkpt>
      <trkpt lat="49.72858" lon="0.66264">
        <ele>64</ele>
        <time>2012-05-31T10:34:50Z</time>
      </trkpt>
      <trkpt lat="49.72865" lon="0.66255">
        <ele>58</ele>
        <time>2012-05-31T10:34:57Z</time>
      </trkpt>
      <trkpt lat="49.72873" lon="0.66246">
        <ele>58</ele>
        <time>2012-05-31T10:35:04Z</time>
      </trkpt>
      <trkpt lat="49.7288" lon="0.66236">
        <ele>58</ele>
        <time>2012-05-31T10:35:12Z</time>
      </trkpt>
      <trkpt lat="49.72887" lon="0.66225">
        <ele>58</ele>
        <time>2012-05-31T10:35:20Z</time>
      </trkpt>
      <trkpt lat="49.72893" lon="0.66214">
        <ele>51</ele>
        <time>2012-05-31T10:35:27Z</time>
      </trkpt>
      <trkpt lat="49.72901" lon="0.66205">
        <ele>51</ele>
        <time>2012-05-31T10:35:35Z</time>
      </trkpt>
      <trkpt lat="49.72907" lon="0.66194">
        <ele>51</ele>
        <time>2012-05-31T10:35:42Z</time>
      </trkpt>
      <trkpt lat="49.72914" lon="0.66184">
        <ele>51</ele>
        <time>2012-05-31T10:35:50Z</time>
      </trkpt>
      <trkpt lat="49.72921" lon="0.66174">
        <ele>51</ele>
        <time>2012-05-31T10:35:58Z</time>
      </trkpt>
      <trkpt lat="49.72929" lon="0.66165">
        <ele>51</ele>
        <time>2012-05-31T10:36:06Z</time>
      </trkpt>
      <trkpt lat="49.72939" lon="0.66161">
        <ele>51</ele>
        <time>2012-05-31T10:36:14Z</time>
      </trkpt>
      <trkpt lat="49.72948" lon="0.66156">
        <ele>51</ele>
        <time>2012-05-31T10:36:26Z</time>
      </trkpt>
      <trkpt lat="49.72954" lon="0.66146">
        <ele>51</ele>
        <time>2012-05-31T10:36:54Z</time>
      </trkpt>
      <trkpt lat="49.72959" lon="0.66134">
        <ele>51</ele>
        <time>2012-05-31T10:37:15Z</time>
      </trkpt>
      <trkpt lat="49.72966" lon="0.66125">
        <ele>51</ele>
        <time>2012-05-31T10:37:23Z</time>
      </trkpt>
      <trkpt lat="49.72973" lon="0.66116">
        <ele>51</ele>
        <time>2012-05-31T10:37:30Z</time>
      </trkpt>
      <trkpt lat="49.72981" lon="0.66108">
        <ele>51</ele>
        <time>2012-05-31T10:37:37Z</time>
      </trkpt>
      <trkpt lat="49.72989" lon="0.66099">
        <ele>57</ele>
        <time>2012-05-31T10:37:46Z</time>
      </trkpt>
      <trkpt lat="49.72996" lon="0.66089">
        <ele>57</ele>
        <time>2012-05-31T10:37:53Z</time>
      </trkpt>
      <trkpt lat="49.73003" lon="0.66079">
        <ele>57</ele>
        <time>2012-05-31T10:38:00Z</time>
      </trkpt>
      <trkpt lat="49.7301" lon="0.6607">
        <ele>57</ele>
        <time>2012-05-31T10:38:07Z</time>
      </trkpt>
      <trkpt lat="49.73016" lon="0.66059">
        <ele>57</ele>
        <time>2012-05-31T10:38:15Z</time>
      </trkpt>
      <trkpt lat="49.73023" lon="0.66048">
        <ele>51</ele>
        <time>2012-05-31T10:38:23Z</time>
      </trkpt>
      <trkpt lat="49.73028" lon="0.66037">
        <ele>51</ele>
        <time>2012-05-31T10:38:31Z</time>
      </trkpt>
      <trkpt lat="49.73035" lon="0.66026">
        <ele>51</ele>
        <time>2012-05-31T10:38:39Z</time>
      </trkpt>
      <trkpt lat="49.73041" lon="0.66015">
        <ele>51</ele>
        <time>2012-05-31T10:38:47Z</time>
      </trkpt>
      <trkpt lat="49.73048" lon="0.66004">
        <ele>57</ele>
        <time>2012-05-31T10:38:54Z</time>
      </trkpt>
      <trkpt lat="49.73055" lon="0.65994">
        <ele>57</ele>
        <time>2012-05-31T10:39:02Z</time>
      </trkpt>
      <trkpt lat="49.73063" lon="0.65986">
        <ele>57</ele>
        <time>2012-05-31T10:39:10Z</time>
      </trkpt>
      <trkpt lat="49.73071" lon="0.6598">
        <ele>57</ele>
        <time>2012-05-31T10:39:20Z</time>
      </trkpt>
      <trkpt lat="49.73079" lon="0.65971">
        <ele>57</ele>
        <time>2012-05-31T10:39:35Z</time>
      </trkpt>
      <trkpt lat="49.73088" lon="0.65965">
        <ele>57</ele>
        <time>2012-05-31T10:39:47Z</time>
      </trkpt>
      <trkpt lat="49.73097" lon="0.65957">
        <ele>51</ele>
        <time>2012-05-31T10:39:57Z</time>
      </trkpt>
      <trkpt lat="49.73106" lon="0.65953">
        <ele>51</ele>
        <time>2012-05-31T10:40:07Z</time>
      </trkpt>
      <trkpt lat="49.73115" lon="0.65953">
        <ele>51</ele>
        <time>2012-05-31T10:40:18Z</time>
      </trkpt>
      <trkpt lat="49.73125" lon="0.65954">
        <ele>56</ele>
        <time>2012-05-31T10:40:28Z</time>
      </trkpt>
      <trkpt lat="49.73132" lon="0.65964">
        <ele>56</ele>
        <time>2012-05-31T10:40:36Z</time>
      </trkpt>
      <trkpt lat="49.73139" lon="0.65973">
        <ele>51</ele>
        <time>2012-05-31T10:40:54Z</time>
      </trkpt>
      <trkpt lat="49.73148" lon="0.65979">
        <ele>51</ele>
        <time>2012-05-31T10:41:40Z</time>
      </trkpt>
      <trkpt lat="49.73156" lon="0.65987">
        <ele>51</ele>
        <time>2012-05-31T10:41:49Z</time>
      </trkpt>
      <trkpt lat="49.73164" lon="0.65995">
        <ele>51</ele>
        <time>2012-05-31T10:41:58Z</time>
      </trkpt>
      <trkpt lat="49.73172" lon="0.66003">
        <ele>51</ele>
        <time>2012-05-31T10:42:06Z</time>
      </trkpt>
      <trkpt lat="49.7318" lon="0.6601">
        <ele>51</ele>
        <time>2012-05-31T10:42:14Z</time>
      </trkpt>
      <trkpt lat="49.73189" lon="0.66018">
        <ele>46</ele>
        <time>2012-05-31T10:42:22Z</time>
      </trkpt>
      <trkpt lat="49.73197" lon="0.66024">
        <ele>46</ele>
        <time>2012-05-31T10:42:29Z</time>
      </trkpt>
      <trkpt lat="49.73206" lon="0.66032">
        <ele>46</ele>
        <time>2012-05-31T10:42:36Z</time>
      </trkpt>
      <trkpt lat="49.73214" lon="0.6604">
        <ele>46</ele>
        <time>2012-05-31T10:42:43Z</time>
      </trkpt>
      <trkpt lat="49.73222" lon="0.66048">
        <ele>46</ele>
        <time>2012-05-31T10:42:51Z</time>
      </trkpt>
      <trkpt lat="49.73231" lon="0.66054">
        <ele>46</ele>
        <time>2012-05-31T10:42:59Z</time>
      </trkpt>
      <trkpt lat="49.7324" lon="0.66058">
        <ele>46</ele>
        <time>2012-05-31T10:43:23Z</time>
      </trkpt>
      <trkpt lat="49.73248" lon="0.66064">
        <ele>46</ele>
        <time>2012-05-31T10:44:21Z</time>
      </trkpt>
      <trkpt lat="49.73257" lon="0.66068">
        <ele>46</ele>
        <time>2012-05-31T10:44:34Z</time>
      </trkpt>
      <trkpt lat="49.73263" lon="0.66078">
        <ele>46</ele>
        <time>2012-05-31T10:44:49Z</time>
      </trkpt>
      <trkpt lat="49.73271" lon="0.66086">
        <ele>46</ele>
        <time>2012-05-31T10:44:59Z</time>
      </trkpt>
      <trkpt lat="49.73279" lon="0.66094">
        <ele>46</ele>
        <time>2012-05-31T10:45:08Z</time>
      </trkpt>
      <trkpt lat="49.73288" lon="0.66096">
        <ele>46</ele>
        <time>2012-05-31T10:46:05Z</time>
      </trkpt>
      <trkpt lat="49.73295" lon="0.66105">
        <ele>46</ele>
        <time>2012-05-31T10:46:31Z</time>
      </trkpt>
      <trkpt lat="49.73304" lon="0.66099">
        <ele>46</ele>
        <time>2012-05-31T10:46:43Z</time>
      </trkpt>
      <trkpt lat="49.73311" lon="0.66089">
        <ele>53</ele>
        <time>2012-05-31T10:46:50Z</time>
      </trkpt>
      <trkpt lat="49.73318" lon="0.66079">
        <ele>53</ele>
        <time>2012-05-31T10:47:01Z</time>
      </trkpt>
      <trkpt lat="49.73327" lon="0.66074">
        <ele>53</ele>
        <time>2012-05-31T10:47:12Z</time>
      </trkpt>
      <trkpt lat="49.73335" lon="0.66079">
        <ele>45</ele>
        <time>2012-05-31T10:48:07Z</time>
      </trkpt>
      <trkpt lat="49.73341" lon="0.66068">
        <ele>54</ele>
        <time>2012-05-31T10:49:00Z</time>
      </trkpt>
      <trkpt lat="49.73341" lon="0.66053">
        <ele>60</ele>
        <time>2012-05-31T10:49:08Z</time>
      </trkpt>
      <trkpt lat="49.73348" lon="0.66043">
        <ele>60</ele>
        <time>2012-05-31T10:49:18Z</time>
      </trkpt>
      <trkpt lat="49.73354" lon="0.66032">
        <ele>71</ele>
        <time>2012-05-31T10:49:28Z</time>
      </trkpt>
      <trkpt lat="49.73362" lon="0.66024">
        <ele>78</ele>
        <time>2012-05-31T10:49:39Z</time>
      </trkpt>
      <trkpt lat="49.73372" lon="0.66021">
        <ele>85</ele>
        <time>2012-05-31T10:49:51Z</time>
      </trkpt>
      <trkpt lat="49.73383" lon="0.66022">
        <ele>85</ele>
        <time>2012-05-31T10:50:01Z</time>
      </trkpt>
      <trkpt lat="49.73392" lon="0.66025">
        <ele>72</ele>
        <time>2012-05-31T10:50:12Z</time>
      </trkpt>
      <trkpt lat="49.73401" lon="0.66032">
        <ele>72</ele>
        <time>2012-05-31T10:50:25Z</time>
      </trkpt>
      <trkpt lat="49.73412" lon="0.66037">
        <ele>72</ele>
        <time>2012-05-31T10:50:34Z</time>
      </trkpt>
      <trkpt lat="49.73421" lon="0.66039">
        <ele>79</ele>
        <time>2012-05-31T10:50:44Z</time>
      </trkpt>
      <trkpt lat="49.7343" lon="0.6605">
        <ele>79</ele>
        <time>2012-05-31T10:50:54Z</time>
      </trkpt>
      <trkpt lat="49.73432" lon="0.66064">
        <ele>68</ele>
        <time>2012-05-31T10:51:02Z</time>
      </trkpt>
      <trkpt lat="49.73442" lon="0.66067">
        <ele>68</ele>
        <time>2012-05-31T10:51:19Z</time>
      </trkpt>
      <trkpt lat="49.73451" lon="0.66072">
        <ele>68</ele>
        <time>2012-05-31T10:51:27Z</time>
      </trkpt>
      <trkpt lat="49.73458" lon="0.66082">
        <ele>68</ele>
        <time>2012-05-31T10:51:39Z</time>
      </trkpt>
      <trkpt lat="49.73466" lon="0.66092">
        <ele>68</ele>
        <time>2012-05-31T10:51:49Z</time>
      </trkpt>
      <trkpt lat="49.73471" lon="0.66104">
        <ele>68</ele>
        <time>2012-05-31T10:52:01Z</time>
      </trkpt>
      <trkpt lat="49.73477" lon="0.66115">
        <ele>76</ele>
        <time>2012-05-31T10:52:11Z</time>
      </trkpt>
      <trkpt lat="49.73484" lon="0.66125">
        <ele>76</ele>
        <time>2012-05-31T10:52:21Z</time>
      </trkpt>
      <trkpt lat="49.73485" lon="0.66139">
        <ele>76</ele>
        <time>2012-05-31T10:52:27Z</time>
      </trkpt>
      <trkpt lat="49.73489" lon="0.66152">
        <ele>70</ele>
        <time>2012-05-31T10:52:39Z</time>
      </trkpt>
      <trkpt lat="49.73495" lon="0.66163">
        <ele>76</ele>
        <time>2012-05-31T10:52:49Z</time>
      </trkpt>
      <trkpt lat="49.735" lon="0.66175">
        <ele>76</ele>
        <time>2012-05-31T10:53:01Z</time>
      </trkpt>
      <trkpt lat="49.735" lon="0.6619">
        <ele>76</ele>
        <time>2012-05-31T10:53:11Z</time>
      </trkpt>
      <trkpt lat="49.73505" lon="0.66201">
        <ele>76</ele>
        <time>2012-05-31T10:53:24Z</time>
      </trkpt>
      <trkpt lat="49.735" lon="0.66215">
        <ele>76</ele>
        <time>2012-05-31T10:53:35Z</time>
      </trkpt>
      <trkpt lat="49.73502" lon="0.66228">
        <ele>76</ele>
        <time>2012-05-31T10:53:40Z</time>
      </trkpt>
      <trkpt lat="49.7351" lon="0.66236">
        <ele>76</ele>
        <time>2012-05-31T10:53:49Z</time>
      </trkpt>
      <trkpt lat="49.73516" lon="0.66247">
        <ele>76</ele>
        <time>2012-05-31T10:54:02Z</time>
      </trkpt>
      <trkpt lat="49.73523" lon="0.66256">
        <ele>90</ele>
        <time>2012-05-31T10:54:13Z</time>
      </trkpt>
      <trkpt lat="49.73527" lon="0.6627">
        <ele>90</ele>
        <time>2012-05-31T10:54:24Z</time>
      </trkpt>
      <trkpt lat="49.73534" lon="0.6628">
        <ele>98</ele>
        <time>2012-05-31T10:54:34Z</time>
      </trkpt>
      <trkpt lat="49.73543" lon="0.66289">
        <ele>98</ele>
        <time>2012-05-31T10:54:46Z</time>
      </trkpt>
      <trkpt lat="49.73548" lon="0.663">
        <ele>98</ele>
        <time>2012-05-31T10:54:58Z</time>
      </trkpt>
      <trkpt lat="49.73555" lon="0.66309">
        <ele>98</ele>
        <time>2012-05-31T10:55:07Z</time>
      </trkpt>
      <trkpt lat="49.73562" lon="0.6632">
        <ele>104</ele>
        <time>2012-05-31T10:55:19Z</time>
      </trkpt>
      <trkpt lat="49.73571" lon="0.66327">
        <ele>104</ele>
        <time>2012-05-31T10:55:29Z</time>
      </trkpt>
      <trkpt lat="49.7358" lon="0.66326">
        <ele>109</ele>
        <time>2012-05-31T10:55:40Z</time>
      </trkpt>
      <trkpt lat="49.73589" lon="0.66331">
        <ele>109</ele>
        <time>2012-05-31T10:55:51Z</time>
      </trkpt>
      <trkpt lat="49.73596" lon="0.6634">
        <ele>109</ele>
        <time>2012-05-31T10:56:01Z</time>
      </trkpt>
      <trkpt lat="49.73604" lon="0.66347">
        <ele>109</ele>
        <time>2012-05-31T10:56:08Z</time>
      </trkpt>
      <trkpt lat="49.73608" lon="0.6636">
        <ele>104</ele>
        <time>2012-05-31T10:56:20Z</time>
      </trkpt>
      <trkpt lat="49.73614" lon="0.66371">
        <ele>104</ele>
        <time>2012-05-31T10:56:28Z</time>
      </trkpt>
      <trkpt lat="49.73621" lon="0.66381">
        <ele>104</ele>
        <time>2012-05-31T10:56:37Z</time>
      </trkpt>
      <trkpt lat="49.73627" lon="0.66391">
        <ele>104</ele>
        <time>2012-05-31T10:56:46Z</time>
      </trkpt>
      <trkpt lat="49.73633" lon="0.66402">
        <ele>104</ele>
        <time>2012-05-31T10:56:57Z</time>
      </trkpt>
      <trkpt lat="49.7364" lon="0.66412">
        <ele>104</ele>
        <time>2012-05-31T10:57:07Z</time>
      </trkpt>
      <trkpt lat="49.73645" lon="0.66424">
        <ele>104</ele>
        <time>2012-05-31T10:57:18Z</time>
      </trkpt>
      <trkpt lat="49.73653" lon="0.66432">
        <ele>104</ele>
        <time>2012-05-31T10:57:31Z</time>
      </trkpt>
      <trkpt lat="49.73656" lon="0.66446">
        <ele>104</ele>
        <time>2012-05-31T11:00:42Z</time>
      </trkpt>
      <trkpt lat="49.73653" lon="0.66459">
        <ele>104</ele>
        <time>2012-05-31T11:01:22Z</time>
      </trkpt>
      <trkpt lat="49.73652" lon="0.66474">
        <ele>104</ele>
        <time>2012-05-31T11:01:40Z</time>
      </trkpt>
      <trkpt lat="49.73649" lon="0.66487">
        <ele>104</ele>
        <time>2012-05-31T11:01:48Z</time>
      </trkpt>
      <trkpt lat="49.73645" lon="0.66501">
        <ele>104</ele>
        <time>2012-05-31T11:01:56Z</time>
      </trkpt>
      <trkpt lat="49.73642" lon="0.66515">
        <ele>110</ele>
        <time>2012-05-31T11:02:05Z</time>
      </trkpt>
      <trkpt lat="49.73638" lon="0.66529">
        <ele>110</ele>
        <time>2012-05-31T11:02:14Z</time>
      </trkpt>
      <trkpt lat="49.73635" lon="0.66543">
        <ele>110</ele>
        <time>2012-05-31T11:02:26Z</time>
      </trkpt>
      <trkpt lat="49.73629" lon="0.66554">
        <ele>110</ele>
        <time>2012-05-31T11:02:35Z</time>
      </trkpt>
      <trkpt lat="49.73624" lon="0.66566">
        <ele>110</ele>
        <time>2012-05-31T11:02:43Z</time>
      </trkpt>
      <trkpt lat="49.73618" lon="0.66578">
        <ele>116</ele>
        <time>2012-05-31T11:02:52Z</time>
      </trkpt>
      <trkpt lat="49.73612" lon="0.66589">
        <ele>116</ele>
        <time>2012-05-31T11:03:00Z</time>
      </trkpt>
      <trkpt lat="49.73606" lon="0.666">
        <ele>116</ele>
        <time>2012-05-31T11:03:08Z</time>
      </trkpt>
      <trkpt lat="49.736" lon="0.66613">
        <ele>116</ele>
        <time>2012-05-31T11:03:16Z</time>
      </trkpt>
      <trkpt lat="49.73593" lon="0.66624">
        <ele>116</ele>
        <time>2012-05-31T11:03:26Z</time>
      </trkpt>
      <trkpt lat="49.73586" lon="0.66633">
        <ele>116</ele>
        <time>2012-05-31T11:03:33Z</time>
      </trkpt>
      <trkpt lat="49.7358" lon="0.66643">
        <ele>116</ele>
        <time>2012-05-31T11:03:41Z</time>
      </trkpt>
      <trkpt lat="49.73573" lon="0.66654">
        <ele>116</ele>
        <time>2012-05-31T11:03:49Z</time>
      </trkpt>
      <trkpt lat="49.73566" lon="0.66667">
        <ele>116</ele>
        <time>2012-05-31T11:03:59Z</time>
      </trkpt>
      <trkpt lat="49.73558" lon="0.66676">
        <ele>116</ele>
        <time>2012-05-31T11:04:06Z</time>
      </trkpt>
      <trkpt lat="49.73551" lon="0.66685">
        <ele>116</ele>
        <time>2012-05-31T11:04:15Z</time>
      </trkpt>
      <trkpt lat="49.73544" lon="0.66695">
        <ele>116</ele>
        <time>2012-05-31T11:04:23Z</time>
      </trkpt>
      <trkpt lat="49.73537" lon="0.66704">
        <ele>116</ele>
        <time>2012-05-31T11:04:31Z</time>
      </trkpt>
      <trkpt lat="49.73531" lon="0.66714">
        <ele>116</ele>
        <time>2012-05-31T11:04:38Z</time>
      </trkpt>
      <trkpt lat="49.73525" lon="0.66724">
        <ele>116</ele>
        <time>2012-05-31T11:04:46Z</time>
      </trkpt>
      <trkpt lat="49.73516" lon="0.66733">
        <ele>121</ele>
        <time>2012-05-31T11:04:55Z</time>
      </trkpt>
      <trkpt lat="49.73509" lon="0.66743">
        <ele>121</ele>
        <time>2012-05-31T11:05:04Z</time>
      </trkpt>
      <trkpt lat="49.73502" lon="0.66755">
        <ele>121</ele>
        <time>2012-05-31T11:05:13Z</time>
      </trkpt>
      <trkpt lat="49.73497" lon="0.66766">
        <ele>121</ele>
        <time>2012-05-31T11:05:23Z</time>
      </trkpt>
      <trkpt lat="49.7349" lon="0.66775">
        <ele>121</ele>
        <time>2012-05-31T11:05:33Z</time>
      </trkpt>
      <trkpt lat="49.73483" lon="0.66785">
        <ele>121</ele>
        <time>2012-05-31T11:05:43Z</time>
      </trkpt>
      <trkpt lat="49.73476" lon="0.66795">
        <ele>121</ele>
        <time>2012-05-31T11:05:51Z</time>
      </trkpt>
      <trkpt lat="49.7347" lon="0.66806">
        <ele>121</ele>
        <time>2012-05-31T11:06:01Z</time>
      </trkpt>
      <trkpt lat="49.73463" lon="0.66816">
        <ele>121</ele>
        <time>2012-05-31T11:06:09Z</time>
      </trkpt>
      <trkpt lat="49.73456" lon="0.66827">
        <ele>121</ele>
        <time>2012-05-31T11:06:17Z</time>
      </trkpt>
      <trkpt lat="49.73449" lon="0.66837">
        <ele>121</ele>
        <time>2012-05-31T11:06:25Z</time>
      </trkpt>
      <trkpt lat="49.73442" lon="0.66847">
        <ele>121</ele>
        <time>2012-05-31T11:06:33Z</time>
      </trkpt>
      <trkpt lat="49.73436" lon="0.66858">
        <ele>121</ele>
        <time>2012-05-31T11:06:41Z</time>
      </trkpt>
      <trkpt lat="49.73429" lon="0.66869">
        <ele>121</ele>
        <time>2012-05-31T11:06:49Z</time>
      </trkpt>
      <trkpt lat="49.73422" lon="0.66879">
        <ele>121</ele>
        <time>2012-05-31T11:06:57Z</time>
      </trkpt>
      <trkpt lat="49.73416" lon="0.66889">
        <ele>121</ele>
        <time>2012-05-31T11:07:04Z</time>
      </trkpt>
      <trkpt lat="49.73409" lon="0.66898">
        <ele>121</ele>
        <time>2012-05-31T11:07:12Z</time>
      </trkpt>
      <trkpt lat="49.73402" lon="0.66909">
        <ele>121</ele>
        <time>2012-05-31T11:07:20Z</time>
      </trkpt>
      <trkpt lat="49.73396" lon="0.66919">
        <ele>121</ele>
        <time>2012-05-31T11:07:27Z</time>
      </trkpt>
      <trkpt lat="49.7339" lon="0.6693">
        <ele>121</ele>
        <time>2012-05-31T11:07:34Z</time>
      </trkpt>
      <trkpt lat="49.73384" lon="0.6694">
        <ele>121</ele>
        <time>2012-05-31T11:07:41Z</time>
      </trkpt>
      <trkpt lat="49.73378" lon="0.66951">
        <ele>121</ele>
        <time>2012-05-31T11:07:48Z</time>
      </trkpt>
      <trkpt lat="49.73371" lon="0.66963">
        <ele>121</ele>
        <time>2012-05-31T11:07:57Z</time>
      </trkpt>
      <trkpt lat="49.73366" lon="0.66974">
        <ele>121</ele>
        <time>2012-05-31T11:08:05Z</time>
      </trkpt>
      <trkpt lat="49.7336" lon="0.66987">
        <ele>121</ele>
        <time>2012-05-31T11:08:13Z</time>
      </trkpt>
      <trkpt lat="49.73355" lon="0.66998">
        <ele>121</ele>
        <time>2012-05-31T11:08:20Z</time>
      </trkpt>
      <trkpt lat="49.73348" lon="0.67011">
        <ele>121</ele>
        <time>2012-05-31T11:08:28Z</time>
      </trkpt>
      <trkpt lat="49.73342" lon="0.67022">
        <ele>121</ele>
        <time>2012-05-31T11:08:35Z</time>
      </trkpt>
      <trkpt lat="49.73336" lon="0.67036">
        <ele>121</ele>
        <time>2012-05-31T11:08:43Z</time>
      </trkpt>
      <trkpt lat="49.73332" lon="0.67049">
        <ele>121</ele>
        <time>2012-05-31T11:08:51Z</time>
      </trkpt>
      <trkpt lat="49.73328" lon="0.67062">
        <ele>121</ele>
        <time>2012-05-31T11:08:59Z</time>
      </trkpt>
      <trkpt lat="49.73323" lon="0.67074">
        <ele>121</ele>
        <time>2012-05-31T11:09:08Z</time>
      </trkpt>
      <trkpt lat="49.73317" lon="0.67086">
        <ele>121</ele>
        <time>2012-05-31T11:09:17Z</time>
      </trkpt>
      <trkpt lat="49.73312" lon="0.67099">
        <ele>121</ele>
        <time>2012-05-31T11:09:25Z</time>
      </trkpt>
      <trkpt lat="49.73306" lon="0.67111">
        <ele>121</ele>
        <time>2012-05-31T11:09:33Z</time>
      </trkpt>
      <trkpt lat="49.733" lon="0.67123">
        <ele>121</ele>
        <time>2012-05-31T11:09:41Z</time>
      </trkpt>
      <trkpt lat="49.73295" lon="0.67135">
        <ele>121</ele>
        <time>2012-05-31T11:09:48Z</time>
      </trkpt>
      <trkpt lat="49.73291" lon="0.67147">
        <ele>121</ele>
        <time>2012-05-31T11:09:55Z</time>
      </trkpt>
      <trkpt lat="49.73285" lon="0.67157">
        <ele>121</ele>
        <time>2012-05-31T11:10:02Z</time>
      </trkpt>
      <trkpt lat="49.73278" lon="0.67169">
        <ele>121</ele>
        <time>2012-05-31T11:10:10Z</time>
      </trkpt>
      <trkpt lat="49.73272" lon="0.6718">
        <ele>121</ele>
        <time>2012-05-31T11:10:17Z</time>
      </trkpt>
      <trkpt lat="49.73267" lon="0.67191">
        <ele>121</ele>
        <time>2012-05-31T11:10:25Z</time>
      </trkpt>
      <trkpt lat="49.73261" lon="0.67202">
        <ele>121</ele>
        <time>2012-05-31T11:10:33Z</time>
      </trkpt>
      <trkpt lat="49.73256" lon="0.67213">
        <ele>121</ele>
        <time>2012-05-31T11:10:41Z</time>
      </trkpt>
      <trkpt lat="49.73249" lon="0.67225">
        <ele>121</ele>
        <time>2012-05-31T11:10:50Z</time>
      </trkpt>
      <trkpt lat="49.73243" lon="0.67236">
        <ele>127</ele>
        <time>2012-05-31T11:11:00Z</time>
      </trkpt>
      <trkpt lat="49.73238" lon="0.67248">
        <ele>127</ele>
        <time>2012-05-31T11:11:09Z</time>
      </trkpt>
      <trkpt lat="49.73232" lon="0.6726">
        <ele>127</ele>
        <time>2012-05-31T11:11:18Z</time>
      </trkpt>
      <trkpt lat="49.73226" lon="0.67271">
        <ele>127</ele>
        <time>2012-05-31T11:11:26Z</time>
      </trkpt>
      <trkpt lat="49.73221" lon="0.67284">
        <ele>127</ele>
        <time>2012-05-31T11:11:35Z</time>
      </trkpt>
      <trkpt lat="49.73215" lon="0.67296">
        <ele>127</ele>
        <time>2012-05-31T11:11:44Z</time>
      </trkpt>
      <trkpt lat="49.73209" lon="0.67309">
        <ele>127</ele>
        <time>2012-05-31T11:11:52Z</time>
      </trkpt>
      <trkpt lat="49.73203" lon="0.6732">
        <ele>127</ele>
        <time>2012-05-31T11:12:00Z</time>
      </trkpt>
      <trkpt lat="49.73198" lon="0.67331">
        <ele>127</ele>
        <time>2012-05-31T11:12:08Z</time>
      </trkpt>
      <trkpt lat="49.73193" lon="0.67343">
        <ele>127</ele>
        <time>2012-05-31T11:12:16Z</time>
      </trkpt>
      <trkpt lat="49.73187" lon="0.67355">
        <ele>127</ele>
        <time>2012-05-31T11:12:25Z</time>
      </trkpt>
      <trkpt lat="49.73182" lon="0.67367">
        <ele>132</ele>
        <time>2012-05-31T11:12:33Z</time>
      </trkpt>
      <trkpt lat="49.73176" lon="0.67378">
        <ele>132</ele>
        <time>2012-05-31T11:12:42Z</time>
      </trkpt>
      <trkpt lat="49.73171" lon="0.67391">
        <ele>132</ele>
        <time>2012-05-31T11:12:50Z</time>
      </trkpt>
      <trkpt lat="49.73165" lon="0.67402">
        <ele>132</ele>
        <time>2012-05-31T11:12:58Z</time>
      </trkpt>
      <trkpt lat="49.7316" lon="0.67415">
        <ele>132</ele>
        <time>2012-05-31T11:13:06Z</time>
      </trkpt>
      <trkpt lat="49.73154" lon="0.67427">
        <ele>132</ele>
        <time>2012-05-31T11:13:15Z</time>
      </trkpt>
      <trkpt lat="49.73151" lon="0.6744">
        <ele>132</ele>
        <time>2012-05-31T11:13:23Z</time>
      </trkpt>
      <trkpt lat="49.73145" lon="0.67453">
        <ele>127</ele>
        <time>2012-05-31T11:13:31Z</time>
      </trkpt>
      <trkpt lat="49.73139" lon="0.67464">
        <ele>127</ele>
        <time>2012-05-31T11:13:40Z</time>
      </trkpt>
      <trkpt lat="49.73132" lon="0.67477">
        <ele>127</ele>
        <time>2012-05-31T11:13:49Z</time>
      </trkpt>
      <trkpt lat="49.73128" lon="0.6749">
        <ele>127</ele>
        <time>2012-05-31T11:13:57Z</time>
      </trkpt>
      <trkpt lat="49.73122" lon="0.67501">
        <ele>127</ele>
        <time>2012-05-31T11:14:06Z</time>
      </trkpt>
      <trkpt lat="49.73116" lon="0.67514">
        <ele>127</ele>
        <time>2012-05-31T11:14:15Z</time>
      </trkpt>
      <trkpt lat="49.73111" lon="0.67526">
        <ele>127</ele>
        <time>2012-05-31T11:14:23Z</time>
      </trkpt>
      <trkpt lat="49.73105" lon="0.67539">
        <ele>127</ele>
        <time>2012-05-31T11:14:32Z</time>
      </trkpt>
      <trkpt lat="49.731" lon="0.67551">
        <ele>127</ele>
        <time>2012-05-31T11:14:42Z</time>
      </trkpt>
      <trkpt lat="49.73093" lon="0.67561">
        <ele>132</ele>
        <time>2012-05-31T11:14:54Z</time>
      </trkpt>
      <trkpt lat="49.73088" lon="0.67573">
        <ele>132</ele>
        <time>2012-05-31T11:16:05Z</time>
      </trkpt>
      <trkpt lat="49.73084" lon="0.67587">
        <ele>132</ele>
        <time>2012-05-31T11:16:15Z</time>
      </trkpt>
      <trkpt lat="49.73081" lon="0.67602">
        <ele>132</ele>
        <time>2012-05-31T11:16:27Z</time>
      </trkpt>
      <trkpt lat="49.73076" lon="0.67614">
        <ele>132</ele>
        <time>2012-05-31T11:16:40Z</time>
      </trkpt>
      <trkpt lat="49.73069" lon="0.67622">
        <ele>138</ele>
        <time>2012-05-31T11:17:03Z</time>
      </trkpt>
      <trkpt lat="49.73063" lon="0.67634">
        <ele>138</ele>
        <time>2012-05-31T11:19:28Z</time>
      </trkpt>
      <trkpt lat="49.7306" lon="0.67649">
        <ele>138</ele>
        <time>2012-05-31T11:19:39Z</time>
      </trkpt>
      <trkpt lat="49.73059" lon="0.67664">
        <ele>127</ele>
        <time>2012-05-31T11:19:45Z</time>
      </trkpt>
      <trkpt lat="49.73054" lon="0.67676">
        <ele>127</ele>
        <time>2012-05-31T11:19:56Z</time>
      </trkpt>
      <trkpt lat="49.73055" lon="0.67691">
        <ele>142</ele>
        <time>2012-05-31T11:20:07Z</time>
      </trkpt>
      <trkpt lat="49.73047" lon="0.677">
        <ele>137</ele>
        <time>2012-05-31T11:20:13Z</time>
      </trkpt>
      <trkpt lat="49.73041" lon="0.67711">
        <ele>131</ele>
        <time>2012-05-31T11:20:20Z</time>
      </trkpt>
      <trkpt lat="49.73046" lon="0.67724">
        <ele>131</ele>
        <time>2012-05-31T11:20:29Z</time>
      </trkpt>
      <trkpt lat="49.73044" lon="0.67738">
        <ele>126</ele>
        <time>2012-05-31T11:20:41Z</time>
      </trkpt>
      <trkpt lat="49.73038" lon="0.67751">
        <ele>126</ele>
        <time>2012-05-31T11:20:55Z</time>
      </trkpt>
      <trkpt lat="49.73034" lon="0.67764">
        <ele>126</ele>
        <time>2012-05-31T11:21:31Z</time>
      </trkpt>
      <trkpt lat="49.73027" lon="0.67774">
        <ele>136</ele>
        <time>2012-05-31T11:31:37Z</time>
      </trkpt>
      <trkpt lat="49.73032" lon="0.67762">
        <ele>136</ele>
        <time>2012-05-31T11:32:23Z</time>
      </trkpt>
      <trkpt lat="49.73038" lon="0.67752">
        <ele>130</ele>
        <time>2012-05-31T11:32:48Z</time>
      </trkpt>
      <trkpt lat="49.73033" lon="0.67763">
        <ele>130</ele>
        <time>2012-05-31T11:33:06Z</time>
      </trkpt>
      <trkpt lat="49.7304" lon="0.67754">
        <ele>130</ele>
        <time>2012-05-31T11:47:41Z</time>
      </trkpt>
      <trkpt lat="49.73034" lon="0.67765">
        <ele>130</ele>
        <time>2012-05-31T11:51:51Z</time>
      </trkpt>
      <trkpt lat="49.73032" lon="0.67752">
        <ele>124</ele>
        <time>2012-05-31T11:54:35Z</time>
      </trkpt>
      <trkpt lat="49.73038" lon="0.67763">
        <ele>124</ele>
        <time>2012-05-31T11:56:12Z</time>
      </trkpt>
      <trkpt lat="49.73046" lon="0.67755">
        <ele>124</ele>
        <time>2012-05-31T11:57:38Z</time>
      </trkpt>
      <trkpt lat="49.73037" lon="0.67758">
        <ele>130</ele>
        <time>2012-05-31T11:59:14Z</time>
      </trkpt>
      <trkpt lat="49.73035" lon="0.67773">
        <ele>130</ele>
        <time>2012-05-31T12:02:52Z</time>
      </trkpt>
      <trkpt lat="49.73034" lon="0.67788">
        <ele>130</ele>
        <time>2012-05-31T12:03:04Z</time>
      </trkpt>
      <trkpt lat="49.73031" lon="0.67801">
        <ele>130</ele>
        <time>2012-05-31T12:03:13Z</time>
      </trkpt>
      <trkpt lat="49.73028" lon="0.67816">
        <ele>130</ele>
        <time>2012-05-31T12:03:22Z</time>
      </trkpt>
      <trkpt lat="49.73025" lon="0.6783">
        <ele>130</ele>
        <time>2012-05-31T12:03:31Z</time>
      </trkpt>
      <trkpt lat="49.73023" lon="0.67844">
        <ele>130</ele>
        <time>2012-05-31T12:03:39Z</time>
      </trkpt>
      <trkpt lat="49.7302" lon="0.67857">
        <ele>130</ele>
        <time>2012-05-31T12:03:47Z</time>
      </trkpt>
      <trkpt lat="49.73017" lon="0.6787">
        <ele>130</ele>
        <time>2012-05-31T12:03:55Z</time>
      </trkpt>
      <trkpt lat="49.73013" lon="0.67884">
        <ele>130</ele>
        <time>2012-05-31T12:04:03Z</time>
      </trkpt>
      <trkpt lat="49.7301" lon="0.67897">
        <ele>135</ele>
        <time>2012-05-31T12:04:10Z</time>
      </trkpt>
      <trkpt lat="49.73008" lon="0.67912">
        <ele>135</ele>
        <time>2012-05-31T12:04:19Z</time>
      </trkpt>
      <trkpt lat="49.73005" lon="0.67925">
        <ele>135</ele>
        <time>2012-05-31T12:04:27Z</time>
      </trkpt>
      <trkpt lat="49.73001" lon="0.6794">
        <ele>135</ele>
        <time>2012-05-31T12:04:36Z</time>
      </trkpt>
      <trkpt lat="49.72998" lon="0.67953">
        <ele>135</ele>
        <time>2012-05-31T12:04:45Z</time>
      </trkpt>
      <trkpt lat="49.72995" lon="0.67967">
        <ele>135</ele>
        <time>2012-05-31T12:04:53Z</time>
      </trkpt>
      <trkpt lat="49.72993" lon="0.67982">
        <ele>135</ele>
        <time>2012-05-31T12:05:03Z</time>
      </trkpt>
      <trkpt lat="49.72989" lon="0.67996">
        <ele>135</ele>
        <time>2012-05-31T12:05:13Z</time>
      </trkpt>
      <trkpt lat="49.72986" lon="0.6801">
        <ele>135</ele>
        <time>2012-05-31T12:05:21Z</time>
      </trkpt>
      <trkpt lat="49.72982" lon="0.68022">
        <ele>135</ele>
        <time>2012-05-31T12:05:28Z</time>
      </trkpt>
      <trkpt lat="49.72979" lon="0.68036">
        <ele>135</ele>
        <time>2012-05-31T12:05:36Z</time>
      </trkpt>
      <trkpt lat="49.72975" lon="0.6805">
        <ele>135</ele>
        <time>2012-05-31T12:05:45Z</time>
      </trkpt>
      <trkpt lat="49.72971" lon="0.68063">
        <ele>135</ele>
        <time>2012-05-31T12:05:53Z</time>
      </trkpt>
      <trkpt lat="49.72967" lon="0.68075">
        <ele>135</ele>
        <time>2012-05-31T12:06:00Z</time>
      </trkpt>
      <trkpt lat="49.72963" lon="0.6809">
        <ele>135</ele>
        <time>2012-05-31T12:06:08Z</time>
      </trkpt>
      <trkpt lat="49.72959" lon="0.68103">
        <ele>135</ele>
        <time>2012-05-31T12:06:16Z</time>
      </trkpt>
      <trkpt lat="49.72955" lon="0.68117">
        <ele>135</ele>
        <time>2012-05-31T12:06:24Z</time>
      </trkpt>
      <trkpt lat="49.72951" lon="0.68131">
        <ele>135</ele>
        <time>2012-05-31T12:06:32Z</time>
      </trkpt>
      <trkpt lat="49.72946" lon="0.68144">
        <ele>135</ele>
        <time>2012-05-31T12:06:40Z</time>
      </trkpt>
      <trkpt lat="49.72942" lon="0.68156">
        <ele>135</ele>
        <time>2012-05-31T12:06:48Z</time>
      </trkpt>
      <trkpt lat="49.72938" lon="0.68169">
        <ele>135</ele>
        <time>2012-05-31T12:06:56Z</time>
      </trkpt>
      <trkpt lat="49.72932" lon="0.68182">
        <ele>135</ele>
        <time>2012-05-31T12:07:04Z</time>
      </trkpt>
      <trkpt lat="49.72927" lon="0.68196">
        <ele>135</ele>
        <time>2012-05-31T12:07:12Z</time>
      </trkpt>
      <trkpt lat="49.72924" lon="0.68209">
        <ele>135</ele>
        <time>2012-05-31T12:07:21Z</time>
      </trkpt>
      <trkpt lat="49.72921" lon="0.68223">
        <ele>135</ele>
        <time>2012-05-31T12:07:31Z</time>
      </trkpt>
      <trkpt lat="49.72916" lon="0.68235">
        <ele>135</ele>
        <time>2012-05-31T12:07:40Z</time>
      </trkpt>
      <trkpt lat="49.72912" lon="0.68248">
        <ele>135</ele>
        <time>2012-05-31T12:07:50Z</time>
      </trkpt>
      <trkpt lat="49.72908" lon="0.68261">
        <ele>135</ele>
        <time>2012-05-31T12:08:44Z</time>
      </trkpt>
      <trkpt lat="49.72904" lon="0.68274">
        <ele>135</ele>
        <time>2012-05-31T12:08:55Z</time>
      </trkpt>
      <trkpt lat="49.72899" lon="0.68287">
        <ele>135</ele>
        <time>2012-05-31T12:09:10Z</time>
      </trkpt>
      <trkpt lat="49.72895" lon="0.683">
        <ele>135</ele>
        <time>2012-05-31T12:09:18Z</time>
      </trkpt>
      <trkpt lat="49.72891" lon="0.68314">
        <ele>135</ele>
        <time>2012-05-31T12:09:27Z</time>
      </trkpt>
      <trkpt lat="49.72889" lon="0.68328">
        <ele>135</ele>
        <time>2012-05-31T12:09:36Z</time>
      </trkpt>
      <trkpt lat="49.72883" lon="0.68341">
        <ele>135</ele>
        <time>2012-05-31T12:09:45Z</time>
      </trkpt>
      <trkpt lat="49.72879" lon="0.68355">
        <ele>135</ele>
        <time>2012-05-31T12:09:53Z</time>
      </trkpt>
      <trkpt lat="49.72875" lon="0.68368">
        <ele>135</ele>
        <time>2012-05-31T12:10:02Z</time>
      </trkpt>
      <trkpt lat="49.7287" lon="0.68381">
        <ele>135</ele>
        <time>2012-05-31T12:10:10Z</time>
      </trkpt>
      <trkpt lat="49.72864" lon="0.68391">
        <ele>135</ele>
        <time>2012-05-31T12:10:19Z</time>
      </trkpt>
      <trkpt lat="49.72854" lon="0.68396">
        <ele>135</ele>
        <time>2012-05-31T12:10:30Z</time>
      </trkpt>
      <trkpt lat="49.72846" lon="0.68403">
        <ele>135</ele>
        <time>2012-05-31T12:10:50Z</time>
      </trkpt>
      <trkpt lat="49.72839" lon="0.68411">
        <ele>135</ele>
        <time>2012-05-31T12:11:03Z</time>
      </trkpt>
      <trkpt lat="49.7283" lon="0.68419">
        <ele>135</ele>
        <time>2012-05-31T12:11:11Z</time>
      </trkpt>
      <trkpt lat="49.72822" lon="0.68428">
        <ele>135</ele>
        <time>2012-05-31T12:11:19Z</time>
      </trkpt>
      <trkpt lat="49.72814" lon="0.68437">
        <ele>135</ele>
        <time>2012-05-31T12:11:27Z</time>
      </trkpt>
      <trkpt lat="49.72807" lon="0.68446">
        <ele>135</ele>
        <time>2012-05-31T12:11:34Z</time>
      </trkpt>
      <trkpt lat="49.72799" lon="0.68455">
        <ele>135</ele>
        <time>2012-05-31T12:11:42Z</time>
      </trkpt>
      <trkpt lat="49.72791" lon="0.68465">
        <ele>135</ele>
        <time>2012-05-31T12:11:50Z</time>
      </trkpt>
      <trkpt lat="49.72784" lon="0.68474">
        <ele>135</ele>
        <time>2012-05-31T12:11:57Z</time>
      </trkpt>
      <trkpt lat="49.72776" lon="0.68484">
        <ele>135</ele>
        <time>2012-05-31T12:12:05Z</time>
      </trkpt>
      <trkpt lat="49.72768" lon="0.68494">
        <ele>135</ele>
        <time>2012-05-31T12:12:13Z</time>
      </trkpt>
      <trkpt lat="49.7276" lon="0.68504">
        <ele>135</ele>
        <time>2012-05-31T12:12:21Z</time>
      </trkpt>
      <trkpt lat="49.72753" lon="0.68513">
        <ele>135</ele>
        <time>2012-05-31T12:12:28Z</time>
      </trkpt>
      <trkpt lat="49.72745" lon="0.68522">
        <ele>135</ele>
        <time>2012-05-31T12:12:35Z</time>
      </trkpt>
      <trkpt lat="49.72738" lon="0.68532">
        <ele>135</ele>
        <time>2012-05-31T12:12:43Z</time>
      </trkpt>
      <trkpt lat="49.7273" lon="0.68542">
        <ele>135</ele>
        <time>2012-05-31T12:12:51Z</time>
      </trkpt>
      <trkpt lat="49.72722" lon="0.6855">
        <ele>135</ele>
        <time>2012-05-31T12:12:59Z</time>
      </trkpt>
      <trkpt lat="49.72715" lon="0.68559">
        <ele>135</ele>
        <time>2012-05-31T12:13:07Z</time>
      </trkpt>
      <trkpt lat="49.72706" lon="0.68568">
        <ele>135</ele>
        <time>2012-05-31T12:13:15Z</time>
      </trkpt>
      <trkpt lat="49.72705" lon="0.68582">
        <ele>135</ele>
        <time>2012-05-31T12:13:27Z</time>
      </trkpt>
      <trkpt lat="49.72709" lon="0.68596">
        <ele>135</ele>
        <time>2012-05-31T12:13:35Z</time>
      </trkpt>
      <trkpt lat="49.72711" lon="0.68611">
        <ele>135</ele>
        <time>2012-05-31T12:13:42Z</time>
      </trkpt>
      <trkpt lat="49.72711" lon="0.68625">
        <ele>135</ele>
        <time>2012-05-31T12:13:50Z</time>
      </trkpt>
      <trkpt lat="49.72711" lon="0.68639">
        <ele>135</ele>
        <time>2012-05-31T12:13:58Z</time>
      </trkpt>
      <trkpt lat="49.72711" lon="0.68654">
        <ele>135</ele>
        <time>2012-05-31T12:14:06Z</time>
      </trkpt>
      <trkpt lat="49.7271" lon="0.68668">
        <ele>135</ele>
        <time>2012-05-31T12:14:14Z</time>
      </trkpt>
      <trkpt lat="49.72709" lon="0.68683">
        <ele>135</ele>
        <time>2012-05-31T12:14:25Z</time>
      </trkpt>
      <trkpt lat="49.72709" lon="0.68698">
        <ele>135</ele>
        <time>2012-05-31T12:14:33Z</time>
      </trkpt>
      <trkpt lat="49.72708" lon="0.68712">
        <ele>135</ele>
        <time>2012-05-31T12:14:40Z</time>
      </trkpt>
      <trkpt lat="49.72706" lon="0.68727">
        <ele>130</ele>
        <time>2012-05-31T12:14:47Z</time>
      </trkpt>
      <trkpt lat="49.72704" lon="0.68742">
        <ele>130</ele>
        <time>2012-05-31T12:14:56Z</time>
      </trkpt>
      <trkpt lat="49.72701" lon="0.68755">
        <ele>130</ele>
        <time>2012-05-31T12:15:03Z</time>
      </trkpt>
      <trkpt lat="49.72697" lon="0.68769">
        <ele>130</ele>
        <time>2012-05-31T12:15:12Z</time>
      </trkpt>
      <trkpt lat="49.72692" lon="0.68783">
        <ele>130</ele>
        <time>2012-05-31T12:15:21Z</time>
      </trkpt>
      <trkpt lat="49.72688" lon="0.68796">
        <ele>130</ele>
        <time>2012-05-31T12:15:28Z</time>
      </trkpt>
      <trkpt lat="49.72684" lon="0.68809">
        <ele>130</ele>
        <time>2012-05-31T12:15:36Z</time>
      </trkpt>
      <trkpt lat="49.7268" lon="0.68822">
        <ele>130</ele>
        <time>2012-05-31T12:15:46Z</time>
      </trkpt>
      <trkpt lat="49.72674" lon="0.68833">
        <ele>130</ele>
        <time>2012-05-31T12:15:52Z</time>
      </trkpt>
      <trkpt lat="49.72669" lon="0.68846">
        <ele>130</ele>
        <time>2012-05-31T12:16:00Z</time>
      </trkpt>
      <trkpt lat="49.72665" lon="0.6886">
        <ele>130</ele>
        <time>2012-05-31T12:16:08Z</time>
      </trkpt>
      <trkpt lat="49.72659" lon="0.68872">
        <ele>130</ele>
        <time>2012-05-31T12:16:15Z</time>
      </trkpt>
      <trkpt lat="49.72653" lon="0.68883">
        <ele>130</ele>
        <time>2012-05-31T12:16:22Z</time>
      </trkpt>
      <trkpt lat="49.7265" lon="0.68896">
        <ele>130</ele>
        <time>2012-05-31T12:16:30Z</time>
      </trkpt>
      <trkpt lat="49.72646" lon="0.68909">
        <ele>124</ele>
        <time>2012-05-31T12:16:38Z</time>
      </trkpt>
      <trkpt lat="49.72641" lon="0.68921">
        <ele>124</ele>
        <time>2012-05-31T12:17:19Z</time>
      </trkpt>
      <trkpt lat="49.72637" lon="0.68935">
        <ele>124</ele>
        <time>2012-05-31T12:18:40Z</time>
      </trkpt>
      <trkpt lat="49.72633" lon="0.68948">
        <ele>124</ele>
        <time>2012-05-31T12:18:49Z</time>
      </trkpt>
      <trkpt lat="49.72628" lon="0.68959">
        <ele>124</ele>
        <time>2012-05-31T12:18:57Z</time>
      </trkpt>
      <trkpt lat="49.72624" lon="0.68973">
        <ele>124</ele>
        <time>2012-05-31T12:19:05Z</time>
      </trkpt>
      <trkpt lat="49.72619" lon="0.68985">
        <ele>124</ele>
        <time>2012-05-31T12:19:13Z</time>
      </trkpt>
      <trkpt lat="49.72615" lon="0.68998">
        <ele>118</ele>
        <time>2012-05-31T12:19:21Z</time>
      </trkpt>
      <trkpt lat="49.7261" lon="0.69011">
        <ele>118</ele>
        <time>2012-05-31T12:19:30Z</time>
      </trkpt>
      <trkpt lat="49.72606" lon="0.69024">
        <ele>118</ele>
        <time>2012-05-31T12:19:38Z</time>
      </trkpt>
      <trkpt lat="49.726" lon="0.69036">
        <ele>118</ele>
        <time>2012-05-31T12:19:47Z</time>
      </trkpt>
      <trkpt lat="49.72596" lon="0.6905">
        <ele>118</ele>
        <time>2012-05-31T12:19:55Z</time>
      </trkpt>
      <trkpt lat="49.72593" lon="0.69063">
        <ele>118</ele>
        <time>2012-05-31T12:20:03Z</time>
      </trkpt>
      <trkpt lat="49.72589" lon="0.69077">
        <ele>118</ele>
        <time>2012-05-31T12:20:11Z</time>
      </trkpt>
      <trkpt lat="49.72585" lon="0.69089">
        <ele>118</ele>
        <time>2012-05-31T12:20:19Z</time>
      </trkpt>
      <trkpt lat="49.72581" lon="0.69103">
        <ele>118</ele>
        <time>2012-05-31T12:20:27Z</time>
      </trkpt>
      <trkpt lat="49.72576" lon="0.69116">
        <ele>118</ele>
        <time>2012-05-31T12:20:36Z</time>
      </trkpt>
      <trkpt lat="49.72571" lon="0.69128">
        <ele>118</ele>
        <time>2012-05-31T12:20:45Z</time>
      </trkpt>
      <trkpt lat="49.72566" lon="0.6914">
        <ele>118</ele>
        <time>2012-05-31T12:20:54Z</time>
      </trkpt>
      <trkpt lat="49.72559" lon="0.69152">
        <ele>118</ele>
        <time>2012-05-31T12:21:03Z</time>
      </trkpt>
      <trkpt lat="49.72553" lon="0.69162">
        <ele>118</ele>
        <time>2012-05-31T12:21:11Z</time>
      </trkpt>
      <trkpt lat="49.72546" lon="0.69172">
        <ele>118</ele>
        <time>2012-05-31T12:21:20Z</time>
      </trkpt>
      <trkpt lat="49.72538" lon="0.69183">
        <ele>112</ele>
        <time>2012-05-31T12:21:28Z</time>
      </trkpt>
      <trkpt lat="49.72531" lon="0.69191">
        <ele>112</ele>
        <time>2012-05-31T12:21:35Z</time>
      </trkpt>
      <trkpt lat="49.72522" lon="0.69198">
        <ele>112</ele>
        <time>2012-05-31T12:21:43Z</time>
      </trkpt>
      <trkpt lat="49.72514" lon="0.69206">
        <ele>112</ele>
        <time>2012-05-31T12:21:51Z</time>
      </trkpt>
      <trkpt lat="49.72505" lon="0.69214">
        <ele>112</ele>
        <time>2012-05-31T12:22:00Z</time>
      </trkpt>
      <trkpt lat="49.72497" lon="0.69222">
        <ele>112</ele>
        <time>2012-05-31T12:22:08Z</time>
      </trkpt>
      <trkpt lat="49.72489" lon="0.6923">
        <ele>112</ele>
        <time>2012-05-31T12:22:16Z</time>
      </trkpt>
      <trkpt lat="49.7248" lon="0.69237">
        <ele>112</ele>
        <time>2012-05-31T12:22:25Z</time>
      </trkpt>
      <trkpt lat="49.72481" lon="0.69252">
        <ele>112</ele>
        <time>2012-05-31T12:23:19Z</time>
      </trkpt>
      <trkpt lat="49.72488" lon="0.69261">
        <ele>112</ele>
        <time>2012-05-31T12:23:29Z</time>
      </trkpt>
      <trkpt lat="49.72494" lon="0.69272">
        <ele>112</ele>
        <time>2012-05-31T12:23:39Z</time>
      </trkpt>
      <trkpt lat="49.72501" lon="0.69283">
        <ele>112</ele>
        <time>2012-05-31T12:23:49Z</time>
      </trkpt>
      <trkpt lat="49.72507" lon="0.69293">
        <ele>112</ele>
        <time>2012-05-31T12:23:58Z</time>
      </trkpt>
      <trkpt lat="49.72514" lon="0.69303">
        <ele>112</ele>
        <time>2012-05-31T12:24:07Z</time>
      </trkpt>
      <trkpt lat="49.72517" lon="0.69318">
        <ele>112</ele>
        <time>2012-05-31T12:24:16Z</time>
      </trkpt>
      <trkpt lat="49.72518" lon="0.69332">
        <ele>112</ele>
        <time>2012-05-31T12:24:25Z</time>
      </trkpt>
      <trkpt lat="49.72516" lon="0.69347">
        <ele>112</ele>
        <time>2012-05-31T12:24:35Z</time>
      </trkpt>
      <trkpt lat="49.72518" lon="0.69361">
        <ele>112</ele>
        <time>2012-05-31T12:24:43Z</time>
      </trkpt>
      <trkpt lat="49.72521" lon="0.69374">
        <ele>112</ele>
        <time>2012-05-31T12:24:51Z</time>
      </trkpt>
      <trkpt lat="49.7252" lon="0.6939">
        <ele>112</ele>
        <time>2012-05-31T12:24:59Z</time>
      </trkpt>
      <trkpt lat="49.7252" lon="0.69404">
        <ele>112</ele>
        <time>2012-05-31T12:25:07Z</time>
      </trkpt>
      <trkpt lat="49.72518" lon="0.69419">
        <ele>112</ele>
        <time>2012-05-31T12:25:17Z</time>
      </trkpt>
      <trkpt lat="49.72517" lon="0.69435">
        <ele>112</ele>
        <time>2012-05-31T12:25:26Z</time>
      </trkpt>
      <trkpt lat="49.7252" lon="0.69451">
        <ele>112</ele>
        <time>2012-05-31T12:25:35Z</time>
      </trkpt>
      <trkpt lat="49.7252" lon="0.69465">
        <ele>112</ele>
        <time>2012-05-31T12:25:42Z</time>
      </trkpt>
      <trkpt lat="49.7252" lon="0.6948">
        <ele>112</ele>
        <time>2012-05-31T12:25:51Z</time>
      </trkpt>
      <trkpt lat="49.72522" lon="0.69495">
        <ele>112</ele>
        <time>2012-05-31T12:25:59Z</time>
      </trkpt>
      <trkpt lat="49.72524" lon="0.6951">
        <ele>112</ele>
        <time>2012-05-31T12:26:08Z</time>
      </trkpt>
      <trkpt lat="49.72525" lon="0.69525">
        <ele>112</ele>
        <time>2012-05-31T12:26:17Z</time>
      </trkpt>
      <trkpt lat="49.72527" lon="0.69539">
        <ele>112</ele>
        <time>2012-05-31T12:26:24Z</time>
      </trkpt>
      <trkpt lat="49.72527" lon="0.69554">
        <ele>112</ele>
        <time>2012-05-31T12:26:32Z</time>
      </trkpt>
      <trkpt lat="49.72527" lon="0.69568">
        <ele>107</ele>
        <time>2012-05-31T12:26:40Z</time>
      </trkpt>
      <trkpt lat="49.72529" lon="0.69583">
        <ele>107</ele>
        <time>2012-05-31T12:26:48Z</time>
      </trkpt>
      <trkpt lat="49.72529" lon="0.69597">
        <ele>107</ele>
        <time>2012-05-31T12:26:57Z</time>
      </trkpt>
      <trkpt lat="49.72529" lon="0.69612">
        <ele>107</ele>
        <time>2012-05-31T12:27:05Z</time>
      </trkpt>
      <trkpt lat="49.72532" lon="0.69626">
        <ele>107</ele>
        <time>2012-05-31T12:27:13Z</time>
      </trkpt>
      <trkpt lat="49.72531" lon="0.69641">
        <ele>107</ele>
        <time>2012-05-31T12:27:22Z</time>
      </trkpt>
      <trkpt lat="49.72532" lon="0.69655">
        <ele>107</ele>
        <time>2012-05-31T12:27:30Z</time>
      </trkpt>
      <trkpt lat="49.72532" lon="0.69671">
        <ele>107</ele>
        <time>2012-05-31T12:27:39Z</time>
      </trkpt>
      <trkpt lat="49.72533" lon="0.69685">
        <ele>107</ele>
        <time>2012-05-31T12:27:46Z</time>
      </trkpt>
      <trkpt lat="49.72536" lon="0.69699">
        <ele>107</ele>
        <time>2012-05-31T12:27:53Z</time>
      </trkpt>
      <trkpt lat="49.72536" lon="0.69714">
        <ele>98</ele>
        <time>2012-05-31T12:28:01Z</time>
      </trkpt>
      <trkpt lat="49.72539" lon="0.69728">
        <ele>98</ele>
        <time>2012-05-31T12:28:09Z</time>
      </trkpt>
      <trkpt lat="49.72545" lon="0.69742">
        <ele>98</ele>
        <time>2012-05-31T12:28:16Z</time>
      </trkpt>
      <trkpt lat="49.72547" lon="0.69755">
        <ele>98</ele>
        <time>2012-05-31T12:28:25Z</time>
      </trkpt>
      <trkpt lat="49.72554" lon="0.69766">
        <ele>98</ele>
        <time>2012-05-31T12:28:32Z</time>
      </trkpt>
      <trkpt lat="49.72555" lon="0.6978">
        <ele>92</ele>
        <time>2012-05-31T12:28:42Z</time>
      </trkpt>
      <trkpt lat="49.72556" lon="0.69795">
        <ele>92</ele>
        <time>2012-05-31T12:28:52Z</time>
      </trkpt>
      <trkpt lat="49.72557" lon="0.6981">
        <ele>92</ele>
        <time>2012-05-31T12:29:01Z</time>
      </trkpt>
      <trkpt lat="49.72558" lon="0.69825">
        <ele>92</ele>
        <time>2012-05-31T12:29:10Z</time>
      </trkpt>
      <trkpt lat="49.72558" lon="0.6984">
        <ele>86</ele>
        <time>2012-05-31T12:29:19Z</time>
      </trkpt>
      <trkpt lat="49.72561" lon="0.69854">
        <ele>86</ele>
        <time>2012-05-31T12:29:27Z</time>
      </trkpt>
      <trkpt lat="49.72566" lon="0.69868">
        <ele>86</ele>
        <time>2012-05-31T12:29:35Z</time>
      </trkpt>
      <trkpt lat="49.72569" lon="0.69882">
        <ele>86</ele>
        <time>2012-05-31T12:29:43Z</time>
      </trkpt>
      <trkpt lat="49.72575" lon="0.69893">
        <ele>86</ele>
        <time>2012-05-31T12:29:51Z</time>
      </trkpt>
      <trkpt lat="49.72581" lon="0.69905">
        <ele>86</ele>
        <time>2012-05-31T12:29:58Z</time>
      </trkpt>
      <trkpt lat="49.72585" lon="0.69919">
        <ele>86</ele>
        <time>2012-05-31T12:30:06Z</time>
      </trkpt>
      <trkpt lat="49.72579" lon="0.69929">
        <ele>86</ele>
        <time>2012-05-31T12:30:14Z</time>
      </trkpt>
      <trkpt lat="49.7257" lon="0.69929">
        <ele>93</ele>
        <time>2012-05-31T12:30:20Z</time>
      </trkpt>
      <trkpt lat="49.7256" lon="0.69926">
        <ele>93</ele>
        <time>2012-05-31T12:30:29Z</time>
      </trkpt>
      <trkpt lat="49.72553" lon="0.69916">
        <ele>99</ele>
        <time>2012-05-31T12:30:38Z</time>
      </trkpt>
      <trkpt lat="49.72546" lon="0.69908">
        <ele>99</ele>
        <time>2012-05-31T12:30:45Z</time>
      </trkpt>
      <trkpt lat="49.72537" lon="0.69915">
        <ele>99</ele>
        <time>2012-05-31T12:30:55Z</time>
      </trkpt>
      <trkpt lat="49.7253" lon="0.69924">
        <ele>93</ele>
        <time>2012-05-31T12:31:04Z</time>
      </trkpt>
      <trkpt lat="49.72524" lon="0.69936">
        <ele>93</ele>
        <time>2012-05-31T12:31:13Z</time>
      </trkpt>
      <trkpt lat="49.72516" lon="0.69946">
        <ele>87</ele>
        <time>2012-05-31T12:31:20Z</time>
      </trkpt>
      <trkpt lat="49.72512" lon="0.69961">
        <ele>87</ele>
        <time>2012-05-31T12:31:28Z</time>
      </trkpt>
      <trkpt lat="49.72507" lon="0.69973">
        <ele>87</ele>
        <time>2012-05-31T12:31:36Z</time>
      </trkpt>
      <trkpt lat="49.72503" lon="0.69987">
        <ele>87</ele>
        <time>2012-05-31T12:31:44Z</time>
      </trkpt>
      <trkpt lat="49.72499" lon="0.69999">
        <ele>87</ele>
        <time>2012-05-31T12:31:52Z</time>
      </trkpt>
      <trkpt lat="49.72497" lon="0.70014">
        <ele>87</ele>
        <time>2012-05-31T12:32:00Z</time>
      </trkpt>
      <trkpt lat="49.72497" lon="0.70028">
        <ele>87</ele>
        <time>2012-05-31T12:32:09Z</time>
      </trkpt>
      <trkpt lat="49.72497" lon="0.70043">
        <ele>87</ele>
        <time>2012-05-31T12:32:17Z</time>
      </trkpt>
      <trkpt lat="49.72494" lon="0.70057">
        <ele>87</ele>
        <time>2012-05-31T12:32:25Z</time>
      </trkpt>
      <trkpt lat="49.72496" lon="0.70071">
        <ele>87</ele>
        <time>2012-05-31T12:32:33Z</time>
      </trkpt>
      <trkpt lat="49.72495" lon="0.70087">
        <ele>87</ele>
        <time>2012-05-31T12:32:42Z</time>
      </trkpt>
      <trkpt lat="49.72497" lon="0.70101">
        <ele>87</ele>
        <time>2012-05-31T12:32:50Z</time>
      </trkpt>
      <trkpt lat="49.72503" lon="0.70113">
        <ele>87</ele>
        <time>2012-05-31T12:32:58Z</time>
      </trkpt>
      <trkpt lat="49.72508" lon="0.70126">
        <ele>87</ele>
        <time>2012-05-31T12:33:05Z</time>
      </trkpt>
      <trkpt lat="49.7251" lon="0.7014">
        <ele>87</ele>
        <time>2012-05-31T12:33:12Z</time>
      </trkpt>
      <trkpt lat="49.72514" lon="0.70155">
        <ele>87</ele>
        <time>2012-05-31T12:33:21Z</time>
      </trkpt>
      <trkpt lat="49.7252" lon="0.70167">
        <ele>87</ele>
        <time>2012-05-31T12:33:28Z</time>
      </trkpt>
      <trkpt lat="49.72527" lon="0.70179">
        <ele>87</ele>
        <time>2012-05-31T12:33:35Z</time>
      </trkpt>
      <trkpt lat="49.7253" lon="0.70193">
        <ele>82</ele>
        <time>2012-05-31T12:33:45Z</time>
      </trkpt>
      <trkpt lat="49.72532" lon="0.70207">
        <ele>82</ele>
        <time>2012-05-31T12:33:53Z</time>
      </trkpt>
      <trkpt lat="49.72536" lon="0.7022">
        <ele>82</ele>
        <time>2012-05-31T12:34:00Z</time>
      </trkpt>
      <trkpt lat="49.72535" lon="0.70236">
        <ele>82</ele>
        <time>2012-05-31T12:34:09Z</time>
      </trkpt>
      <trkpt lat="49.72532" lon="0.7025">
        <ele>82</ele>
        <time>2012-05-31T12:34:19Z</time>
      </trkpt>
      <trkpt lat="49.72528" lon="0.70264">
        <ele>91</ele>
        <time>2012-05-31T12:34:26Z</time>
      </trkpt>
      <trkpt lat="49.72522" lon="0.70275">
        <ele>91</ele>
        <time>2012-05-31T12:34:33Z</time>
      </trkpt>
      <trkpt lat="49.72517" lon="0.70288">
        <ele>91</ele>
        <time>2012-05-31T12:34:42Z</time>
      </trkpt>
      <trkpt lat="49.72511" lon="0.703">
        <ele>91</ele>
        <time>2012-05-31T12:34:51Z</time>
      </trkpt>
      <trkpt lat="49.72503" lon="0.70307">
        <ele>91</ele>
        <time>2012-05-31T12:34:58Z</time>
      </trkpt>
      <trkpt lat="49.72494" lon="0.70313">
        <ele>91</ele>
        <time>2012-05-31T12:35:07Z</time>
      </trkpt>
      <trkpt lat="49.72486" lon="0.70319">
        <ele>91</ele>
        <time>2012-05-31T12:35:16Z</time>
      </trkpt>
      <trkpt lat="49.72479" lon="0.70329">
        <ele>91</ele>
        <time>2012-05-31T12:35:27Z</time>
      </trkpt>
      <trkpt lat="49.72471" lon="0.70336">
        <ele>91</ele>
        <time>2012-05-31T12:35:35Z</time>
      </trkpt>
      <trkpt lat="49.72462" lon="0.70341">
        <ele>91</ele>
        <time>2012-05-31T12:35:43Z</time>
      </trkpt>
      <trkpt lat="49.72453" lon="0.70346">
        <ele>91</ele>
        <time>2012-05-31T12:35:52Z</time>
      </trkpt>
      <trkpt lat="49.72444" lon="0.70353">
        <ele>91</ele>
        <time>2012-05-31T12:36:01Z</time>
      </trkpt>
      <trkpt lat="49.72436" lon="0.7036">
        <ele>91</ele>
        <time>2012-05-31T12:36:09Z</time>
      </trkpt>
      <trkpt lat="49.72428" lon="0.70369">
        <ele>91</ele>
        <time>2012-05-31T12:36:16Z</time>
      </trkpt>
      <trkpt lat="49.72422" lon="0.70379">
        <ele>91</ele>
        <time>2012-05-31T12:36:22Z</time>
      </trkpt>
      <trkpt lat="49.72414" lon="0.70388">
        <ele>98</ele>
        <time>2012-05-31T12:36:31Z</time>
      </trkpt>
      <trkpt lat="49.72407" lon="0.70397">
        <ele>103</ele>
        <time>2012-05-31T12:36:39Z</time>
      </trkpt>
      <trkpt lat="49.72401" lon="0.70409">
        <ele>103</ele>
        <time>2012-05-31T12:36:49Z</time>
      </trkpt>
      <trkpt lat="49.72396" lon="0.70421">
        <ele>103</ele>
        <time>2012-05-31T12:36:58Z</time>
      </trkpt>
      <trkpt lat="49.72394" lon="0.70436">
        <ele>96</ele>
        <time>2012-05-31T12:37:09Z</time>
      </trkpt>
      <trkpt lat="49.7239" lon="0.7045">
        <ele>96</ele>
        <time>2012-05-31T12:37:17Z</time>
      </trkpt>
      <trkpt lat="49.7239" lon="0.70465">
        <ele>96</ele>
        <time>2012-05-31T12:37:26Z</time>
      </trkpt>
      <trkpt lat="49.72387" lon="0.70479">
        <ele>96</ele>
        <time>2012-05-31T12:37:34Z</time>
      </trkpt>
      <trkpt lat="49.72387" lon="0.70494">
        <ele>96</ele>
        <time>2012-05-31T12:37:41Z</time>
      </trkpt>
      <trkpt lat="49.72384" lon="0.70509">
        <ele>96</ele>
        <time>2012-05-31T12:37:49Z</time>
      </trkpt>
      <trkpt lat="49.72381" lon="0.70522">
        <ele>96</ele>
        <time>2012-05-31T12:37:59Z</time>
      </trkpt>
      <trkpt lat="49.72381" lon="0.70537">
        <ele>96</ele>
        <time>2012-05-31T12:38:07Z</time>
      </trkpt>
      <trkpt lat="49.72383" lon="0.70551">
        <ele>96</ele>
        <time>2012-05-31T12:38:14Z</time>
      </trkpt>
      <trkpt lat="49.72381" lon="0.70567">
        <ele>96</ele>
        <time>2012-05-31T12:38:21Z</time>
      </trkpt>
      <trkpt lat="49.72379" lon="0.70581">
        <ele>96</ele>
        <time>2012-05-31T12:38:29Z</time>
      </trkpt>
      <trkpt lat="49.72378" lon="0.70596">
        <ele>96</ele>
        <time>2012-05-31T12:38:36Z</time>
      </trkpt>
      <trkpt lat="49.72375" lon="0.70609">
        <ele>96</ele>
        <time>2012-05-31T12:38:44Z</time>
      </trkpt>
      <trkpt lat="49.72372" lon="0.70623">
        <ele>96</ele>
        <time>2012-05-31T12:38:52Z</time>
      </trkpt>
      <trkpt lat="49.7237" lon="0.70637">
        <ele>96</ele>
        <time>2012-05-31T12:39:00Z</time>
      </trkpt>
      <trkpt lat="49.72367" lon="0.70651">
        <ele>96</ele>
        <time>2012-05-31T12:39:08Z</time>
      </trkpt>
      <trkpt lat="49.72363" lon="0.70663">
        <ele>96</ele>
        <time>2012-05-31T12:39:17Z</time>
      </trkpt>
      <trkpt lat="49.72356" lon="0.70676">
        <ele>96</ele>
        <time>2012-05-31T12:39:26Z</time>
      </trkpt>
      <trkpt lat="49.72351" lon="0.70687">
        <ele>96</ele>
        <time>2012-05-31T12:39:35Z</time>
      </trkpt>
      <trkpt lat="49.72344" lon="0.70696">
        <ele>96</ele>
        <time>2012-05-31T12:39:42Z</time>
      </trkpt>
      <trkpt lat="49.72336" lon="0.70705">
        <ele>96</ele>
        <time>2012-05-31T12:39:50Z</time>
      </trkpt>
      <trkpt lat="49.7233" lon="0.70715">
        <ele>96</ele>
        <time>2012-05-31T12:39:58Z</time>
      </trkpt>
      <trkpt lat="49.72323" lon="0.70724">
        <ele>96</ele>
        <time>2012-05-31T12:40:05Z</time>
      </trkpt>
      <trkpt lat="49.72315" lon="0.70731">
        <ele>96</ele>
        <time>2012-05-31T12:40:13Z</time>
      </trkpt>
      <trkpt lat="49.72306" lon="0.70739">
        <ele>96</ele>
        <time>2012-05-31T12:40:21Z</time>
      </trkpt>
      <trkpt lat="49.72297" lon="0.70745">
        <ele>96</ele>
        <time>2012-05-31T12:40:31Z</time>
      </trkpt>
      <trkpt lat="49.72288" lon="0.7075">
        <ele>96</ele>
        <time>2012-05-31T12:40:40Z</time>
      </trkpt>
      <trkpt lat="49.72281" lon="0.70761">
        <ele>96</ele>
        <time>2012-05-31T12:40:49Z</time>
      </trkpt>
      <trkpt lat="49.72273" lon="0.70768">
        <ele>96</ele>
        <time>2012-05-31T12:40:59Z</time>
      </trkpt>
      <trkpt lat="49.72264" lon="0.70776">
        <ele>96</ele>
        <time>2012-05-31T12:41:07Z</time>
      </trkpt>
      <trkpt lat="49.72256" lon="0.70783">
        <ele>96</ele>
        <time>2012-05-31T12:41:15Z</time>
      </trkpt>
      <trkpt lat="49.72247" lon="0.70787">
        <ele>96</ele>
        <time>2012-05-31T12:41:22Z</time>
      </trkpt>
      <trkpt lat="49.72238" lon="0.70789">
        <ele>96</ele>
        <time>2012-05-31T12:41:31Z</time>
      </trkpt>
      <trkpt lat="49.72229" lon="0.70793">
        <ele>96</ele>
        <time>2012-05-31T12:41:39Z</time>
      </trkpt>
      <trkpt lat="49.7222" lon="0.70794">
        <ele>96</ele>
        <time>2012-05-31T12:41:48Z</time>
      </trkpt>
      <trkpt lat="49.7221" lon="0.70793">
        <ele>96</ele>
        <time>2012-05-31T12:41:57Z</time>
      </trkpt>
      <trkpt lat="49.722" lon="0.70794">
        <ele>96</ele>
        <time>2012-05-31T12:42:05Z</time>
      </trkpt>
      <trkpt lat="49.72192" lon="0.70797">
        <ele>96</ele>
        <time>2012-05-31T12:42:13Z</time>
      </trkpt>
      <trkpt lat="49.72182" lon="0.70802">
        <ele>96</ele>
        <time>2012-05-31T12:42:21Z</time>
      </trkpt>
      <trkpt lat="49.72176" lon="0.70812">
        <ele>96</ele>
        <time>2012-05-31T12:42:28Z</time>
      </trkpt>
      <trkpt lat="49.72171" lon="0.70825">
        <ele>96</ele>
        <time>2012-05-31T12:42:37Z</time>
      </trkpt>
      <trkpt lat="49.7217" lon="0.70841">
        <ele>102</ele>
        <time>2012-05-31T12:42:46Z</time>
      </trkpt>
      <trkpt lat="49.72171" lon="0.70856">
        <ele>102</ele>
        <time>2012-05-31T12:42:54Z</time>
      </trkpt>
      <trkpt lat="49.72175" lon="0.70868">
        <ele>102</ele>
        <time>2012-05-31T12:43:00Z</time>
      </trkpt>
      <trkpt lat="49.72175" lon="0.70883">
        <ele>102</ele>
        <time>2012-05-31T12:43:10Z</time>
      </trkpt>
      <trkpt lat="49.72178" lon="0.70896">
        <ele>102</ele>
        <time>2012-05-31T12:43:20Z</time>
      </trkpt>
      <trkpt lat="49.72182" lon="0.7091">
        <ele>102</ele>
        <time>2012-05-31T12:43:28Z</time>
      </trkpt>
      <trkpt lat="49.72183" lon="0.70927">
        <ele>102</ele>
        <time>2012-05-31T12:43:37Z</time>
      </trkpt>
      <trkpt lat="49.72182" lon="0.70942">
        <ele>102</ele>
        <time>2012-05-31T12:43:44Z</time>
      </trkpt>
      <trkpt lat="49.72182" lon="0.70956">
        <ele>102</ele>
        <time>2012-05-31T12:43:52Z</time>
      </trkpt>
      <trkpt lat="49.72181" lon="0.70971">
        <ele>102</ele>
        <time>2012-05-31T12:44:00Z</time>
      </trkpt>
      <trkpt lat="49.7218" lon="0.70986">
        <ele>102</ele>
        <time>2012-05-31T12:44:08Z</time>
      </trkpt>
      <trkpt lat="49.7218" lon="0.71">
        <ele>102</ele>
        <time>2012-05-31T12:44:15Z</time>
      </trkpt>
      <trkpt lat="49.72173" lon="0.7101">
        <ele>102</ele>
        <time>2012-05-31T12:44:24Z</time>
      </trkpt>
      <trkpt lat="49.72168" lon="0.71023">
        <ele>102</ele>
        <time>2012-05-31T12:44:31Z</time>
      </trkpt>
      <trkpt lat="49.72166" lon="0.71037">
        <ele>108</ele>
        <time>2012-05-31T12:44:40Z</time>
      </trkpt>
      <trkpt lat="49.72163" lon="0.71051">
        <ele>108</ele>
        <time>2012-05-31T12:44:50Z</time>
      </trkpt>
      <trkpt lat="49.72156" lon="0.71062">
        <ele>108</ele>
        <time>2012-05-31T12:45:03Z</time>
      </trkpt>
      <trkpt lat="49.72151" lon="0.71076">
        <ele>108</ele>
        <time>2012-05-31T12:45:11Z</time>
      </trkpt>
      <trkpt lat="49.72147" lon="0.71088">
        <ele>108</ele>
        <time>2012-05-31T12:45:18Z</time>
      </trkpt>
      <trkpt lat="49.72141" lon="0.71098">
        <ele>108</ele>
        <time>2012-05-31T12:45:25Z</time>
      </trkpt>
      <trkpt lat="49.72133" lon="0.71109">
        <ele>108</ele>
        <time>2012-05-31T12:45:34Z</time>
      </trkpt>
      <trkpt lat="49.72129" lon="0.71123">
        <ele>108</ele>
        <time>2012-05-31T12:45:43Z</time>
      </trkpt>
      <trkpt lat="49.72128" lon="0.71138">
        <ele>108</ele>
        <time>2012-05-31T12:45:51Z</time>
      </trkpt>
      <trkpt lat="49.72128" lon="0.71153">
        <ele>103</ele>
        <time>2012-05-31T12:45:59Z</time>
      </trkpt>
      <trkpt lat="49.72133" lon="0.71165">
        <ele>103</ele>
        <time>2012-05-31T12:46:07Z</time>
      </trkpt>
      <trkpt lat="49.72139" lon="0.71177">
        <ele>103</ele>
        <time>2012-05-31T12:46:15Z</time>
      </trkpt>
      <trkpt lat="49.72146" lon="0.71186">
        <ele>103</ele>
        <time>2012-05-31T12:46:23Z</time>
      </trkpt>
      <trkpt lat="49.72152" lon="0.71197">
        <ele>103</ele>
        <time>2012-05-31T12:46:32Z</time>
      </trkpt>
      <trkpt lat="49.72161" lon="0.71204">
        <ele>103</ele>
        <time>2012-05-31T12:46:43Z</time>
      </trkpt>
      <trkpt lat="49.7217" lon="0.7121">
        <ele>103</ele>
        <time>2012-05-31T12:46:53Z</time>
      </trkpt>
      <trkpt lat="49.72178" lon="0.71216">
        <ele>103</ele>
        <time>2012-05-31T12:47:01Z</time>
      </trkpt>
      <trkpt lat="49.72186" lon="0.7122">
        <ele>103</ele>
        <time>2012-05-31T12:47:09Z</time>
      </trkpt>
      <trkpt lat="49.72196" lon="0.71224">
        <ele>103</ele>
        <time>2012-05-31T12:47:19Z</time>
      </trkpt>
      <trkpt lat="49.72205" lon="0.71224">
        <ele>103</ele>
        <time>2012-05-31T12:47:27Z</time>
      </trkpt>
      <trkpt lat="49.72214" lon="0.71223">
        <ele>103</ele>
        <time>2012-05-31T12:47:35Z</time>
      </trkpt>
      <trkpt lat="49.72224" lon="0.71223">
        <ele>103</ele>
        <time>2012-05-31T12:47:44Z</time>
      </trkpt>
      <trkpt lat="49.72234" lon="0.71223">
        <ele>108</ele>
        <time>2012-05-31T12:47:53Z</time>
      </trkpt>
      <trkpt lat="49.72243" lon="0.71225">
        <ele>108</ele>
        <time>2012-05-31T12:48:01Z</time>
      </trkpt>
      <trkpt lat="49.72252" lon="0.71228">
        <ele>113</ele>
        <time>2012-05-31T12:48:13Z</time>
      </trkpt>
      <trkpt lat="49.72262" lon="0.71232">
        <ele>113</ele>
        <time>2012-05-31T12:48:19Z</time>
      </trkpt>
      <trkpt lat="49.72271" lon="0.7124">
        <ele>113</ele>
        <time>2012-05-31T12:48:28Z</time>
      </trkpt>
      <trkpt lat="49.72275" lon="0.71253">
        <ele>113</ele>
        <time>2012-05-31T12:48:38Z</time>
      </trkpt>
      <trkpt lat="49.72273" lon="0.71268">
        <ele>113</ele>
        <time>2012-05-31T12:48:49Z</time>
      </trkpt>
      <trkpt lat="49.72275" lon="0.71282">
        <ele>113</ele>
        <time>2012-05-31T12:48:56Z</time>
      </trkpt>
      <trkpt lat="49.72274" lon="0.71297">
        <ele>113</ele>
        <time>2012-05-31T12:49:03Z</time>
      </trkpt>
      <trkpt lat="49.72276" lon="0.71311">
        <ele>113</ele>
        <time>2012-05-31T12:49:11Z</time>
      </trkpt>
      <trkpt lat="49.72273" lon="0.71324">
        <ele>113</ele>
        <time>2012-05-31T12:49:18Z</time>
      </trkpt>
      <trkpt lat="49.72271" lon="0.71338">
        <ele>113</ele>
        <time>2012-05-31T12:49:29Z</time>
      </trkpt>
      <trkpt lat="49.72269" lon="0.71352">
        <ele>113</ele>
        <time>2012-05-31T12:49:36Z</time>
      </trkpt>
      <trkpt lat="49.72266" lon="0.71367">
        <ele>113</ele>
        <time>2012-05-31T12:49:43Z</time>
      </trkpt>
      <trkpt lat="49.72263" lon="0.71382">
        <ele>113</ele>
        <time>2012-05-31T12:49:51Z</time>
      </trkpt>
      <trkpt lat="49.72259" lon="0.71396">
        <ele>119</ele>
        <time>2012-05-31T12:49:58Z</time>
      </trkpt>
      <trkpt lat="49.72257" lon="0.71411">
        <ele>119</ele>
        <time>2012-05-31T12:50:06Z</time>
      </trkpt>
      <trkpt lat="49.72255" lon="0.71425">
        <ele>119</ele>
        <time>2012-05-31T12:50:14Z</time>
      </trkpt>
      <trkpt lat="49.72253" lon="0.7144">
        <ele>119</ele>
        <time>2012-05-31T12:50:26Z</time>
      </trkpt>
      <trkpt lat="49.72249" lon="0.71455">
        <ele>119</ele>
        <time>2012-05-31T12:50:34Z</time>
      </trkpt>
      <trkpt lat="49.72249" lon="0.71469">
        <ele>119</ele>
        <time>2012-05-31T12:50:42Z</time>
      </trkpt>
      <trkpt lat="49.72249" lon="0.71483">
        <ele>119</ele>
        <time>2012-05-31T12:50:50Z</time>
      </trkpt>
      <trkpt lat="49.7225" lon="0.71498">
        <ele>112</ele>
        <time>2012-05-31T12:50:59Z</time>
      </trkpt>
      <trkpt lat="49.72255" lon="0.7151">
        <ele>112</ele>
        <time>2012-05-31T12:51:06Z</time>
      </trkpt>
      <trkpt lat="49.7226" lon="0.71523">
        <ele>112</ele>
        <time>2012-05-31T12:51:13Z</time>
      </trkpt>
      <trkpt lat="49.72264" lon="0.71536">
        <ele>112</ele>
        <time>2012-05-31T12:51:22Z</time>
      </trkpt>
      <trkpt lat="49.72271" lon="0.71549">
        <ele>112</ele>
        <time>2012-05-31T12:51:31Z</time>
      </trkpt>
      <trkpt lat="49.72276" lon="0.71563">
        <ele>112</ele>
        <time>2012-05-31T12:51:40Z</time>
      </trkpt>
      <trkpt lat="49.7228" lon="0.71575">
        <ele>112</ele>
        <time>2012-05-31T12:51:47Z</time>
      </trkpt>
      <trkpt lat="49.72282" lon="0.71589">
        <ele>112</ele>
        <time>2012-05-31T12:51:55Z</time>
      </trkpt>
      <trkpt lat="49.72282" lon="0.71605">
        <ele>112</ele>
        <time>2012-05-31T12:52:04Z</time>
      </trkpt>
      <trkpt lat="49.72284" lon="0.7162">
        <ele>112</ele>
        <time>2012-05-31T12:52:13Z</time>
      </trkpt>
      <trkpt lat="49.72283" lon="0.71634">
        <ele>112</ele>
        <time>2012-05-31T12:52:20Z</time>
      </trkpt>
      <trkpt lat="49.72281" lon="0.71649">
        <ele>112</ele>
        <time>2012-05-31T12:52:29Z</time>
      </trkpt>
      <trkpt lat="49.72281" lon="0.71663">
        <ele>112</ele>
        <time>2012-05-31T12:52:37Z</time>
      </trkpt>
      <trkpt lat="49.7228" lon="0.71678">
        <ele>112</ele>
        <time>2012-05-31T12:52:47Z</time>
      </trkpt>
      <trkpt lat="49.72278" lon="0.71694">
        <ele>112</ele>
        <time>2012-05-31T12:52:56Z</time>
      </trkpt>
      <trkpt lat="49.72275" lon="0.71709">
        <ele>112</ele>
        <time>2012-05-31T12:53:04Z</time>
      </trkpt>
      <trkpt lat="49.72271" lon="0.71723">
        <ele>112</ele>
        <time>2012-05-31T12:53:14Z</time>
      </trkpt>
      <trkpt lat="49.72268" lon="0.71737">
        <ele>119</ele>
        <time>2012-05-31T12:53:22Z</time>
      </trkpt>
      <trkpt lat="49.72267" lon="0.71751">
        <ele>119</ele>
        <time>2012-05-31T12:53:31Z</time>
      </trkpt>
      <trkpt lat="49.72266" lon="0.71766">
        <ele>119</ele>
        <time>2012-05-31T12:53:39Z</time>
      </trkpt>
      <trkpt lat="49.72266" lon="0.71781">
        <ele>119</ele>
        <time>2012-05-31T12:53:47Z</time>
      </trkpt>
      <trkpt lat="49.72268" lon="0.71796">
        <ele>111</ele>
        <time>2012-05-31T12:53:55Z</time>
      </trkpt>
      <trkpt lat="49.72268" lon="0.71811">
        <ele>111</ele>
        <time>2012-05-31T12:54:04Z</time>
      </trkpt>
      <trkpt lat="49.7227" lon="0.71826">
        <ele>111</ele>
        <time>2012-05-31T12:54:12Z</time>
      </trkpt>
      <trkpt lat="49.72272" lon="0.71841">
        <ele>111</ele>
        <time>2012-05-31T12:54:21Z</time>
      </trkpt>
      <trkpt lat="49.72273" lon="0.71855">
        <ele>111</ele>
        <time>2012-05-31T12:54:29Z</time>
      </trkpt>
      <trkpt lat="49.72276" lon="0.71869">
        <ele>111</ele>
        <time>2012-05-31T12:54:37Z</time>
      </trkpt>
      <trkpt lat="49.72277" lon="0.71884">
        <ele>111</ele>
        <time>2012-05-31T12:54:47Z</time>
      </trkpt>
      <trkpt lat="49.72273" lon="0.71898">
        <ele>111</ele>
        <time>2012-05-31T13:00:11Z</time>
      </trkpt>
      <trkpt lat="49.72264" lon="0.71902">
        <ele>111</ele>
        <time>2012-05-31T13:00:19Z</time>
      </trkpt>
      <trkpt lat="49.72255" lon="0.71906">
        <ele>111</ele>
        <time>2012-05-31T13:00:28Z</time>
      </trkpt>
      <trkpt lat="49.72246" lon="0.71909">
        <ele>111</ele>
        <time>2012-05-31T13:01:08Z</time>
      </trkpt>
      <trkpt lat="49.72237" lon="0.71914">
        <ele>111</ele>
        <time>2012-05-31T13:01:16Z</time>
      </trkpt>
      <trkpt lat="49.72228" lon="0.71919">
        <ele>111</ele>
        <time>2012-05-31T13:01:25Z</time>
      </trkpt>
      <trkpt lat="49.72218" lon="0.71925">
        <ele>111</ele>
        <time>2012-05-31T13:01:34Z</time>
      </trkpt>
      <trkpt lat="49.7221" lon="0.71932">
        <ele>111</ele>
        <time>2012-05-31T13:01:44Z</time>
      </trkpt>
      <trkpt lat="49.72201" lon="0.71939">
        <ele>111</ele>
        <time>2012-05-31T13:01:53Z</time>
      </trkpt>
      <trkpt lat="49.72193" lon="0.71948">
        <ele>111</ele>
        <time>2012-05-31T13:02:02Z</time>
      </trkpt>
      <trkpt lat="49.72185" lon="0.71957">
        <ele>111</ele>
        <time>2012-05-31T13:02:11Z</time>
      </trkpt>
      <trkpt lat="49.72176" lon="0.71965">
        <ele>111</ele>
        <time>2012-05-31T13:02:22Z</time>
      </trkpt>
      <trkpt lat="49.72168" lon="0.71974">
        <ele>111</ele>
        <time>2012-05-31T13:02:38Z</time>
      </trkpt>
      <trkpt lat="49.72161" lon="0.71983">
        <ele>111</ele>
        <time>2012-05-31T13:02:47Z</time>
      </trkpt>
      <trkpt lat="49.72153" lon="0.71992">
        <ele>111</ele>
        <time>2012-05-31T13:02:55Z</time>
      </trkpt>
      <trkpt lat="49.72145" lon="0.72">
        <ele>111</ele>
        <time>2012-05-31T13:03:05Z</time>
      </trkpt>
      <trkpt lat="49.72137" lon="0.7201">
        <ele>111</ele>
        <time>2012-05-31T13:03:13Z</time>
      </trkpt>
      <trkpt lat="49.7213" lon="0.72018">
        <ele>117</ele>
        <time>2012-05-31T13:03:21Z</time>
      </trkpt>
      <trkpt lat="49.72123" lon="0.72029">
        <ele>117</ele>
        <time>2012-05-31T13:03:30Z</time>
      </trkpt>
      <trkpt lat="49.72115" lon="0.72039">
        <ele>117</ele>
        <time>2012-05-31T13:03:39Z</time>
      </trkpt>
      <trkpt lat="49.72107" lon="0.72048">
        <ele>117</ele>
        <time>2012-05-31T13:03:48Z</time>
      </trkpt>
      <trkpt lat="49.721" lon="0.72058">
        <ele>117</ele>
        <time>2012-05-31T13:03:55Z</time>
      </trkpt>
      <trkpt lat="49.72092" lon="0.72067">
        <ele>117</ele>
        <time>2012-05-31T13:04:03Z</time>
      </trkpt>
      <trkpt lat="49.72084" lon="0.72076">
        <ele>117</ele>
        <time>2012-05-31T13:04:11Z</time>
      </trkpt>
      <trkpt lat="49.72077" lon="0.72085">
        <ele>117</ele>
        <time>2012-05-31T13:04:19Z</time>
      </trkpt>
      <trkpt lat="49.72069" lon="0.72094">
        <ele>117</ele>
        <time>2012-05-31T13:04:27Z</time>
      </trkpt>
      <trkpt lat="49.72062" lon="0.72102">
        <ele>117</ele>
        <time>2012-05-31T13:04:35Z</time>
      </trkpt>
      <trkpt lat="49.72054" lon="0.72111">
        <ele>117</ele>
        <time>2012-05-31T13:04:43Z</time>
      </trkpt>
      <trkpt lat="49.72047" lon="0.72119">
        <ele>117</ele>
        <time>2012-05-31T13:04:51Z</time>
      </trkpt>
      <trkpt lat="49.72038" lon="0.72127">
        <ele>117</ele>
        <time>2012-05-31T13:04:59Z</time>
      </trkpt>
      <trkpt lat="49.7203" lon="0.72135">
        <ele>117</ele>
        <time>2012-05-31T13:05:07Z</time>
      </trkpt>
      <trkpt lat="49.72021" lon="0.72143">
        <ele>117</ele>
        <time>2012-05-31T13:05:16Z</time>
      </trkpt>
      <trkpt lat="49.72012" lon="0.72149">
        <ele>117</ele>
        <time>2012-05-31T13:05:25Z</time>
      </trkpt>
      <trkpt lat="49.72004" lon="0.72155">
        <ele>117</ele>
        <time>2012-05-31T13:05:33Z</time>
      </trkpt>
      <trkpt lat="49.71995" lon="0.7216">
        <ele>123</ele>
        <time>2012-05-31T13:05:41Z</time>
      </trkpt>
      <trkpt lat="49.71987" lon="0.72166">
        <ele>123</ele>
        <time>2012-05-31T13:05:49Z</time>
      </trkpt>
      <trkpt lat="49.71978" lon="0.72172">
        <ele>123</ele>
        <time>2012-05-31T13:05:58Z</time>
      </trkpt>
      <trkpt lat="49.71969" lon="0.72178">
        <ele>123</ele>
        <time>2012-05-31T13:06:20Z</time>
      </trkpt>
      <trkpt lat="49.7196" lon="0.72184">
        <ele>123</ele>
        <time>2012-05-31T13:06:30Z</time>
      </trkpt>
      <trkpt lat="49.71951" lon="0.72189">
        <ele>123</ele>
        <time>2012-05-31T13:06:38Z</time>
      </trkpt>
      <trkpt lat="49.71942" lon="0.72195">
        <ele>123</ele>
        <time>2012-05-31T13:06:47Z</time>
      </trkpt>
      <trkpt lat="49.71932" lon="0.72199">
        <ele>123</ele>
        <time>2012-05-31T13:06:56Z</time>
      </trkpt>
      <trkpt lat="49.71924" lon="0.72204">
        <ele>123</ele>
        <time>2012-05-31T13:07:05Z</time>
      </trkpt>
      <trkpt lat="49.71915" lon="0.72208">
        <ele>123</ele>
        <time>2012-05-31T13:07:13Z</time>
      </trkpt>
      <trkpt lat="49.71906" lon="0.72214">
        <ele>123</ele>
        <time>2012-05-31T13:07:23Z</time>
      </trkpt>
      <trkpt lat="49.71898" lon="0.7222">
        <ele>129</ele>
        <time>2012-05-31T13:07:36Z</time>
      </trkpt>
      <trkpt lat="49.71888" lon="0.72225">
        <ele>129</ele>
        <time>2012-05-31T13:07:58Z</time>
      </trkpt>
      <trkpt lat="49.71879" lon="0.72229">
        <ele>129</ele>
        <time>2012-05-31T13:08:05Z</time>
      </trkpt>
      <trkpt lat="49.7187" lon="0.72234">
        <ele>129</ele>
        <time>2012-05-31T13:08:13Z</time>
      </trkpt>
      <trkpt lat="49.71861" lon="0.72239">
        <ele>129</ele>
        <time>2012-05-31T13:08:21Z</time>
      </trkpt>
      <trkpt lat="49.71852" lon="0.72243">
        <ele>129</ele>
        <time>2012-05-31T13:08:29Z</time>
      </trkpt>
      <trkpt lat="49.71843" lon="0.72249">
        <ele>129</ele>
        <time>2012-05-31T13:08:37Z</time>
      </trkpt>
      <trkpt lat="49.71834" lon="0.72254">
        <ele>129</ele>
        <time>2012-05-31T13:08:45Z</time>
      </trkpt>
      <trkpt lat="49.71825" lon="0.72259">
        <ele>129</ele>
        <time>2012-05-31T13:08:53Z</time>
      </trkpt>
      <trkpt lat="49.71816" lon="0.72264">
        <ele>129</ele>
        <time>2012-05-31T13:09:01Z</time>
      </trkpt>
      <trkpt lat="49.71807" lon="0.72269">
        <ele>129</ele>
        <time>2012-05-31T13:09:09Z</time>
      </trkpt>
      <trkpt lat="49.71798" lon="0.72274">
        <ele>129</ele>
        <time>2012-05-31T13:09:17Z</time>
      </trkpt>
      <trkpt lat="49.71789" lon="0.72278">
        <ele>129</ele>
        <time>2012-05-31T13:09:25Z</time>
      </trkpt>
      <trkpt lat="49.7178" lon="0.72283">
        <ele>129</ele>
        <time>2012-05-31T13:09:33Z</time>
      </trkpt>
      <trkpt lat="49.71771" lon="0.72287">
        <ele>129</ele>
        <time>2012-05-31T13:09:41Z</time>
      </trkpt>
      <trkpt lat="49.71762" lon="0.72291">
        <ele>129</ele>
        <time>2012-05-31T13:09:49Z</time>
      </trkpt>
      <trkpt lat="49.71753" lon="0.72296">
        <ele>129</ele>
        <time>2012-05-31T13:09:57Z</time>
      </trkpt>
      <trkpt lat="49.71744" lon="0.72299">
        <ele>129</ele>
        <time>2012-05-31T13:10:05Z</time>
      </trkpt>
      <trkpt lat="49.71734" lon="0.72302">
        <ele>129</ele>
        <time>2012-05-31T13:10:13Z</time>
      </trkpt>
      <trkpt lat="49.71725" lon="0.72304">
        <ele>129</ele>
        <time>2012-05-31T13:10:21Z</time>
      </trkpt>
      <trkpt lat="49.71715" lon="0.72306">
        <ele>129</ele>
        <time>2012-05-31T13:10:30Z</time>
      </trkpt>
      <trkpt lat="49.71706" lon="0.72309">
        <ele>129</ele>
        <time>2012-05-31T13:10:38Z</time>
      </trkpt>
      <trkpt lat="49.71697" lon="0.72313">
        <ele>129</ele>
        <time>2012-05-31T13:10:46Z</time>
      </trkpt>
      <trkpt lat="49.71687" lon="0.72318">
        <ele>129</ele>
        <time>2012-05-31T13:10:54Z</time>
      </trkpt>
      <trkpt lat="49.71679" lon="0.72326">
        <ele>129</ele>
        <time>2012-05-31T13:11:02Z</time>
      </trkpt>
      <trkpt lat="49.71671" lon="0.72334">
        <ele>129</ele>
        <time>2012-05-31T13:11:10Z</time>
      </trkpt>
      <trkpt lat="49.71663" lon="0.72343">
        <ele>129</ele>
        <time>2012-05-31T13:11:18Z</time>
      </trkpt>
      <trkpt lat="49.71656" lon="0.72353">
        <ele>129</ele>
        <time>2012-05-31T13:11:26Z</time>
      </trkpt>
      <trkpt lat="49.71649" lon="0.72364">
        <ele>129</ele>
        <time>2012-05-31T13:11:34Z</time>
      </trkpt>
      <trkpt lat="49.71642" lon="0.72374">
        <ele>129</ele>
        <time>2012-05-31T13:11:42Z</time>
      </trkpt>
      <trkpt lat="49.71633" lon="0.72375">
        <ele>129</ele>
        <time>2012-05-31T13:11:51Z</time>
      </trkpt>
      <trkpt lat="49.71624" lon="0.72367">
        <ele>129</ele>
        <time>2012-05-31T13:11:59Z</time>
      </trkpt>
      <trkpt lat="49.71616" lon="0.72359">
        <ele>129</ele>
        <time>2012-05-31T13:12:08Z</time>
      </trkpt>
      <trkpt lat="49.71607" lon="0.72352">
        <ele>129</ele>
        <time>2012-05-31T13:12:16Z</time>
      </trkpt>
      <trkpt lat="49.716" lon="0.72344">
        <ele>129</ele>
        <time>2012-05-31T13:12:24Z</time>
      </trkpt>
      <trkpt lat="49.71592" lon="0.72336">
        <ele>129</ele>
        <time>2012-05-31T13:12:32Z</time>
      </trkpt>
      <trkpt lat="49.71585" lon="0.72328">
        <ele>129</ele>
        <time>2012-05-31T13:12:40Z</time>
      </trkpt>
      <trkpt lat="49.71577" lon="0.72318">
        <ele>129</ele>
        <time>2012-05-31T13:12:48Z</time>
      </trkpt>
      <trkpt lat="49.7157" lon="0.72308">
        <ele>129</ele>
        <time>2012-05-31T13:12:57Z</time>
      </trkpt>
      <trkpt lat="49.71562" lon="0.72299">
        <ele>129</ele>
        <time>2012-05-31T13:13:06Z</time>
      </trkpt>
      <trkpt lat="49.71553" lon="0.72295">
        <ele>129</ele>
        <time>2012-05-31T13:13:14Z</time>
      </trkpt>
      <trkpt lat="49.71544" lon="0.72291">
        <ele>129</ele>
        <time>2012-05-31T13:13:22Z</time>
      </trkpt>
      <trkpt lat="49.71535" lon="0.72287">
        <ele>129</ele>
        <time>2012-05-31T13:13:30Z</time>
      </trkpt>
      <trkpt lat="49.71525" lon="0.72284">
        <ele>129</ele>
        <time>2012-05-31T13:13:38Z</time>
      </trkpt>
      <trkpt lat="49.71516" lon="0.72278">
        <ele>129</ele>
        <time>2012-05-31T13:13:46Z</time>
      </trkpt>
      <trkpt lat="49.71507" lon="0.72271">
        <ele>129</ele>
        <time>2012-05-31T13:13:55Z</time>
      </trkpt>
      <trkpt lat="49.71499" lon="0.72265">
        <ele>129</ele>
        <time>2012-05-31T13:14:03Z</time>
      </trkpt>
      <trkpt lat="49.71492" lon="0.72257">
        <ele>129</ele>
        <time>2012-05-31T13:14:13Z</time>
      </trkpt>
      <trkpt lat="49.71484" lon="0.72248">
        <ele>129</ele>
        <time>2012-05-31T13:15:32Z</time>
      </trkpt>
      <trkpt lat="49.71483" lon="0.72233">
        <ele>129</ele>
        <time>2012-05-31T13:15:41Z</time>
      </trkpt>
      <trkpt lat="49.71483" lon="0.72218">
        <ele>129</ele>
        <time>2012-05-31T13:15:51Z</time>
      </trkpt>
      <trkpt lat="49.71484" lon="0.72204">
        <ele>129</ele>
        <time>2012-05-31T13:15:59Z</time>
      </trkpt>
      <trkpt lat="49.71484" lon="0.72189">
        <ele>129</ele>
        <time>2012-05-31T13:16:07Z</time>
      </trkpt>
      <trkpt lat="49.71485" lon="0.72173">
        <ele>129</ele>
        <time>2012-05-31T13:16:16Z</time>
      </trkpt>
      <trkpt lat="49.71485" lon="0.72158">
        <ele>129</ele>
        <time>2012-05-31T13:16:24Z</time>
      </trkpt>
      <trkpt lat="49.71484" lon="0.72144">
        <ele>129</ele>
        <time>2012-05-31T13:16:32Z</time>
      </trkpt>
      <trkpt lat="49.71483" lon="0.72129">
        <ele>129</ele>
        <time>2012-05-31T13:16:44Z</time>
      </trkpt>
      <trkpt lat="49.71479" lon="0.72116">
        <ele>129</ele>
        <time>2012-05-31T13:17:04Z</time>
      </trkpt>
      <trkpt lat="49.71473" lon="0.72103">
        <ele>129</ele>
        <time>2012-05-31T13:17:13Z</time>
      </trkpt>
      <trkpt lat="49.71468" lon="0.72092">
        <ele>129</ele>
        <time>2012-05-31T13:17:21Z</time>
      </trkpt>
      <trkpt lat="49.71463" lon="0.72079">
        <ele>129</ele>
        <time>2012-05-31T13:17:30Z</time>
      </trkpt>
      <trkpt lat="49.71454" lon="0.72075">
        <ele>123</ele>
        <time>2012-05-31T13:17:46Z</time>
      </trkpt>
      <trkpt lat="49.71445" lon="0.72071">
        <ele>123</ele>
        <time>2012-05-31T13:17:56Z</time>
      </trkpt>
      <trkpt lat="49.71436" lon="0.72065">
        <ele>123</ele>
        <time>2012-05-31T13:18:04Z</time>
      </trkpt>
      <trkpt lat="49.71427" lon="0.7206">
        <ele>123</ele>
        <time>2012-05-31T13:18:11Z</time>
      </trkpt>
      <trkpt lat="49.71418" lon="0.72055">
        <ele>123</ele>
        <time>2012-05-31T13:18:19Z</time>
      </trkpt>
      <trkpt lat="49.71409" lon="0.72053">
        <ele>123</ele>
        <time>2012-05-31T13:18:27Z</time>
      </trkpt>
      <trkpt lat="49.714" lon="0.72052">
        <ele>123</ele>
        <time>2012-05-31T13:18:34Z</time>
      </trkpt>
      <trkpt lat="49.7139" lon="0.72052">
        <ele>123</ele>
        <time>2012-05-31T13:18:42Z</time>
      </trkpt>
      <trkpt lat="49.7138" lon="0.72052">
        <ele>123</ele>
        <time>2012-05-31T13:18:57Z</time>
      </trkpt>
      <trkpt lat="49.71371" lon="0.72056">
        <ele>123</ele>
        <time>2012-05-31T13:19:06Z</time>
      </trkpt>
      <trkpt lat="49.71363" lon="0.72063">
        <ele>123</ele>
        <time>2012-05-31T13:19:14Z</time>
      </trkpt>
      <trkpt lat="49.71354" lon="0.72069">
        <ele>123</ele>
        <time>2012-05-31T13:19:23Z</time>
      </trkpt>
      <trkpt lat="49.71345" lon="0.72075">
        <ele>123</ele>
        <time>2012-05-31T13:19:31Z</time>
      </trkpt>
      <trkpt lat="49.71337" lon="0.72078">
        <ele>123</ele>
        <time>2012-05-31T13:19:39Z</time>
      </trkpt>
      <trkpt lat="49.71328" lon="0.72083">
        <ele>123</ele>
        <time>2012-05-31T13:19:58Z</time>
      </trkpt>
      <trkpt lat="49.71322" lon="0.72093">
        <ele>123</ele>
        <time>2012-05-31T13:20:10Z</time>
      </trkpt>
      <trkpt lat="49.71317" lon="0.72106">
        <ele>123</ele>
        <time>2012-05-31T13:20:18Z</time>
      </trkpt>
      <trkpt lat="49.71314" lon="0.72119">
        <ele>128</ele>
        <time>2012-05-31T13:20:27Z</time>
      </trkpt>
      <trkpt lat="49.71312" lon="0.72135">
        <ele>128</ele>
        <time>2012-05-31T13:20:35Z</time>
      </trkpt>
      <trkpt lat="49.71307" lon="0.72149">
        <ele>128</ele>
        <time>2012-05-31T13:20:43Z</time>
      </trkpt>
      <trkpt lat="49.71299" lon="0.72157">
        <ele>128</ele>
        <time>2012-05-31T13:20:51Z</time>
      </trkpt>
      <trkpt lat="49.71289" lon="0.72158">
        <ele>128</ele>
        <time>2012-05-31T13:20:58Z</time>
      </trkpt>
      <trkpt lat="49.7128" lon="0.72156">
        <ele>128</ele>
        <time>2012-05-31T13:21:06Z</time>
      </trkpt>
      <trkpt lat="49.7127" lon="0.72155">
        <ele>128</ele>
        <time>2012-05-31T13:21:14Z</time>
      </trkpt>
      <trkpt lat="49.7126" lon="0.72155">
        <ele>128</ele>
        <time>2012-05-31T13:21:22Z</time>
      </trkpt>
      <trkpt lat="49.7125" lon="0.72154">
        <ele>128</ele>
        <time>2012-05-31T13:21:30Z</time>
      </trkpt>
      <trkpt lat="49.71241" lon="0.72153">
        <ele>128</ele>
        <time>2012-05-31T13:21:37Z</time>
      </trkpt>
      <trkpt lat="49.71231" lon="0.72151">
        <ele>128</ele>
        <time>2012-05-31T13:21:45Z</time>
      </trkpt>
      <trkpt lat="49.71222" lon="0.72149">
        <ele>128</ele>
        <time>2012-05-31T13:21:53Z</time>
      </trkpt>
      <trkpt lat="49.71212" lon="0.72146">
        <ele>128</ele>
        <time>2012-05-31T13:22:01Z</time>
      </trkpt>
      <trkpt lat="49.71203" lon="0.72145">
        <ele>128</ele>
        <time>2012-05-31T13:22:09Z</time>
      </trkpt>
      <trkpt lat="49.71193" lon="0.72144">
        <ele>123</ele>
        <time>2012-05-31T13:22:16Z</time>
      </trkpt>
      <trkpt lat="49.71184" lon="0.72141">
        <ele>123</ele>
        <time>2012-05-31T13:22:24Z</time>
      </trkpt>
      <trkpt lat="49.71176" lon="0.72135">
        <ele>123</ele>
        <time>2012-05-31T13:22:33Z</time>
      </trkpt>
      <trkpt lat="49.71176" lon="0.7212">
        <ele>123</ele>
        <time>2012-05-31T13:22:42Z</time>
      </trkpt>
      <trkpt lat="49.71177" lon="0.72105">
        <ele>123</ele>
        <time>2012-05-31T13:22:51Z</time>
      </trkpt>
      <trkpt lat="49.71178" lon="0.72089">
        <ele>123</ele>
        <time>2012-05-31T13:22:58Z</time>
      </trkpt>
      <trkpt lat="49.71179" lon="0.72075">
        <ele>123</ele>
        <time>2012-05-31T13:23:05Z</time>
      </trkpt>
      <trkpt lat="49.7118" lon="0.7206">
        <ele>123</ele>
        <time>2012-05-31T13:23:13Z</time>
      </trkpt>
      <trkpt lat="49.71182" lon="0.72046">
        <ele>123</ele>
        <time>2012-05-31T13:23:21Z</time>
      </trkpt>
      <trkpt lat="49.71186" lon="0.72031">
        <ele>123</ele>
        <time>2012-05-31T13:23:29Z</time>
      </trkpt>
      <trkpt lat="49.71189" lon="0.72018">
        <ele>123</ele>
        <time>2012-05-31T13:23:36Z</time>
      </trkpt>
      <trkpt lat="49.71191" lon="0.72005">
        <ele>123</ele>
        <time>2012-05-31T13:23:43Z</time>
      </trkpt>
      <trkpt lat="49.71194" lon="0.71991">
        <ele>123</ele>
        <time>2012-05-31T13:23:50Z</time>
      </trkpt>
      <trkpt lat="49.71197" lon="0.71977">
        <ele>123</ele>
        <time>2012-05-31T13:23:58Z</time>
      </trkpt>
      <trkpt lat="49.71199" lon="0.71962">
        <ele>123</ele>
        <time>2012-05-31T13:24:06Z</time>
      </trkpt>
      <trkpt lat="49.71201" lon="0.71948">
        <ele>123</ele>
        <time>2012-05-31T13:24:14Z</time>
      </trkpt>
      <trkpt lat="49.71204" lon="0.71934">
        <ele>123</ele>
        <time>2012-05-31T13:24:23Z</time>
      </trkpt>
      <trkpt lat="49.71204" lon="0.71919">
        <ele>123</ele>
        <time>2012-05-31T13:24:31Z</time>
      </trkpt>
      <trkpt lat="49.71206" lon="0.71905">
        <ele>123</ele>
        <time>2012-05-31T13:24:39Z</time>
      </trkpt>
      <trkpt lat="49.71207" lon="0.7189">
        <ele>123</ele>
        <time>2012-05-31T13:24:47Z</time>
      </trkpt>
      <trkpt lat="49.71206" lon="0.71875">
        <ele>123</ele>
        <time>2012-05-31T13:24:55Z</time>
      </trkpt>
      <trkpt lat="49.71204" lon="0.71861">
        <ele>123</ele>
        <time>2012-05-31T13:25:03Z</time>
      </trkpt>
      <trkpt lat="49.71201" lon="0.71846">
        <ele>123</ele>
        <time>2012-05-31T13:25:11Z</time>
      </trkpt>
      <trkpt lat="49.71199" lon="0.71832">
        <ele>123</ele>
        <time>2012-05-31T13:25:19Z</time>
      </trkpt>
      <trkpt lat="49.71197" lon="0.71818">
        <ele>123</ele>
        <time>2012-05-31T13:25:27Z</time>
      </trkpt>
      <trkpt lat="49.71193" lon="0.71804">
        <ele>123</ele>
        <time>2012-05-31T13:25:35Z</time>
      </trkpt>
      <trkpt lat="49.71191" lon="0.71791">
        <ele>123</ele>
        <time>2012-05-31T13:25:42Z</time>
      </trkpt>
      <trkpt lat="49.71189" lon="0.71776">
        <ele>123</ele>
        <time>2012-05-31T13:25:50Z</time>
      </trkpt>
      <trkpt lat="49.71185" lon="0.71762">
        <ele>123</ele>
        <time>2012-05-31T13:25:58Z</time>
      </trkpt>
      <trkpt lat="49.71182" lon="0.71748">
        <ele>123</ele>
        <time>2012-05-31T13:26:06Z</time>
      </trkpt>
      <trkpt lat="49.7118" lon="0.71733">
        <ele>123</ele>
        <time>2012-05-31T13:26:14Z</time>
      </trkpt>
      <trkpt lat="49.71177" lon="0.7172">
        <ele>123</ele>
        <time>2012-05-31T13:26:22Z</time>
      </trkpt>
      <trkpt lat="49.71175" lon="0.71706">
        <ele>123</ele>
        <time>2012-05-31T13:26:30Z</time>
      </trkpt>
      <trkpt lat="49.71172" lon="0.71693">
        <ele>123</ele>
        <time>2012-05-31T13:26:38Z</time>
      </trkpt>
      <trkpt lat="49.7117" lon="0.71679">
        <ele>123</ele>
        <time>2012-05-31T13:26:46Z</time>
      </trkpt>
      <trkpt lat="49.71168" lon="0.71666">
        <ele>123</ele>
        <time>2012-05-31T13:26:54Z</time>
      </trkpt>
      <trkpt lat="49.71167" lon="0.71651">
        <ele>123</ele>
        <time>2012-05-31T13:27:03Z</time>
      </trkpt>
      <trkpt lat="49.71166" lon="0.71636">
        <ele>123</ele>
        <time>2012-05-31T13:27:13Z</time>
      </trkpt>
      <trkpt lat="49.71164" lon="0.71622">
        <ele>123</ele>
        <time>2012-05-31T13:27:22Z</time>
      </trkpt>
      <trkpt lat="49.71163" lon="0.71607">
        <ele>123</ele>
        <time>2012-05-31T13:27:31Z</time>
      </trkpt>
      <trkpt lat="49.71161" lon="0.71591">
        <ele>123</ele>
        <time>2012-05-31T13:27:41Z</time>
      </trkpt>
      <trkpt lat="49.7116" lon="0.71576">
        <ele>123</ele>
        <time>2012-05-31T13:27:51Z</time>
      </trkpt>
      <trkpt lat="49.71158" lon="0.71561">
        <ele>123</ele>
        <time>2012-05-31T13:28:01Z</time>
      </trkpt>
      <trkpt lat="49.71157" lon="0.71546">
        <ele>128</ele>
        <time>2012-05-31T13:28:10Z</time>
      </trkpt>
      <trkpt lat="49.71155" lon="0.71532">
        <ele>128</ele>
        <time>2012-05-31T13:28:19Z</time>
      </trkpt>
      <trkpt lat="49.71155" lon="0.71518">
        <ele>128</ele>
        <time>2012-05-31T13:28:28Z</time>
      </trkpt>
      <trkpt lat="49.71154" lon="0.71503">
        <ele>128</ele>
        <time>2012-05-31T13:28:37Z</time>
      </trkpt>
      <trkpt lat="49.71153" lon="0.71488">
        <ele>128</ele>
        <time>2012-05-31T13:28:47Z</time>
      </trkpt>
      <trkpt lat="49.71153" lon="0.71474">
        <ele>128</ele>
        <time>2012-05-31T13:28:56Z</time>
      </trkpt>
      <trkpt lat="49.71153" lon="0.71459">
        <ele>128</ele>
        <time>2012-05-31T13:29:05Z</time>
      </trkpt>
      <trkpt lat="49.71153" lon="0.71445">
        <ele>128</ele>
        <time>2012-05-31T13:29:14Z</time>
      </trkpt>
      <trkpt lat="49.71153" lon="0.7143">
        <ele>128</ele>
        <time>2012-05-31T13:29:23Z</time>
      </trkpt>
      <trkpt lat="49.71153" lon="0.71415">
        <ele>128</ele>
        <time>2012-05-31T13:29:32Z</time>
      </trkpt>
      <trkpt lat="49.71154" lon="0.714">
        <ele>128</ele>
        <time>2012-05-31T13:29:41Z</time>
      </trkpt>
      <trkpt lat="49.71154" lon="0.71386">
        <ele>128</ele>
        <time>2012-05-31T13:29:50Z</time>
      </trkpt>
      <trkpt lat="49.71154" lon="0.7137">
        <ele>128</ele>
        <time>2012-05-31T13:29:59Z</time>
      </trkpt>
      <trkpt lat="49.71154" lon="0.71356">
        <ele>128</ele>
        <time>2012-05-31T13:30:08Z</time>
      </trkpt>
      <trkpt lat="49.71155" lon="0.71341">
        <ele>128</ele>
        <time>2012-05-31T13:30:18Z</time>
      </trkpt>
      <trkpt lat="49.71155" lon="0.71326">
        <ele>128</ele>
        <time>2012-05-31T13:30:27Z</time>
      </trkpt>
      <trkpt lat="49.71156" lon="0.71312">
        <ele>128</ele>
        <time>2012-05-31T13:30:36Z</time>
      </trkpt>
      <trkpt lat="49.71156" lon="0.71297">
        <ele>128</ele>
        <time>2012-05-31T13:30:46Z</time>
      </trkpt>
      <trkpt lat="49.71157" lon="0.71282">
        <ele>128</ele>
        <time>2012-05-31T13:30:55Z</time>
      </trkpt>
      <trkpt lat="49.71158" lon="0.71268">
        <ele>128</ele>
        <time>2012-05-31T13:31:04Z</time>
      </trkpt>
      <trkpt lat="49.71158" lon="0.71254">
        <ele>128</ele>
        <time>2012-05-31T13:31:13Z</time>
      </trkpt>
      <trkpt lat="49.7116" lon="0.71239">
        <ele>128</ele>
        <time>2012-05-31T13:31:22Z</time>
      </trkpt>
      <trkpt lat="49.71161" lon="0.71225">
        <ele>128</ele>
        <time>2012-05-31T13:31:31Z</time>
      </trkpt>
      <trkpt lat="49.71161" lon="0.7121">
        <ele>128</ele>
        <time>2012-05-31T13:31:40Z</time>
      </trkpt>
      <trkpt lat="49.71163" lon="0.71194">
        <ele>128</ele>
        <time>2012-05-31T13:31:49Z</time>
      </trkpt>
      <trkpt lat="49.71164" lon="0.71179">
        <ele>128</ele>
        <time>2012-05-31T13:31:58Z</time>
      </trkpt>
      <trkpt lat="49.71165" lon="0.71164">
        <ele>128</ele>
        <time>2012-05-31T13:32:10Z</time>
      </trkpt>
      <trkpt lat="49.71167" lon="0.71149">
        <ele>128</ele>
        <time>2012-05-31T13:32:19Z</time>
      </trkpt>
      <trkpt lat="49.71168" lon="0.71135">
        <ele>128</ele>
        <time>2012-05-31T13:32:28Z</time>
      </trkpt>
      <trkpt lat="49.71169" lon="0.7112">
        <ele>128</ele>
        <time>2012-05-31T13:32:39Z</time>
      </trkpt>
      <trkpt lat="49.71171" lon="0.71105">
        <ele>128</ele>
        <time>2012-05-31T13:32:51Z</time>
      </trkpt>
      <trkpt lat="49.71172" lon="0.7109">
        <ele>128</ele>
        <time>2012-05-31T13:33:01Z</time>
      </trkpt>
      <trkpt lat="49.71173" lon="0.71076">
        <ele>128</ele>
        <time>2012-05-31T13:33:11Z</time>
      </trkpt>
      <trkpt lat="49.71175" lon="0.7106">
        <ele>128</ele>
        <time>2012-05-31T13:33:20Z</time>
      </trkpt>
      <trkpt lat="49.71175" lon="0.71045">
        <ele>128</ele>
        <time>2012-05-31T13:33:29Z</time>
      </trkpt>
      <trkpt lat="49.71176" lon="0.71031">
        <ele>128</ele>
        <time>2012-05-31T13:33:36Z</time>
      </trkpt>
      <trkpt lat="49.71175" lon="0.71016">
        <ele>128</ele>
        <time>2012-05-31T13:33:45Z</time>
      </trkpt>
      <trkpt lat="49.71175" lon="0.71002">
        <ele>128</ele>
        <time>2012-05-31T13:33:54Z</time>
      </trkpt>
      <trkpt lat="49.71176" lon="0.70987">
        <ele>128</ele>
        <time>2012-05-31T13:34:02Z</time>
      </trkpt>
      <trkpt lat="49.71176" lon="0.70971">
        <ele>135</ele>
        <time>2012-05-31T13:34:12Z</time>
      </trkpt>
      <trkpt lat="49.71175" lon="0.70956">
        <ele>135</ele>
        <time>2012-05-31T13:34:23Z</time>
      </trkpt>
      <trkpt lat="49.71175" lon="0.70941">
        <ele>135</ele>
        <time>2012-05-31T13:34:31Z</time>
      </trkpt>
      <trkpt lat="49.71178" lon="0.70927">
        <ele>135</ele>
        <time>2012-05-31T13:34:38Z</time>
      </trkpt>
      <trkpt lat="49.71177" lon="0.70912">
        <ele>135</ele>
        <time>2012-05-31T13:34:45Z</time>
      </trkpt>
      <trkpt lat="49.71177" lon="0.70896">
        <ele>135</ele>
        <time>2012-05-31T13:34:53Z</time>
      </trkpt>
      <trkpt lat="49.71178" lon="0.70882">
        <ele>135</ele>
        <time>2012-05-31T13:35:01Z</time>
      </trkpt>
      <trkpt lat="49.71179" lon="0.70866">
        <ele>130</ele>
        <time>2012-05-31T13:35:10Z</time>
      </trkpt>
      <trkpt lat="49.71178" lon="0.70851">
        <ele>130</ele>
        <time>2012-05-31T13:35:19Z</time>
      </trkpt>
      <trkpt lat="49.71173" lon="0.70838">
        <ele>130</ele>
        <time>2012-05-31T13:35:27Z</time>
      </trkpt>
      <trkpt lat="49.71166" lon="0.70827">
        <ele>130</ele>
        <time>2012-05-31T13:35:34Z</time>
      </trkpt>
      <trkpt lat="49.7116" lon="0.70815">
        <ele>130</ele>
        <time>2012-05-31T13:35:42Z</time>
      </trkpt>
      <trkpt lat="49.71153" lon="0.70805">
        <ele>130</ele>
        <time>2012-05-31T13:35:50Z</time>
      </trkpt>
      <trkpt lat="49.71146" lon="0.70795">
        <ele>130</ele>
        <time>2012-05-31T13:35:58Z</time>
      </trkpt>
      <trkpt lat="49.71139" lon="0.70785">
        <ele>130</ele>
        <time>2012-05-31T13:36:06Z</time>
      </trkpt>
      <trkpt lat="49.71133" lon="0.70775">
        <ele>130</ele>
        <time>2012-05-31T13:36:15Z</time>
      </trkpt>
      <trkpt lat="49.71126" lon="0.70764">
        <ele>130</ele>
        <time>2012-05-31T13:36:24Z</time>
      </trkpt>
      <trkpt lat="49.71119" lon="0.70753">
        <ele>130</ele>
        <time>2012-05-31T13:36:32Z</time>
      </trkpt>
      <trkpt lat="49.71114" lon="0.70742">
        <ele>130</ele>
        <time>2012-05-31T13:36:40Z</time>
      </trkpt>
      <trkpt lat="49.71107" lon="0.70732">
        <ele>130</ele>
        <time>2012-05-31T13:36:48Z</time>
      </trkpt>
      <trkpt lat="49.71101" lon="0.70721">
        <ele>130</ele>
        <time>2012-05-31T13:36:56Z</time>
      </trkpt>
      <trkpt lat="49.71095" lon="0.70711">
        <ele>130</ele>
        <time>2012-05-31T13:37:04Z</time>
      </trkpt>
      <trkpt lat="49.71088" lon="0.707">
        <ele>130</ele>
        <time>2012-05-31T13:37:12Z</time>
      </trkpt>
      <trkpt lat="49.71081" lon="0.7069">
        <ele>130</ele>
        <time>2012-05-31T13:37:20Z</time>
      </trkpt>
      <trkpt lat="49.71073" lon="0.70682">
        <ele>130</ele>
        <time>2012-05-31T13:37:28Z</time>
      </trkpt>
      <trkpt lat="49.71065" lon="0.70674">
        <ele>130</ele>
        <time>2012-05-31T13:37:37Z</time>
      </trkpt>
      <trkpt lat="49.71057" lon="0.70666">
        <ele>130</ele>
        <time>2012-05-31T13:37:45Z</time>
      </trkpt>
      <trkpt lat="49.71049" lon="0.70659">
        <ele>130</ele>
        <time>2012-05-31T13:37:53Z</time>
      </trkpt>
      <trkpt lat="49.71041" lon="0.7065">
        <ele>130</ele>
        <time>2012-05-31T13:38:02Z</time>
      </trkpt>
      <trkpt lat="49.71033" lon="0.70643">
        <ele>130</ele>
        <time>2012-05-31T13:38:10Z</time>
      </trkpt>
      <trkpt lat="49.71025" lon="0.70635">
        <ele>130</ele>
        <time>2012-05-31T13:38:18Z</time>
      </trkpt>
      <trkpt lat="49.71017" lon="0.70626">
        <ele>130</ele>
        <time>2012-05-31T13:38:26Z</time>
      </trkpt>
      <trkpt lat="49.71008" lon="0.70619">
        <ele>130</ele>
        <time>2012-05-31T13:38:35Z</time>
      </trkpt>
      <trkpt lat="49.71" lon="0.70609">
        <ele>130</ele>
        <time>2012-05-31T13:38:46Z</time>
      </trkpt>
      <trkpt lat="49.70991" lon="0.70604">
        <ele>130</ele>
        <time>2012-05-31T13:38:56Z</time>
      </trkpt>
      <trkpt lat="49.70985" lon="0.70593">
        <ele>130</ele>
        <time>2012-05-31T13:39:13Z</time>
      </trkpt>
      <trkpt lat="49.70981" lon="0.70579">
        <ele>130</ele>
        <time>2012-05-31T13:39:25Z</time>
      </trkpt>
      <trkpt lat="49.70974" lon="0.70569">
        <ele>130</ele>
        <time>2012-05-31T13:39:32Z</time>
      </trkpt>
      <trkpt lat="49.70966" lon="0.70562">
        <ele>130</ele>
        <time>2012-05-31T13:39:40Z</time>
      </trkpt>
      <trkpt lat="49.7096" lon="0.70551">
        <ele>130</ele>
        <time>2012-05-31T13:39:47Z</time>
      </trkpt>
      <trkpt lat="49.70952" lon="0.70542">
        <ele>130</ele>
        <time>2012-05-31T13:39:57Z</time>
      </trkpt>
      <trkpt lat="49.70943" lon="0.70535">
        <ele>130</ele>
        <time>2012-05-31T13:40:07Z</time>
      </trkpt>
      <trkpt lat="49.70935" lon="0.70528">
        <ele>130</ele>
        <time>2012-05-31T13:40:15Z</time>
      </trkpt>
      <trkpt lat="49.70926" lon="0.70523">
        <ele>130</ele>
        <time>2012-05-31T13:40:21Z</time>
      </trkpt>
      <trkpt lat="49.70917" lon="0.7052">
        <ele>130</ele>
        <time>2012-05-31T13:40:28Z</time>
      </trkpt>
      <trkpt lat="49.70908" lon="0.70514">
        <ele>130</ele>
        <time>2012-05-31T13:40:35Z</time>
      </trkpt>
      <trkpt lat="49.70899" lon="0.70509">
        <ele>130</ele>
        <time>2012-05-31T13:40:43Z</time>
      </trkpt>
      <trkpt lat="49.7089" lon="0.70503">
        <ele>125</ele>
        <time>2012-05-31T13:40:51Z</time>
      </trkpt>
      <trkpt lat="49.70881" lon="0.70498">
        <ele>125</ele>
        <time>2012-05-31T13:40:58Z</time>
      </trkpt>
      <trkpt lat="49.70872" lon="0.70493">
        <ele>125</ele>
        <time>2012-05-31T13:41:06Z</time>
      </trkpt>
      <trkpt lat="49.70862" lon="0.70487">
        <ele>125</ele>
        <time>2012-05-31T13:41:14Z</time>
      </trkpt>
      <trkpt lat="49.70853" lon="0.70483">
        <ele>125</ele>
        <time>2012-05-31T13:41:22Z</time>
      </trkpt>
      <trkpt lat="49.70844" lon="0.70477">
        <ele>125</ele>
        <time>2012-05-31T13:41:30Z</time>
      </trkpt>
      <trkpt lat="49.70834" lon="0.70472">
        <ele>125</ele>
        <time>2012-05-31T13:41:38Z</time>
      </trkpt>
      <trkpt lat="49.70826" lon="0.70467">
        <ele>125</ele>
        <time>2012-05-31T13:41:46Z</time>
      </trkpt>
      <trkpt lat="49.70818" lon="0.7046">
        <ele>119</ele>
        <time>2012-05-31T13:41:53Z</time>
      </trkpt>
      <trkpt lat="49.70809" lon="0.70456">
        <ele>119</ele>
        <time>2012-05-31T13:42:01Z</time>
      </trkpt>
      <trkpt lat="49.708" lon="0.70459">
        <ele>119</ele>
        <time>2012-05-31T13:42:13Z</time>
      </trkpt>
      <trkpt lat="49.70793" lon="0.70468">
        <ele>119</ele>
        <time>2012-05-31T13:42:23Z</time>
      </trkpt>
      <trkpt lat="49.70787" lon="0.70478">
        <ele>119</ele>
        <time>2012-05-31T13:42:33Z</time>
      </trkpt>
      <trkpt lat="49.7078" lon="0.70488">
        <ele>119</ele>
        <time>2012-05-31T13:42:42Z</time>
      </trkpt>
      <trkpt lat="49.70773" lon="0.70499">
        <ele>119</ele>
        <time>2012-05-31T13:42:53Z</time>
      </trkpt>
      <trkpt lat="49.70766" lon="0.70508">
        <ele>119</ele>
        <time>2012-05-31T13:43:17Z</time>
      </trkpt>
      <trkpt lat="49.70759" lon="0.70519">
        <ele>119</ele>
        <time>2012-05-31T13:43:25Z</time>
      </trkpt>
      <trkpt lat="49.70753" lon="0.70529">
        <ele>119</ele>
        <time>2012-05-31T13:43:33Z</time>
      </trkpt>
      <trkpt lat="49.70748" lon="0.70541">
        <ele>119</ele>
        <time>2012-05-31T13:43:41Z</time>
      </trkpt>
      <trkpt lat="49.70742" lon="0.70554">
        <ele>119</ele>
        <time>2012-05-31T13:43:50Z</time>
      </trkpt>
      <trkpt lat="49.70735" lon="0.70565">
        <ele>119</ele>
        <time>2012-05-31T13:43:59Z</time>
      </trkpt>
      <trkpt lat="49.7073" lon="0.70578">
        <ele>119</ele>
        <time>2012-05-31T13:44:08Z</time>
      </trkpt>
      <trkpt lat="49.70724" lon="0.70591">
        <ele>119</ele>
        <time>2012-05-31T13:44:16Z</time>
      </trkpt>
      <trkpt lat="49.70719" lon="0.70604">
        <ele>119</ele>
        <time>2012-05-31T13:44:26Z</time>
      </trkpt>
      <trkpt lat="49.70714" lon="0.70617">
        <ele>119</ele>
        <time>2012-05-31T13:44:35Z</time>
      </trkpt>
      <trkpt lat="49.70709" lon="0.70628">
        <ele>119</ele>
        <time>2012-05-31T13:44:43Z</time>
      </trkpt>
      <trkpt lat="49.70703" lon="0.70642">
        <ele>119</ele>
        <time>2012-05-31T13:44:51Z</time>
      </trkpt>
      <trkpt lat="49.70698" lon="0.70653">
        <ele>119</ele>
        <time>2012-05-31T13:44:59Z</time>
      </trkpt>
      <trkpt lat="49.70692" lon="0.70665">
        <ele>119</ele>
        <time>2012-05-31T13:45:07Z</time>
      </trkpt>
      <trkpt lat="49.70684" lon="0.70674">
        <ele>119</ele>
        <time>2012-05-31T13:45:15Z</time>
      </trkpt>
      <trkpt lat="49.70677" lon="0.70683">
        <ele>113</ele>
        <time>2012-05-31T13:45:23Z</time>
      </trkpt>
      <trkpt lat="49.70669" lon="0.70691">
        <ele>113</ele>
        <time>2012-05-31T13:45:31Z</time>
      </trkpt>
      <trkpt lat="49.70661" lon="0.70699">
        <ele>113</ele>
        <time>2012-05-31T13:45:39Z</time>
      </trkpt>
      <trkpt lat="49.70653" lon="0.70708">
        <ele>113</ele>
        <time>2012-05-31T13:45:47Z</time>
      </trkpt>
      <trkpt lat="49.70645" lon="0.70718">
        <ele>113</ele>
        <time>2012-05-31T13:45:55Z</time>
      </trkpt>
      <trkpt lat="49.7064" lon="0.70731">
        <ele>113</ele>
        <time>2012-05-31T13:46:04Z</time>
      </trkpt>
      <trkpt lat="49.70639" lon="0.70745">
        <ele>113</ele>
        <time>2012-05-31T13:46:25Z</time>
      </trkpt>
      <trkpt lat="49.70639" lon="0.70759">
        <ele>113</ele>
        <time>2012-05-31T13:46:36Z</time>
      </trkpt>
      <trkpt lat="49.70638" lon="0.70774">
        <ele>113</ele>
        <time>2012-05-31T13:46:45Z</time>
      </trkpt>
      <trkpt lat="49.70638" lon="0.70788">
        <ele>113</ele>
        <time>2012-05-31T13:46:54Z</time>
      </trkpt>
      <trkpt lat="49.70636" lon="0.70803">
        <ele>113</ele>
        <time>2012-05-31T13:47:03Z</time>
      </trkpt>
      <trkpt lat="49.70635" lon="0.70819">
        <ele>113</ele>
        <time>2012-05-31T13:47:12Z</time>
      </trkpt>
      <trkpt lat="49.70632" lon="0.70832">
        <ele>113</ele>
        <time>2012-05-31T13:47:21Z</time>
      </trkpt>
      <trkpt lat="49.70632" lon="0.70847">
        <ele>113</ele>
        <time>2012-05-31T13:47:29Z</time>
      </trkpt>
      <trkpt lat="49.70631" lon="0.70861">
        <ele>113</ele>
        <time>2012-05-31T13:47:37Z</time>
      </trkpt>
      <trkpt lat="49.70629" lon="0.70876">
        <ele>113</ele>
        <time>2012-05-31T13:47:45Z</time>
      </trkpt>
      <trkpt lat="49.70627" lon="0.70891">
        <ele>113</ele>
        <time>2012-05-31T13:47:53Z</time>
      </trkpt>
      <trkpt lat="49.70625" lon="0.70906">
        <ele>113</ele>
        <time>2012-05-31T13:48:01Z</time>
      </trkpt>
      <trkpt lat="49.70622" lon="0.70919">
        <ele>113</ele>
        <time>2012-05-31T13:48:10Z</time>
      </trkpt>
      <trkpt lat="49.70614" lon="0.70924">
        <ele>113</ele>
        <time>2012-05-31T13:48:21Z</time>
      </trkpt>
      <trkpt lat="49.70605" lon="0.70918">
        <ele>113</ele>
        <time>2012-05-31T13:48:30Z</time>
      </trkpt>
      <trkpt lat="49.70597" lon="0.7091">
        <ele>113</ele>
        <time>2012-05-31T13:48:38Z</time>
      </trkpt>
      <trkpt lat="49.70589" lon="0.70901">
        <ele>113</ele>
        <time>2012-05-31T13:48:47Z</time>
      </trkpt>
      <trkpt lat="49.7058" lon="0.70895">
        <ele>113</ele>
        <time>2012-05-31T13:48:56Z</time>
      </trkpt>
      <trkpt lat="49.70572" lon="0.70888">
        <ele>113</ele>
        <time>2012-05-31T13:49:04Z</time>
      </trkpt>
      <trkpt lat="49.70563" lon="0.70883">
        <ele>113</ele>
        <time>2012-05-31T13:49:12Z</time>
      </trkpt>
      <trkpt lat="49.70554" lon="0.70874">
        <ele>113</ele>
        <time>2012-05-31T13:49:21Z</time>
      </trkpt>
      <trkpt lat="49.70546" lon="0.70868">
        <ele>113</ele>
        <time>2012-05-31T13:49:29Z</time>
      </trkpt>
      <trkpt lat="49.70537" lon="0.70862">
        <ele>113</ele>
        <time>2012-05-31T13:49:38Z</time>
      </trkpt>
      <trkpt lat="49.70528" lon="0.70854">
        <ele>113</ele>
        <time>2012-05-31T13:49:47Z</time>
      </trkpt>
      <trkpt lat="49.7052" lon="0.70847">
        <ele>113</ele>
        <time>2012-05-31T13:49:55Z</time>
      </trkpt>
      <trkpt lat="49.70511" lon="0.70842">
        <ele>113</ele>
        <time>2012-05-31T13:50:03Z</time>
      </trkpt>
      <trkpt lat="49.70503" lon="0.70836">
        <ele>113</ele>
        <time>2012-05-31T13:50:11Z</time>
      </trkpt>
      <trkpt lat="49.70495" lon="0.7083">
        <ele>113</ele>
        <time>2012-05-31T13:50:18Z</time>
      </trkpt>
      <trkpt lat="49.70487" lon="0.70822">
        <ele>113</ele>
        <time>2012-05-31T13:50:26Z</time>
      </trkpt>
      <trkpt lat="49.70478" lon="0.70817">
        <ele>113</ele>
        <time>2012-05-31T13:50:34Z</time>
      </trkpt>
      <trkpt lat="49.70469" lon="0.7081">
        <ele>113</ele>
        <time>2012-05-31T13:50:42Z</time>
      </trkpt>
      <trkpt lat="49.70461" lon="0.70803">
        <ele>113</ele>
        <time>2012-05-31T13:50:50Z</time>
      </trkpt>
      <trkpt lat="49.70453" lon="0.70797">
        <ele>113</ele>
        <time>2012-05-31T13:50:58Z</time>
      </trkpt>
      <trkpt lat="49.70445" lon="0.70791">
        <ele>113</ele>
        <time>2012-05-31T13:51:06Z</time>
      </trkpt>
      <trkpt lat="49.70436" lon="0.70785">
        <ele>113</ele>
        <time>2012-05-31T13:51:14Z</time>
      </trkpt>
      <trkpt lat="49.70427" lon="0.7078">
        <ele>118</ele>
        <time>2012-05-31T13:51:22Z</time>
      </trkpt>
      <trkpt lat="49.70419" lon="0.70775">
        <ele>118</ele>
        <time>2012-05-31T13:51:30Z</time>
      </trkpt>
      <trkpt lat="49.7041" lon="0.70768">
        <ele>118</ele>
        <time>2012-05-31T13:51:38Z</time>
      </trkpt>
      <trkpt lat="49.70401" lon="0.70762">
        <ele>118</ele>
        <time>2012-05-31T13:51:46Z</time>
      </trkpt>
      <trkpt lat="49.70392" lon="0.70756">
        <ele>118</ele>
        <time>2012-05-31T13:51:54Z</time>
      </trkpt>
      <trkpt lat="49.70384" lon="0.7075">
        <ele>118</ele>
        <time>2012-05-31T13:52:02Z</time>
      </trkpt>
      <trkpt lat="49.70375" lon="0.70742">
        <ele>118</ele>
        <time>2012-05-31T13:52:10Z</time>
      </trkpt>
      <trkpt lat="49.70367" lon="0.70736">
        <ele>118</ele>
        <time>2012-05-31T13:52:18Z</time>
      </trkpt>
      <trkpt lat="49.70358" lon="0.70729">
        <ele>118</ele>
        <time>2012-05-31T13:52:26Z</time>
      </trkpt>
      <trkpt lat="49.7035" lon="0.70723">
        <ele>118</ele>
        <time>2012-05-31T13:52:34Z</time>
      </trkpt>
      <trkpt lat="49.70342" lon="0.70716">
        <ele>118</ele>
        <time>2012-05-31T13:52:42Z</time>
      </trkpt>
      <trkpt lat="49.70333" lon="0.70709">
        <ele>118</ele>
        <time>2012-05-31T13:52:50Z</time>
      </trkpt>
      <trkpt lat="49.70324" lon="0.70703">
        <ele>118</ele>
        <time>2012-05-31T13:52:59Z</time>
      </trkpt>
      <trkpt lat="49.70315" lon="0.70696">
        <ele>118</ele>
        <time>2012-05-31T13:53:08Z</time>
      </trkpt>
      <trkpt lat="49.70307" lon="0.70689">
        <ele>118</ele>
        <time>2012-05-31T13:53:16Z</time>
      </trkpt>
      <trkpt lat="49.70299" lon="0.70683">
        <ele>118</ele>
        <time>2012-05-31T13:53:24Z</time>
      </trkpt>
      <trkpt lat="49.70291" lon="0.70677">
        <ele>118</ele>
        <time>2012-05-31T13:53:32Z</time>
      </trkpt>
      <trkpt lat="49.70283" lon="0.70669">
        <ele>118</ele>
        <time>2012-05-31T13:53:40Z</time>
      </trkpt>
      <trkpt lat="49.70275" lon="0.70662">
        <ele>118</ele>
        <time>2012-05-31T13:53:48Z</time>
      </trkpt>
      <trkpt lat="49.70267" lon="0.70653">
        <ele>118</ele>
        <time>2012-05-31T13:53:57Z</time>
      </trkpt>
      <trkpt lat="49.7026" lon="0.70643">
        <ele>118</ele>
        <time>2012-05-31T13:54:06Z</time>
      </trkpt>
      <trkpt lat="49.70251" lon="0.70635">
        <ele>118</ele>
        <time>2012-05-31T13:54:15Z</time>
      </trkpt>
      <trkpt lat="49.70244" lon="0.70626">
        <ele>118</ele>
        <time>2012-05-31T13:54:24Z</time>
      </trkpt>
      <trkpt lat="49.70235" lon="0.70618">
        <ele>118</ele>
        <time>2012-05-31T13:54:34Z</time>
      </trkpt>
      <trkpt lat="49.70227" lon="0.7061">
        <ele>118</ele>
        <time>2012-05-31T13:54:43Z</time>
      </trkpt>
      <trkpt lat="49.70219" lon="0.70602">
        <ele>118</ele>
        <time>2012-05-31T13:54:53Z</time>
      </trkpt>
      <trkpt lat="49.70211" lon="0.70595">
        <ele>118</ele>
        <time>2012-05-31T13:55:02Z</time>
      </trkpt>
      <trkpt lat="49.70203" lon="0.70588">
        <ele>118</ele>
        <time>2012-05-31T13:55:12Z</time>
      </trkpt>
      <trkpt lat="49.70195" lon="0.7058">
        <ele>118</ele>
        <time>2012-05-31T13:55:21Z</time>
      </trkpt>
      <trkpt lat="49.70187" lon="0.70572">
        <ele>118</ele>
        <time>2012-05-31T13:55:30Z</time>
      </trkpt>
      <trkpt lat="49.70178" lon="0.70564">
        <ele>118</ele>
        <time>2012-05-31T13:55:39Z</time>
      </trkpt>
      <trkpt lat="49.70171" lon="0.70555">
        <ele>118</ele>
        <time>2012-05-31T13:55:48Z</time>
      </trkpt>
      <trkpt lat="49.70163" lon="0.70547">
        <ele>118</ele>
        <time>2012-05-31T13:55:58Z</time>
      </trkpt>
      <trkpt lat="49.70155" lon="0.70538">
        <ele>118</ele>
        <time>2012-05-31T13:56:07Z</time>
      </trkpt>
      <trkpt lat="49.70147" lon="0.7053">
        <ele>118</ele>
        <time>2012-05-31T13:56:17Z</time>
      </trkpt>
      <trkpt lat="49.70139" lon="0.70522">
        <ele>118</ele>
        <time>2012-05-31T13:56:25Z</time>
      </trkpt>
      <trkpt lat="49.70132" lon="0.70514">
        <ele>113</ele>
        <time>2012-05-31T13:56:33Z</time>
      </trkpt>
      <trkpt lat="49.70123" lon="0.70506">
        <ele>113</ele>
        <time>2012-05-31T13:56:42Z</time>
      </trkpt>
      <trkpt lat="49.70116" lon="0.70497">
        <ele>113</ele>
        <time>2012-05-31T13:56:50Z</time>
      </trkpt>
      <trkpt lat="49.70107" lon="0.70489">
        <ele>113</ele>
        <time>2012-05-31T13:56:59Z</time>
      </trkpt>
      <trkpt lat="49.70099" lon="0.70483">
        <ele>113</ele>
        <time>2012-05-31T13:57:07Z</time>
      </trkpt>
      <trkpt lat="49.7009" lon="0.70476">
        <ele>113</ele>
        <time>2012-05-31T13:57:14Z</time>
      </trkpt>
      <trkpt lat="49.70082" lon="0.7047">
        <ele>113</ele>
        <time>2012-05-31T13:57:23Z</time>
      </trkpt>
      <trkpt lat="49.70074" lon="0.70463">
        <ele>113</ele>
        <time>2012-05-31T13:57:34Z</time>
      </trkpt>
      <trkpt lat="49.70065" lon="0.70456">
        <ele>113</ele>
        <time>2012-05-31T13:57:43Z</time>
      </trkpt>
      <trkpt lat="49.70057" lon="0.70449">
        <ele>113</ele>
        <time>2012-05-31T13:57:52Z</time>
      </trkpt>
      <trkpt lat="49.70049" lon="0.70443">
        <ele>107</ele>
        <time>2012-05-31T13:58:00Z</time>
      </trkpt>
      <trkpt lat="49.7004" lon="0.70437">
        <ele>107</ele>
        <time>2012-05-31T13:58:08Z</time>
      </trkpt>
      <trkpt lat="49.70032" lon="0.70431">
        <ele>107</ele>
        <time>2012-05-31T13:58:16Z</time>
      </trkpt>
      <trkpt lat="49.70023" lon="0.70424">
        <ele>107</ele>
        <time>2012-05-31T13:58:24Z</time>
      </trkpt>
      <trkpt lat="49.70014" lon="0.7042">
        <ele>107</ele>
        <time>2012-05-31T13:58:32Z</time>
      </trkpt>
      <trkpt lat="49.70006" lon="0.70414">
        <ele>107</ele>
        <time>2012-05-31T13:58:40Z</time>
      </trkpt>
      <trkpt lat="49.69997" lon="0.70409">
        <ele>107</ele>
        <time>2012-05-31T13:58:48Z</time>
      </trkpt>
      <trkpt lat="49.69988" lon="0.70408">
        <ele>102</ele>
        <time>2012-05-31T13:58:57Z</time>
      </trkpt>
      <trkpt lat="49.69979" lon="0.70403">
        <ele>102</ele>
        <time>2012-05-31T13:59:07Z</time>
      </trkpt>
      <trkpt lat="49.69971" lon="0.70394">
        <ele>102</ele>
        <time>2012-05-31T13:59:15Z</time>
      </trkpt>
      <trkpt lat="49.69963" lon="0.70386">
        <ele>102</ele>
        <time>2012-05-31T13:59:25Z</time>
      </trkpt>
      <trkpt lat="49.69955" lon="0.70379">
        <ele>102</ele>
        <time>2012-05-31T14:11:56Z</time>
      </trkpt>
      <trkpt lat="49.6995" lon="0.70367">
        <ele>102</ele>
        <time>2012-05-31T14:12:04Z</time>
      </trkpt>
      <trkpt lat="49.69945" lon="0.70354">
        <ele>97</ele>
        <time>2012-05-31T14:12:12Z</time>
      </trkpt>
      <trkpt lat="49.6994" lon="0.70344">
        <ele>97</ele>
        <time>2012-05-31T14:12:20Z</time>
      </trkpt>
      <trkpt lat="49.69937" lon="0.7033">
        <ele>97</ele>
        <time>2012-05-31T14:12:29Z</time>
      </trkpt>
      <trkpt lat="49.6993" lon="0.70319">
        <ele>97</ele>
        <time>2012-05-31T14:12:37Z</time>
      </trkpt>
      <trkpt lat="49.69921" lon="0.70315">
        <ele>97</ele>
        <time>2012-05-31T14:12:44Z</time>
      </trkpt>
      <trkpt lat="49.69913" lon="0.70306">
        <ele>97</ele>
        <time>2012-05-31T14:12:50Z</time>
      </trkpt>
      <trkpt lat="49.69904" lon="0.703">
        <ele>97</ele>
        <time>2012-05-31T14:12:59Z</time>
      </trkpt>
      <trkpt lat="49.69895" lon="0.70292">
        <ele>89</ele>
        <time>2012-05-31T14:13:07Z</time>
      </trkpt>
      <trkpt lat="49.69888" lon="0.70283">
        <ele>89</ele>
        <time>2012-05-31T14:13:14Z</time>
      </trkpt>
      <trkpt lat="49.6988" lon="0.70275">
        <ele>89</ele>
        <time>2012-05-31T14:13:21Z</time>
      </trkpt>
      <trkpt lat="49.69872" lon="0.70266">
        <ele>89</ele>
        <time>2012-05-31T14:13:28Z</time>
      </trkpt>
      <trkpt lat="49.69864" lon="0.70258">
        <ele>84</ele>
        <time>2012-05-31T14:13:35Z</time>
      </trkpt>
      <trkpt lat="49.69856" lon="0.7025">
        <ele>84</ele>
        <time>2012-05-31T14:13:42Z</time>
      </trkpt>
      <trkpt lat="49.69848" lon="0.70243">
        <ele>84</ele>
        <time>2012-05-31T14:13:50Z</time>
      </trkpt>
      <trkpt lat="49.69839" lon="0.70236">
        <ele>84</ele>
        <time>2012-05-31T14:13:58Z</time>
      </trkpt>
      <trkpt lat="49.69829" lon="0.70234">
        <ele>84</ele>
        <time>2012-05-31T14:14:10Z</time>
      </trkpt>
      <trkpt lat="49.69821" lon="0.70229">
        <ele>84</ele>
        <time>2012-05-31T14:14:16Z</time>
      </trkpt>
      <trkpt lat="49.69813" lon="0.7022">
        <ele>84</ele>
        <time>2012-05-31T14:14:22Z</time>
      </trkpt>
      <trkpt lat="49.69807" lon="0.7021">
        <ele>84</ele>
        <time>2012-05-31T14:14:29Z</time>
      </trkpt>
      <trkpt lat="49.69801" lon="0.70198">
        <ele>84</ele>
        <time>2012-05-31T14:14:36Z</time>
      </trkpt>
      <trkpt lat="49.69796" lon="0.70186">
        <ele>84</ele>
        <time>2012-05-31T14:14:43Z</time>
      </trkpt>
      <trkpt lat="49.69791" lon="0.70174">
        <ele>84</ele>
        <time>2012-05-31T14:14:50Z</time>
      </trkpt>
      <trkpt lat="49.69785" lon="0.7016">
        <ele>84</ele>
        <time>2012-05-31T14:14:58Z</time>
      </trkpt>
      <trkpt lat="49.69779" lon="0.70148">
        <ele>84</ele>
        <time>2012-05-31T14:15:05Z</time>
      </trkpt>
      <trkpt lat="49.69773" lon="0.70137">
        <ele>78</ele>
        <time>2012-05-31T14:15:12Z</time>
      </trkpt>
      <trkpt lat="49.69768" lon="0.70124">
        <ele>78</ele>
        <time>2012-05-31T14:15:19Z</time>
      </trkpt>
      <trkpt lat="49.69763" lon="0.70113">
        <ele>78</ele>
        <time>2012-05-31T14:15:26Z</time>
      </trkpt>
      <trkpt lat="49.69758" lon="0.701">
        <ele>78</ele>
        <time>2012-05-31T14:15:33Z</time>
      </trkpt>
      <trkpt lat="49.69754" lon="0.70088">
        <ele>78</ele>
        <time>2012-05-31T14:15:40Z</time>
      </trkpt>
      <trkpt lat="49.69748" lon="0.70075">
        <ele>78</ele>
        <time>2012-05-31T14:15:47Z</time>
      </trkpt>
      <trkpt lat="49.69743" lon="0.70062">
        <ele>78</ele>
        <time>2012-05-31T14:15:55Z</time>
      </trkpt>
      <trkpt lat="49.6974" lon="0.70048">
        <ele>78</ele>
        <time>2012-05-31T14:16:02Z</time>
      </trkpt>
      <trkpt lat="49.69737" lon="0.70035">
        <ele>78</ele>
        <time>2012-05-31T14:16:09Z</time>
      </trkpt>
      <trkpt lat="49.69736" lon="0.7002">
        <ele>78</ele>
        <time>2012-05-31T14:16:16Z</time>
      </trkpt>
      <trkpt lat="49.69738" lon="0.70006">
        <ele>68</ele>
        <time>2012-05-31T14:16:25Z</time>
      </trkpt>
      <trkpt lat="49.69738" lon="0.6999">
        <ele>68</ele>
        <time>2012-05-31T14:16:33Z</time>
      </trkpt>
      <trkpt lat="49.69738" lon="0.69975">
        <ele>68</ele>
        <time>2012-05-31T14:16:41Z</time>
      </trkpt>
      <trkpt lat="49.69739" lon="0.69961">
        <ele>68</ele>
        <time>2012-05-31T14:16:48Z</time>
      </trkpt>
      <trkpt lat="49.69739" lon="0.69946">
        <ele>68</ele>
        <time>2012-05-31T14:17:00Z</time>
      </trkpt>
      <trkpt lat="49.6973" lon="0.69944">
        <ele>68</ele>
        <time>2012-05-31T14:17:13Z</time>
      </trkpt>
      <trkpt lat="49.6972" lon="0.69942">
        <ele>68</ele>
        <time>2012-05-31T14:17:20Z</time>
      </trkpt>
      <trkpt lat="49.69711" lon="0.69938">
        <ele>68</ele>
        <time>2012-05-31T14:17:28Z</time>
      </trkpt>
      <trkpt lat="49.69701" lon="0.69937">
        <ele>68</ele>
        <time>2012-05-31T14:17:37Z</time>
      </trkpt>
      <trkpt lat="49.69694" lon="0.69946">
        <ele>68</ele>
        <time>2012-05-31T14:17:51Z</time>
      </trkpt>
      <trkpt lat="49.69688" lon="0.69958">
        <ele>68</ele>
        <time>2012-05-31T14:18:01Z</time>
      </trkpt>
      <trkpt lat="49.69684" lon="0.69972">
        <ele>68</ele>
        <time>2012-05-31T14:18:09Z</time>
      </trkpt>
      <trkpt lat="49.69682" lon="0.69986">
        <ele>68</ele>
        <time>2012-05-31T14:18:24Z</time>
      </trkpt>
      <trkpt lat="49.69681" lon="0.7">
        <ele>68</ele>
        <time>2012-05-31T14:18:32Z</time>
      </trkpt>
      <trkpt lat="49.69679" lon="0.70015">
        <ele>68</ele>
        <time>2012-05-31T14:18:39Z</time>
      </trkpt>
      <trkpt lat="49.69676" lon="0.70028">
        <ele>68</ele>
        <time>2012-05-31T14:18:46Z</time>
      </trkpt>
      <trkpt lat="49.69675" lon="0.70043">
        <ele>68</ele>
        <time>2012-05-31T14:18:54Z</time>
      </trkpt>
      <trkpt lat="49.69673" lon="0.70057">
        <ele>68</ele>
        <time>2012-05-31T14:19:02Z</time>
      </trkpt>
      <trkpt lat="49.69673" lon="0.70072">
        <ele>68</ele>
        <time>2012-05-31T14:19:10Z</time>
      </trkpt>
      <trkpt lat="49.69671" lon="0.70088">
        <ele>68</ele>
        <time>2012-05-31T14:19:18Z</time>
      </trkpt>
      <trkpt lat="49.6967" lon="0.70103">
        <ele>68</ele>
        <time>2012-05-31T14:19:26Z</time>
      </trkpt>
      <trkpt lat="49.69669" lon="0.70117">
        <ele>68</ele>
        <time>2012-05-31T14:19:34Z</time>
      </trkpt>
      <trkpt lat="49.69663" lon="0.70128">
        <ele>68</ele>
        <time>2012-05-31T14:19:41Z</time>
      </trkpt>
      <trkpt lat="49.69656" lon="0.70138">
        <ele>68</ele>
        <time>2012-05-31T14:19:49Z</time>
      </trkpt>
      <trkpt lat="49.69646" lon="0.70137">
        <ele>68</ele>
        <time>2012-05-31T14:19:56Z</time>
      </trkpt>
      <trkpt lat="49.69638" lon="0.70133">
        <ele>68</ele>
        <time>2012-05-31T14:20:06Z</time>
      </trkpt>
      <trkpt lat="49.69628" lon="0.70133">
        <ele>68</ele>
        <time>2012-05-31T14:20:24Z</time>
      </trkpt>
      <trkpt lat="49.69619" lon="0.70131">
        <ele>68</ele>
        <time>2012-05-31T14:20:32Z</time>
      </trkpt>
      <trkpt lat="49.6961" lon="0.70127">
        <ele>68</ele>
        <time>2012-05-31T14:20:41Z</time>
      </trkpt>
      <trkpt lat="49.69606" lon="0.70114">
        <ele>68</ele>
        <time>2012-05-31T14:20:49Z</time>
      </trkpt>
      <trkpt lat="49.69607" lon="0.70099">
        <ele>68</ele>
        <time>2012-05-31T14:20:58Z</time>
      </trkpt>
      <trkpt lat="49.6961" lon="0.70086">
        <ele>68</ele>
        <time>2012-05-31T14:21:05Z</time>
      </trkpt>
      <trkpt lat="49.69612" lon="0.70071">
        <ele>68</ele>
        <time>2012-05-31T14:21:13Z</time>
      </trkpt>
      <trkpt lat="49.69613" lon="0.70056">
        <ele>68</ele>
        <time>2012-05-31T14:21:22Z</time>
      </trkpt>
      <trkpt lat="49.69614" lon="0.70042">
        <ele>68</ele>
        <time>2012-05-31T14:21:30Z</time>
      </trkpt>
      <trkpt lat="49.69617" lon="0.70027">
        <ele>68</ele>
        <time>2012-05-31T14:21:37Z</time>
      </trkpt>
      <trkpt lat="49.69619" lon="0.70012">
        <ele>68</ele>
        <time>2012-05-31T14:21:45Z</time>
      </trkpt>
      <trkpt lat="49.69615" lon="0.69998">
        <ele>68</ele>
        <time>2012-05-31T14:21:53Z</time>
      </trkpt>
      <trkpt lat="49.69606" lon="0.69992">
        <ele>68</ele>
        <time>2012-05-31T14:22:01Z</time>
      </trkpt>
      <trkpt lat="49.69597" lon="0.6999">
        <ele>68</ele>
        <time>2012-05-31T14:22:18Z</time>
      </trkpt>
      <trkpt lat="49.69588" lon="0.69986">
        <ele>68</ele>
        <time>2012-05-31T14:22:26Z</time>
      </trkpt>
      <trkpt lat="49.69579" lon="0.69982">
        <ele>68</ele>
        <time>2012-05-31T14:22:40Z</time>
      </trkpt>
      <trkpt lat="49.6957" lon="0.69976">
        <ele>68</ele>
        <time>2012-05-31T14:22:48Z</time>
      </trkpt>
      <trkpt lat="49.69561" lon="0.69968">
        <ele>68</ele>
        <time>2012-05-31T14:22:56Z</time>
      </trkpt>
      <trkpt lat="49.69552" lon="0.69962">
        <ele>68</ele>
        <time>2012-05-31T14:23:09Z</time>
      </trkpt>
      <trkpt lat="49.69543" lon="0.69955">
        <ele>68</ele>
        <time>2012-05-31T14:23:17Z</time>
      </trkpt>
      <trkpt lat="49.69535" lon="0.69948">
        <ele>68</ele>
        <time>2012-05-31T14:23:25Z</time>
      </trkpt>
      <trkpt lat="49.69527" lon="0.6994">
        <ele>68</ele>
        <time>2012-05-31T14:23:33Z</time>
      </trkpt>
      <trkpt lat="49.69518" lon="0.69936">
        <ele>68</ele>
        <time>2012-05-31T14:23:41Z</time>
      </trkpt>
      <trkpt lat="49.6951" lon="0.69931">
        <ele>68</ele>
        <time>2012-05-31T14:23:50Z</time>
      </trkpt>
      <trkpt lat="49.69501" lon="0.69925">
        <ele>68</ele>
        <time>2012-05-31T14:23:59Z</time>
      </trkpt>
      <trkpt lat="49.69491" lon="0.6992">
        <ele>68</ele>
        <time>2012-05-31T14:24:07Z</time>
      </trkpt>
      <trkpt lat="49.69482" lon="0.69915">
        <ele>68</ele>
        <time>2012-05-31T14:24:15Z</time>
      </trkpt>
      <trkpt lat="49.69473" lon="0.69911">
        <ele>68</ele>
        <time>2012-05-31T14:24:22Z</time>
      </trkpt>
      <trkpt lat="49.69465" lon="0.69904">
        <ele>68</ele>
        <time>2012-05-31T14:24:30Z</time>
      </trkpt>
      <trkpt lat="49.69457" lon="0.69897">
        <ele>68</ele>
        <time>2012-05-31T14:24:37Z</time>
      </trkpt>
      <trkpt lat="49.6945" lon="0.69887">
        <ele>68</ele>
        <time>2012-05-31T14:24:46Z</time>
      </trkpt>
      <trkpt lat="49.69442" lon="0.69879">
        <ele>68</ele>
        <time>2012-05-31T14:24:54Z</time>
      </trkpt>
      <trkpt lat="49.69434" lon="0.69871">
        <ele>68</ele>
        <time>2012-05-31T14:25:01Z</time>
      </trkpt>
      <trkpt lat="49.69427" lon="0.69862">
        <ele>73</ele>
        <time>2012-05-31T14:25:08Z</time>
      </trkpt>
      <trkpt lat="49.69422" lon="0.69849">
        <ele>73</ele>
        <time>2012-05-31T14:25:20Z</time>
      </trkpt>
      <trkpt lat="49.69416" lon="0.69838">
        <ele>73</ele>
        <time>2012-05-31T14:25:29Z</time>
      </trkpt>
      <trkpt lat="49.69409" lon="0.69827">
        <ele>73</ele>
        <time>2012-05-31T14:25:36Z</time>
      </trkpt>
      <trkpt lat="49.69401" lon="0.69817">
        <ele>68</ele>
        <time>2012-05-31T14:25:44Z</time>
      </trkpt>
      <trkpt lat="49.69393" lon="0.69809">
        <ele>68</ele>
        <time>2012-05-31T14:25:53Z</time>
      </trkpt>
      <trkpt lat="49.69384" lon="0.69804">
        <ele>68</ele>
        <time>2012-05-31T14:26:02Z</time>
      </trkpt>
      <trkpt lat="49.69376" lon="0.69796">
        <ele>68</ele>
        <time>2012-05-31T14:26:12Z</time>
      </trkpt>
      <trkpt lat="49.69367" lon="0.6979">
        <ele>68</ele>
        <time>2012-05-31T14:26:22Z</time>
      </trkpt>
      <trkpt lat="49.69357" lon="0.69784">
        <ele>74</ele>
        <time>2012-05-31T14:26:32Z</time>
      </trkpt>
      <trkpt lat="49.69349" lon="0.69777">
        <ele>74</ele>
        <time>2012-05-31T14:26:40Z</time>
      </trkpt>
      <trkpt lat="49.69341" lon="0.6977">
        <ele>74</ele>
        <time>2012-05-31T14:26:50Z</time>
      </trkpt>
      <trkpt lat="49.69332" lon="0.69764">
        <ele>74</ele>
        <time>2012-05-31T14:26:59Z</time>
      </trkpt>
      <trkpt lat="49.69324" lon="0.69758">
        <ele>83</ele>
        <time>2012-05-31T14:27:10Z</time>
      </trkpt>
      <trkpt lat="49.69315" lon="0.69752">
        <ele>83</ele>
        <time>2012-05-31T14:27:21Z</time>
      </trkpt>
      <trkpt lat="49.69304" lon="0.6975">
        <ele>83</ele>
        <time>2012-05-31T14:27:31Z</time>
      </trkpt>
      <trkpt lat="49.69295" lon="0.69741">
        <ele>83</ele>
        <time>2012-05-31T14:27:42Z</time>
      </trkpt>
      <trkpt lat="49.69286" lon="0.69734">
        <ele>83</ele>
        <time>2012-05-31T14:27:52Z</time>
      </trkpt>
      <trkpt lat="49.69276" lon="0.69728">
        <ele>83</ele>
        <time>2012-05-31T14:28:03Z</time>
      </trkpt>
      <trkpt lat="49.69267" lon="0.69722">
        <ele>83</ele>
        <time>2012-05-31T14:28:12Z</time>
      </trkpt>
      <trkpt lat="49.69258" lon="0.69717">
        <ele>83</ele>
        <time>2012-05-31T14:28:22Z</time>
      </trkpt>
      <trkpt lat="49.69249" lon="0.69715">
        <ele>83</ele>
        <time>2012-05-31T14:28:34Z</time>
      </trkpt>
      <trkpt lat="49.6924" lon="0.69711">
        <ele>83</ele>
        <time>2012-05-31T14:28:44Z</time>
      </trkpt>
      <trkpt lat="49.69231" lon="0.69707">
        <ele>90</ele>
        <time>2012-05-31T14:28:54Z</time>
      </trkpt>
      <trkpt lat="49.69222" lon="0.69703">
        <ele>90</ele>
        <time>2012-05-31T14:29:06Z</time>
      </trkpt>
      <trkpt lat="49.69214" lon="0.69695">
        <ele>90</ele>
        <time>2012-05-31T14:29:16Z</time>
      </trkpt>
      <trkpt lat="49.69205" lon="0.69688">
        <ele>90</ele>
        <time>2012-05-31T14:29:24Z</time>
      </trkpt>
      <trkpt lat="49.69198" lon="0.6968">
        <ele>90</ele>
        <time>2012-05-31T14:29:34Z</time>
      </trkpt>
      <trkpt lat="49.6919" lon="0.69673">
        <ele>90</ele>
        <time>2012-05-31T14:29:44Z</time>
      </trkpt>
      <trkpt lat="49.6918" lon="0.69667">
        <ele>96</ele>
        <time>2012-05-31T14:29:56Z</time>
      </trkpt>
      <trkpt lat="49.69171" lon="0.69662">
        <ele>96</ele>
        <time>2012-05-31T14:30:08Z</time>
      </trkpt>
      <trkpt lat="49.69163" lon="0.69655">
        <ele>96</ele>
        <time>2012-05-31T14:30:19Z</time>
      </trkpt>
      <trkpt lat="49.69157" lon="0.69643">
        <ele>103</ele>
        <time>2012-05-31T14:30:28Z</time>
      </trkpt>
      <trkpt lat="49.69153" lon="0.69629">
        <ele>103</ele>
        <time>2012-05-31T14:30:38Z</time>
      </trkpt>
      <trkpt lat="49.69148" lon="0.69617">
        <ele>103</ele>
        <time>2012-05-31T14:30:48Z</time>
      </trkpt>
      <trkpt lat="49.69142" lon="0.69604">
        <ele>103</ele>
        <time>2012-05-31T14:30:58Z</time>
      </trkpt>
      <trkpt lat="49.69134" lon="0.69598">
        <ele>103</ele>
        <time>2012-05-31T14:31:06Z</time>
      </trkpt>
      <trkpt lat="49.69127" lon="0.69586">
        <ele>103</ele>
        <time>2012-05-31T14:31:14Z</time>
      </trkpt>
      <trkpt lat="49.6912" lon="0.69576">
        <ele>103</ele>
        <time>2012-05-31T14:31:22Z</time>
      </trkpt>
      <trkpt lat="49.69112" lon="0.69567">
        <ele>103</ele>
        <time>2012-05-31T14:31:32Z</time>
      </trkpt>
      <trkpt lat="49.69104" lon="0.6956">
        <ele>103</ele>
        <time>2012-05-31T14:31:41Z</time>
      </trkpt>
      <trkpt lat="49.69096" lon="0.69554">
        <ele>103</ele>
        <time>2012-05-31T14:31:47Z</time>
      </trkpt>
      <trkpt lat="49.69087" lon="0.69548">
        <ele>103</ele>
        <time>2012-05-31T14:31:56Z</time>
      </trkpt>
      <trkpt lat="49.69078" lon="0.69541">
        <ele>110</ele>
        <time>2012-05-31T14:32:06Z</time>
      </trkpt>
      <trkpt lat="49.69069" lon="0.69538">
        <ele>110</ele>
        <time>2012-05-31T14:32:15Z</time>
      </trkpt>
      <trkpt lat="49.6906" lon="0.69536">
        <ele>110</ele>
        <time>2012-05-31T14:32:21Z</time>
      </trkpt>
      <trkpt lat="49.6905" lon="0.69533">
        <ele>110</ele>
        <time>2012-05-31T14:32:30Z</time>
      </trkpt>
      <trkpt lat="49.69041" lon="0.69534">
        <ele>110</ele>
        <time>2012-05-31T14:32:39Z</time>
      </trkpt>
      <trkpt lat="49.69031" lon="0.69531">
        <ele>110</ele>
        <time>2012-05-31T14:32:49Z</time>
      </trkpt>
      <trkpt lat="49.69022" lon="0.6953">
        <ele>110</ele>
        <time>2012-05-31T14:32:59Z</time>
      </trkpt>
      <trkpt lat="49.69012" lon="0.6953">
        <ele>110</ele>
        <time>2012-05-31T14:33:12Z</time>
      </trkpt>
      <trkpt lat="49.69003" lon="0.69529">
        <ele>110</ele>
        <time>2012-05-31T14:33:20Z</time>
      </trkpt>
      <trkpt lat="49.68993" lon="0.69525">
        <ele>110</ele>
        <time>2012-05-31T14:33:28Z</time>
      </trkpt>
      <trkpt lat="49.68984" lon="0.69522">
        <ele>110</ele>
        <time>2012-05-31T14:33:37Z</time>
      </trkpt>
      <trkpt lat="49.68975" lon="0.6952">
        <ele>110</ele>
        <time>2012-05-31T14:33:48Z</time>
      </trkpt>
      <trkpt lat="49.68965" lon="0.69522">
        <ele>115</ele>
        <time>2012-05-31T14:33:58Z</time>
      </trkpt>
      <trkpt lat="49.68957" lon="0.69525">
        <ele>115</ele>
        <time>2012-05-31T14:34:06Z</time>
      </trkpt>
      <trkpt lat="49.68947" lon="0.69525">
        <ele>115</ele>
        <time>2012-05-31T14:34:16Z</time>
      </trkpt>
      <trkpt lat="49.68938" lon="0.69521">
        <ele>115</ele>
        <time>2012-05-31T14:34:25Z</time>
      </trkpt>
      <trkpt lat="49.68931" lon="0.69511">
        <ele>115</ele>
        <time>2012-05-31T14:34:32Z</time>
      </trkpt>
      <trkpt lat="49.68923" lon="0.69502">
        <ele>115</ele>
        <time>2012-05-31T14:34:44Z</time>
      </trkpt>
      <trkpt lat="49.68913" lon="0.69498">
        <ele>115</ele>
        <time>2012-05-31T14:34:54Z</time>
      </trkpt>
      <trkpt lat="49.68904" lon="0.69497">
        <ele>115</ele>
        <time>2012-05-31T14:35:02Z</time>
      </trkpt>
      <trkpt lat="49.68894" lon="0.69496">
        <ele>115</ele>
        <time>2012-05-31T14:35:10Z</time>
      </trkpt>
      <trkpt lat="49.68884" lon="0.69492">
        <ele>115</ele>
        <time>2012-05-31T14:35:16Z</time>
      </trkpt>
      <trkpt lat="49.68875" lon="0.69491">
        <ele>115</ele>
        <time>2012-05-31T14:35:24Z</time>
      </trkpt>
      <trkpt lat="49.68866" lon="0.69495">
        <ele>115</ele>
        <time>2012-05-31T14:35:33Z</time>
      </trkpt>
      <trkpt lat="49.68856" lon="0.69495">
        <ele>115</ele>
        <time>2012-05-31T14:35:40Z</time>
      </trkpt>
      <trkpt lat="49.68847" lon="0.69498">
        <ele>115</ele>
        <time>2012-05-31T14:35:48Z</time>
      </trkpt>
      <trkpt lat="49.68838" lon="0.69498">
        <ele>115</ele>
        <time>2012-05-31T14:35:58Z</time>
      </trkpt>
      <trkpt lat="49.68828" lon="0.695">
        <ele>115</ele>
        <time>2012-05-31T14:36:07Z</time>
      </trkpt>
      <trkpt lat="49.68819" lon="0.69503">
        <ele>115</ele>
        <time>2012-05-31T14:36:16Z</time>
      </trkpt>
      <trkpt lat="49.6881" lon="0.69505">
        <ele>115</ele>
        <time>2012-05-31T14:36:23Z</time>
      </trkpt>
      <trkpt lat="49.688" lon="0.69506">
        <ele>115</ele>
        <time>2012-05-31T14:36:35Z</time>
      </trkpt>
      <trkpt lat="49.68791" lon="0.69508">
        <ele>115</ele>
        <time>2012-05-31T14:36:48Z</time>
      </trkpt>
      <trkpt lat="49.68782" lon="0.69513">
        <ele>115</ele>
        <time>2012-05-31T14:36:56Z</time>
      </trkpt>
      <trkpt lat="49.68772" lon="0.69517">
        <ele>115</ele>
        <time>2012-05-31T14:37:05Z</time>
      </trkpt>
      <trkpt lat="49.68764" lon="0.69521">
        <ele>115</ele>
        <time>2012-05-31T14:37:13Z</time>
      </trkpt>
      <trkpt lat="49.68753" lon="0.69518">
        <ele>115</ele>
        <time>2012-05-31T14:37:20Z</time>
      </trkpt>
      <trkpt lat="49.68744" lon="0.69522">
        <ele>115</ele>
        <time>2012-05-31T14:37:28Z</time>
      </trkpt>
      <trkpt lat="49.68734" lon="0.69527">
        <ele>115</ele>
        <time>2012-05-31T14:37:35Z</time>
      </trkpt>
      <trkpt lat="49.68726" lon="0.69536">
        <ele>115</ele>
        <time>2012-05-31T14:37:44Z</time>
      </trkpt>
      <trkpt lat="49.68717" lon="0.69541">
        <ele>115</ele>
        <time>2012-05-31T14:37:52Z</time>
      </trkpt>
      <trkpt lat="49.68708" lon="0.69547">
        <ele>121</ele>
        <time>2012-05-31T14:38:02Z</time>
      </trkpt>
      <trkpt lat="49.68701" lon="0.69556">
        <ele>121</ele>
        <time>2012-05-31T14:38:09Z</time>
      </trkpt>
      <trkpt lat="49.68695" lon="0.69566">
        <ele>121</ele>
        <time>2012-05-31T14:38:17Z</time>
      </trkpt>
      <trkpt lat="49.68687" lon="0.69574">
        <ele>121</ele>
        <time>2012-05-31T14:38:24Z</time>
      </trkpt>
      <trkpt lat="49.6868" lon="0.69583">
        <ele>116</ele>
        <time>2012-05-31T14:38:31Z</time>
      </trkpt>
      <trkpt lat="49.68672" lon="0.69589">
        <ele>116</ele>
        <time>2012-05-31T14:38:39Z</time>
      </trkpt>
      <trkpt lat="49.68665" lon="0.69601">
        <ele>116</ele>
        <time>2012-05-31T14:38:49Z</time>
      </trkpt>
      <trkpt lat="49.68659" lon="0.69612">
        <ele>116</ele>
        <time>2012-05-31T14:39:00Z</time>
      </trkpt>
      <trkpt lat="49.68652" lon="0.69623">
        <ele>116</ele>
        <time>2012-05-31T14:39:06Z</time>
      </trkpt>
      <trkpt lat="49.68645" lon="0.69633">
        <ele>116</ele>
        <time>2012-05-31T14:39:16Z</time>
      </trkpt>
      <trkpt lat="49.68638" lon="0.69642">
        <ele>116</ele>
        <time>2012-05-31T14:39:24Z</time>
      </trkpt>
      <trkpt lat="49.68636" lon="0.69655">
        <ele>116</ele>
        <time>2012-05-31T14:39:33Z</time>
      </trkpt>
      <trkpt lat="49.68634" lon="0.69669">
        <ele>116</ele>
        <time>2012-05-31T14:39:43Z</time>
      </trkpt>
      <trkpt lat="49.68635" lon="0.69683">
        <ele>116</ele>
        <time>2012-05-31T14:39:52Z</time>
      </trkpt>
      <trkpt lat="49.68638" lon="0.69698">
        <ele>116</ele>
        <time>2012-05-31T14:40:02Z</time>
      </trkpt>
      <trkpt lat="49.68637" lon="0.69713">
        <ele>121</ele>
        <time>2012-05-31T14:40:14Z</time>
      </trkpt>
      <trkpt lat="49.68639" lon="0.69726">
        <ele>121</ele>
        <time>2012-05-31T14:40:24Z</time>
      </trkpt>
      <trkpt lat="49.68641" lon="0.69741">
        <ele>121</ele>
        <time>2012-05-31T14:40:34Z</time>
      </trkpt>
      <trkpt lat="49.68644" lon="0.69755">
        <ele>121</ele>
        <time>2012-05-31T14:40:42Z</time>
      </trkpt>
      <trkpt lat="49.68642" lon="0.6977">
        <ele>127</ele>
        <time>2012-05-31T14:40:51Z</time>
      </trkpt>
      <trkpt lat="49.68639" lon="0.69784">
        <ele>127</ele>
        <time>2012-05-31T14:40:59Z</time>
      </trkpt>
      <trkpt lat="49.68638" lon="0.69798">
        <ele>127</ele>
        <time>2012-05-31T14:41:09Z</time>
      </trkpt>
      <trkpt lat="49.68637" lon="0.69813">
        <ele>127</ele>
        <time>2012-05-31T14:41:18Z</time>
      </trkpt>
      <trkpt lat="49.68631" lon="0.69824">
        <ele>127</ele>
        <time>2012-05-31T14:41:31Z</time>
      </trkpt>
      <trkpt lat="49.68621" lon="0.69823">
        <ele>121</ele>
        <time>2012-05-31T14:41:53Z</time>
      </trkpt>
      <trkpt lat="49.68613" lon="0.69818">
        <ele>129</ele>
        <time>2012-05-31T14:42:26Z</time>
      </trkpt>
      <trkpt lat="49.68603" lon="0.69815">
        <ele>129</ele>
        <time>2012-05-31T14:42:43Z</time>
      </trkpt>
      <trkpt lat="49.68593" lon="0.69815">
        <ele>129</ele>
        <time>2012-05-31T14:42:52Z</time>
      </trkpt>
      <trkpt lat="49.68584" lon="0.69813">
        <ele>123</ele>
        <time>2012-05-31T14:43:00Z</time>
      </trkpt>
      <trkpt lat="49.68575" lon="0.6981">
        <ele>123</ele>
        <time>2012-05-31T14:43:13Z</time>
      </trkpt>
      <trkpt lat="49.68565" lon="0.69807">
        <ele>123</ele>
        <time>2012-05-31T14:43:21Z</time>
      </trkpt>
      <trkpt lat="49.68556" lon="0.69805">
        <ele>123</ele>
        <time>2012-05-31T14:43:28Z</time>
      </trkpt>
      <trkpt lat="49.68546" lon="0.69802">
        <ele>123</ele>
        <time>2012-05-31T14:43:36Z</time>
      </trkpt>
      <trkpt lat="49.68536" lon="0.69801">
        <ele>123</ele>
        <time>2012-05-31T14:43:44Z</time>
      </trkpt>
      <trkpt lat="49.68526" lon="0.69799">
        <ele>123</ele>
        <time>2012-05-31T14:43:52Z</time>
      </trkpt>
      <trkpt lat="49.68516" lon="0.69797">
        <ele>123</ele>
        <time>2012-05-31T14:43:59Z</time>
      </trkpt>
      <trkpt lat="49.68507" lon="0.69796">
        <ele>123</ele>
        <time>2012-05-31T14:44:07Z</time>
      </trkpt>
      <trkpt lat="49.68497" lon="0.69795">
        <ele>123</ele>
        <time>2012-05-31T14:44:14Z</time>
      </trkpt>
      <trkpt lat="49.68487" lon="0.69793">
        <ele>123</ele>
        <time>2012-05-31T14:44:22Z</time>
      </trkpt>
      <trkpt lat="49.68478" lon="0.69793">
        <ele>123</ele>
        <time>2012-05-31T14:44:30Z</time>
      </trkpt>
      <trkpt lat="49.68468" lon="0.69794">
        <ele>123</ele>
        <time>2012-05-31T14:44:38Z</time>
      </trkpt>
      <trkpt lat="49.68458" lon="0.69792">
        <ele>123</ele>
        <time>2012-05-31T14:44:47Z</time>
      </trkpt>
      <trkpt lat="49.68448" lon="0.6979">
        <ele>123</ele>
        <time>2012-05-31T14:44:55Z</time>
      </trkpt>
      <trkpt lat="49.68438" lon="0.69789">
        <ele>123</ele>
        <time>2012-05-31T14:45:03Z</time>
      </trkpt>
      <trkpt lat="49.68429" lon="0.69787">
        <ele>123</ele>
        <time>2012-05-31T14:45:11Z</time>
      </trkpt>
      <trkpt lat="49.68419" lon="0.69787">
        <ele>123</ele>
        <time>2012-05-31T14:45:19Z</time>
      </trkpt>
      <trkpt lat="49.6841" lon="0.69785">
        <ele>123</ele>
        <time>2012-05-31T14:45:27Z</time>
      </trkpt>
      <trkpt lat="49.684" lon="0.69783">
        <ele>123</ele>
        <time>2012-05-31T14:45:35Z</time>
      </trkpt>
      <trkpt lat="49.68391" lon="0.69782">
        <ele>123</ele>
        <time>2012-05-31T14:45:43Z</time>
      </trkpt>
      <trkpt lat="49.68381" lon="0.6978">
        <ele>123</ele>
        <time>2012-05-31T14:45:51Z</time>
      </trkpt>
      <trkpt lat="49.68372" lon="0.69779">
        <ele>123</ele>
        <time>2012-05-31T14:45:59Z</time>
      </trkpt>
      <trkpt lat="49.68362" lon="0.69778">
        <ele>123</ele>
        <time>2012-05-31T14:46:07Z</time>
      </trkpt>
      <trkpt lat="49.68352" lon="0.69778">
        <ele>123</ele>
        <time>2012-05-31T14:46:15Z</time>
      </trkpt>
      <trkpt lat="49.68343" lon="0.69775">
        <ele>123</ele>
        <time>2012-05-31T14:46:23Z</time>
      </trkpt>
      <trkpt lat="49.68333" lon="0.69774">
        <ele>123</ele>
        <time>2012-05-31T14:46:31Z</time>
      </trkpt>
      <trkpt lat="49.68324" lon="0.69773">
        <ele>123</ele>
        <time>2012-05-31T14:46:39Z</time>
      </trkpt>
      <trkpt lat="49.68314" lon="0.69771">
        <ele>123</ele>
        <time>2012-05-31T14:46:47Z</time>
      </trkpt>
      <trkpt lat="49.68304" lon="0.6977">
        <ele>123</ele>
        <time>2012-05-31T14:46:55Z</time>
      </trkpt>
      <trkpt lat="49.68294" lon="0.69769">
        <ele>123</ele>
        <time>2012-05-31T14:47:03Z</time>
      </trkpt>
      <trkpt lat="49.68285" lon="0.69768">
        <ele>123</ele>
        <time>2012-05-31T14:47:11Z</time>
      </trkpt>
      <trkpt lat="49.68275" lon="0.69767">
        <ele>123</ele>
        <time>2012-05-31T14:47:19Z</time>
      </trkpt>
      <trkpt lat="49.68265" lon="0.69765">
        <ele>123</ele>
        <time>2012-05-31T14:47:27Z</time>
      </trkpt>
      <trkpt lat="49.68256" lon="0.69764">
        <ele>123</ele>
        <time>2012-05-31T14:47:35Z</time>
      </trkpt>
      <trkpt lat="49.68246" lon="0.69762">
        <ele>123</ele>
        <time>2012-05-31T14:47:44Z</time>
      </trkpt>
      <trkpt lat="49.68237" lon="0.69761">
        <ele>123</ele>
        <time>2012-05-31T14:47:52Z</time>
      </trkpt>
      <trkpt lat="49.68227" lon="0.6976">
        <ele>123</ele>
        <time>2012-05-31T14:48:00Z</time>
      </trkpt>
      <trkpt lat="49.68218" lon="0.69759">
        <ele>123</ele>
        <time>2012-05-31T14:48:08Z</time>
      </trkpt>
      <trkpt lat="49.68208" lon="0.69757">
        <ele>123</ele>
        <time>2012-05-31T14:48:17Z</time>
      </trkpt>
      <trkpt lat="49.68199" lon="0.69756">
        <ele>123</ele>
        <time>2012-05-31T14:48:25Z</time>
      </trkpt>
      <trkpt lat="49.6819" lon="0.69755">
        <ele>123</ele>
        <time>2012-05-31T14:48:33Z</time>
      </trkpt>
      <trkpt lat="49.6818" lon="0.69754">
        <ele>123</ele>
        <time>2012-05-31T14:48:41Z</time>
      </trkpt>
      <trkpt lat="49.68171" lon="0.69752">
        <ele>123</ele>
        <time>2012-05-31T14:48:49Z</time>
      </trkpt>
      <trkpt lat="49.68162" lon="0.69752">
        <ele>123</ele>
        <time>2012-05-31T14:48:57Z</time>
      </trkpt>
      <trkpt lat="49.68152" lon="0.69751">
        <ele>123</ele>
        <time>2012-05-31T14:49:05Z</time>
      </trkpt>
      <trkpt lat="49.68142" lon="0.69749">
        <ele>123</ele>
        <time>2012-05-31T14:49:13Z</time>
      </trkpt>
      <trkpt lat="49.68132" lon="0.69748">
        <ele>123</ele>
        <time>2012-05-31T14:49:21Z</time>
      </trkpt>
      <trkpt lat="49.68123" lon="0.69746">
        <ele>123</ele>
        <time>2012-05-31T14:49:29Z</time>
      </trkpt>
      <trkpt lat="49.68114" lon="0.69745">
        <ele>123</ele>
        <time>2012-05-31T14:49:37Z</time>
      </trkpt>
      <trkpt lat="49.68103" lon="0.69743">
        <ele>123</ele>
        <time>2012-05-31T14:49:46Z</time>
      </trkpt>
      <trkpt lat="49.68094" lon="0.69743">
        <ele>123</ele>
        <time>2012-05-31T14:49:54Z</time>
      </trkpt>
      <trkpt lat="49.68085" lon="0.69741">
        <ele>123</ele>
        <time>2012-05-31T14:50:02Z</time>
      </trkpt>
      <trkpt lat="49.68075" lon="0.69739">
        <ele>123</ele>
        <time>2012-05-31T14:50:10Z</time>
      </trkpt>
      <trkpt lat="49.68066" lon="0.69738">
        <ele>123</ele>
        <time>2012-05-31T14:50:18Z</time>
      </trkpt>
      <trkpt lat="49.68057" lon="0.69737">
        <ele>123</ele>
        <time>2012-05-31T14:50:26Z</time>
      </trkpt>
      <trkpt lat="49.68047" lon="0.69735">
        <ele>123</ele>
        <time>2012-05-31T14:50:34Z</time>
      </trkpt>
      <trkpt lat="49.68037" lon="0.69734">
        <ele>123</ele>
        <time>2012-05-31T14:50:42Z</time>
      </trkpt>
      <trkpt lat="49.68027" lon="0.69732">
        <ele>123</ele>
        <time>2012-05-31T14:50:50Z</time>
      </trkpt>
      <trkpt lat="49.68018" lon="0.69731">
        <ele>123</ele>
        <time>2012-05-31T14:50:58Z</time>
      </trkpt>
      <trkpt lat="49.68008" lon="0.6973">
        <ele>123</ele>
        <time>2012-05-31T14:51:06Z</time>
      </trkpt>
      <trkpt lat="49.67999" lon="0.6973">
        <ele>123</ele>
        <time>2012-05-31T14:51:14Z</time>
      </trkpt>
      <trkpt lat="49.67989" lon="0.6973">
        <ele>123</ele>
        <time>2012-05-31T14:51:22Z</time>
      </trkpt>
      <trkpt lat="49.67979" lon="0.6973">
        <ele>123</ele>
        <time>2012-05-31T14:51:30Z</time>
      </trkpt>
      <trkpt lat="49.67969" lon="0.69731">
        <ele>123</ele>
        <time>2012-05-31T14:51:38Z</time>
      </trkpt>
      <trkpt lat="49.6796" lon="0.69731">
        <ele>123</ele>
        <time>2012-05-31T14:51:45Z</time>
      </trkpt>
      <trkpt lat="49.6795" lon="0.69732">
        <ele>123</ele>
        <time>2012-05-31T14:51:53Z</time>
      </trkpt>
      <trkpt lat="49.6794" lon="0.69732">
        <ele>123</ele>
        <time>2012-05-31T14:52:01Z</time>
      </trkpt>
      <trkpt lat="49.6793" lon="0.69733">
        <ele>123</ele>
        <time>2012-05-31T14:52:09Z</time>
      </trkpt>
      <trkpt lat="49.6792" lon="0.69734">
        <ele>123</ele>
        <time>2012-05-31T14:52:17Z</time>
      </trkpt>
      <trkpt lat="49.6791" lon="0.69734">
        <ele>123</ele>
        <time>2012-05-31T14:52:25Z</time>
      </trkpt>
      <trkpt lat="49.67901" lon="0.69735">
        <ele>123</ele>
        <time>2012-05-31T14:52:32Z</time>
      </trkpt>
      <trkpt lat="49.67891" lon="0.69736">
        <ele>123</ele>
        <time>2012-05-31T14:52:40Z</time>
      </trkpt>
      <trkpt lat="49.67881" lon="0.69737">
        <ele>123</ele>
        <time>2012-05-31T14:52:48Z</time>
      </trkpt>
      <trkpt lat="49.67871" lon="0.69738">
        <ele>123</ele>
        <time>2012-05-31T14:52:56Z</time>
      </trkpt>
      <trkpt lat="49.67861" lon="0.69738">
        <ele>123</ele>
        <time>2012-05-31T14:53:04Z</time>
      </trkpt>
      <trkpt lat="49.67851" lon="0.69739">
        <ele>123</ele>
        <time>2012-05-31T14:53:12Z</time>
      </trkpt>
      <trkpt lat="49.67841" lon="0.69739">
        <ele>123</ele>
        <time>2012-05-31T14:53:20Z</time>
      </trkpt>
      <trkpt lat="49.67832" lon="0.6974">
        <ele>123</ele>
        <time>2012-05-31T14:53:28Z</time>
      </trkpt>
      <trkpt lat="49.67822" lon="0.69741">
        <ele>123</ele>
        <time>2012-05-31T14:53:37Z</time>
      </trkpt>
      <trkpt lat="49.67812" lon="0.69742">
        <ele>123</ele>
        <time>2012-05-31T14:53:45Z</time>
      </trkpt>
      <trkpt lat="49.67803" lon="0.69743">
        <ele>123</ele>
        <time>2012-05-31T14:53:54Z</time>
      </trkpt>
      <trkpt lat="49.67795" lon="0.69734">
        <ele>123</ele>
        <time>2012-05-31T14:54:10Z</time>
      </trkpt>
      <trkpt lat="49.67797" lon="0.69719">
        <ele>123</ele>
        <time>2012-05-31T14:54:18Z</time>
      </trkpt>
      <trkpt lat="49.67797" lon="0.69704">
        <ele>123</ele>
        <time>2012-05-31T14:54:26Z</time>
      </trkpt>
      <trkpt lat="49.67797" lon="0.6969">
        <ele>123</ele>
        <time>2012-05-31T14:54:34Z</time>
      </trkpt>
      <trkpt lat="49.67798" lon="0.69674">
        <ele>123</ele>
        <time>2012-05-31T14:54:42Z</time>
      </trkpt>
      <trkpt lat="49.67798" lon="0.69658">
        <ele>123</ele>
        <time>2012-05-31T14:54:50Z</time>
      </trkpt>
      <trkpt lat="49.67798" lon="0.69644">
        <ele>123</ele>
        <time>2012-05-31T14:54:58Z</time>
      </trkpt>
      <trkpt lat="49.67799" lon="0.69628">
        <ele>123</ele>
        <time>2012-05-31T14:55:06Z</time>
      </trkpt>
      <trkpt lat="49.678" lon="0.69614">
        <ele>123</ele>
        <time>2012-05-31T14:55:14Z</time>
      </trkpt>
      <trkpt lat="49.678" lon="0.69599">
        <ele>123</ele>
        <time>2012-05-31T14:55:22Z</time>
      </trkpt>
      <trkpt lat="49.67801" lon="0.69584">
        <ele>123</ele>
        <time>2012-05-31T14:55:30Z</time>
      </trkpt>
      <trkpt lat="49.67801" lon="0.69569">
        <ele>123</ele>
        <time>2012-05-31T14:55:38Z</time>
      </trkpt>
      <trkpt lat="49.67793" lon="0.69562">
        <ele>123</ele>
        <time>2012-05-31T14:56:11Z</time>
      </trkpt>
      <trkpt lat="49.67785" lon="0.69571">
        <ele>123</ele>
        <time>2012-05-31T14:56:19Z</time>
      </trkpt>
      <trkpt lat="49.67777" lon="0.6958">
        <ele>123</ele>
        <time>2012-05-31T14:56:27Z</time>
      </trkpt>
      <trkpt lat="49.67769" lon="0.6959">
        <ele>123</ele>
        <time>2012-05-31T14:56:35Z</time>
      </trkpt>
      <trkpt lat="49.67762" lon="0.69599">
        <ele>123</ele>
        <time>2012-05-31T14:56:42Z</time>
      </trkpt>
      <trkpt lat="49.67753" lon="0.69608">
        <ele>123</ele>
        <time>2012-05-31T14:56:50Z</time>
      </trkpt>
      <trkpt lat="49.67747" lon="0.69618">
        <ele>123</ele>
        <time>2012-05-31T14:56:58Z</time>
      </trkpt>
      <trkpt lat="49.6774" lon="0.69627">
        <ele>123</ele>
        <time>2012-05-31T14:57:06Z</time>
      </trkpt>
      <trkpt lat="49.67733" lon="0.69637">
        <ele>123</ele>
        <time>2012-05-31T14:57:13Z</time>
      </trkpt>
      <trkpt lat="49.67726" lon="0.69647">
        <ele>123</ele>
        <time>2012-05-31T14:57:21Z</time>
      </trkpt>
      <trkpt lat="49.67719" lon="0.69657">
        <ele>123</ele>
        <time>2012-05-31T14:57:29Z</time>
      </trkpt>
      <trkpt lat="49.67711" lon="0.69668">
        <ele>123</ele>
        <time>2012-05-31T14:57:37Z</time>
      </trkpt>
      <trkpt lat="49.67703" lon="0.69677">
        <ele>123</ele>
        <time>2012-05-31T14:57:44Z</time>
      </trkpt>
      <trkpt lat="49.67697" lon="0.69687">
        <ele>123</ele>
        <time>2012-05-31T14:57:51Z</time>
      </trkpt>
      <trkpt lat="49.6769" lon="0.69697">
        <ele>123</ele>
        <time>2012-05-31T14:57:58Z</time>
      </trkpt>
      <trkpt lat="49.67683" lon="0.69706">
        <ele>123</ele>
        <time>2012-05-31T14:58:05Z</time>
      </trkpt>
      <trkpt lat="49.67677" lon="0.69716">
        <ele>123</ele>
        <time>2012-05-31T14:58:12Z</time>
      </trkpt>
      <trkpt lat="49.6767" lon="0.69725">
        <ele>123</ele>
        <time>2012-05-31T14:58:19Z</time>
      </trkpt>
      <trkpt lat="49.67663" lon="0.69734">
        <ele>123</ele>
        <time>2012-05-31T14:58:26Z</time>
      </trkpt>
      <trkpt lat="49.67656" lon="0.69744">
        <ele>123</ele>
        <time>2012-05-31T14:58:34Z</time>
      </trkpt>
      <trkpt lat="49.67649" lon="0.69753">
        <ele>123</ele>
        <time>2012-05-31T14:58:41Z</time>
      </trkpt>
      <trkpt lat="49.67641" lon="0.69762">
        <ele>123</ele>
        <time>2012-05-31T14:58:48Z</time>
      </trkpt>
      <trkpt lat="49.67633" lon="0.69771">
        <ele>123</ele>
        <time>2012-05-31T14:58:56Z</time>
      </trkpt>
      <trkpt lat="49.67625" lon="0.69778">
        <ele>123</ele>
        <time>2012-05-31T14:59:03Z</time>
      </trkpt>
      <trkpt lat="49.67616" lon="0.69787">
        <ele>123</ele>
        <time>2012-05-31T14:59:11Z</time>
      </trkpt>
      <trkpt lat="49.67607" lon="0.69794">
        <ele>123</ele>
        <time>2012-05-31T14:59:19Z</time>
      </trkpt>
      <trkpt lat="49.67598" lon="0.69801">
        <ele>123</ele>
        <time>2012-05-31T14:59:26Z</time>
      </trkpt>
      <trkpt lat="49.6759" lon="0.69808">
        <ele>123</ele>
        <time>2012-05-31T14:59:34Z</time>
      </trkpt>
      <trkpt lat="49.67581" lon="0.69815">
        <ele>123</ele>
        <time>2012-05-31T14:59:41Z</time>
      </trkpt>
      <trkpt lat="49.67572" lon="0.69823">
        <ele>123</ele>
        <time>2012-05-31T14:59:49Z</time>
      </trkpt>
      <trkpt lat="49.67564" lon="0.69831">
        <ele>123</ele>
        <time>2012-05-31T14:59:56Z</time>
      </trkpt>
      <trkpt lat="49.67556" lon="0.6984">
        <ele>123</ele>
        <time>2012-05-31T15:00:03Z</time>
      </trkpt>
      <trkpt lat="49.67548" lon="0.69848">
        <ele>123</ele>
        <time>2012-05-31T15:00:11Z</time>
      </trkpt>
      <trkpt lat="49.67541" lon="0.69857">
        <ele>123</ele>
        <time>2012-05-31T15:00:18Z</time>
      </trkpt>
      <trkpt lat="49.67534" lon="0.69866">
        <ele>123</ele>
        <time>2012-05-31T15:00:25Z</time>
      </trkpt>
      <trkpt lat="49.67526" lon="0.69876">
        <ele>123</ele>
        <time>2012-05-31T15:00:33Z</time>
      </trkpt>
      <trkpt lat="49.67519" lon="0.69884">
        <ele>123</ele>
        <time>2012-05-31T15:00:40Z</time>
      </trkpt>
      <trkpt lat="49.67512" lon="0.69894">
        <ele>123</ele>
        <time>2012-05-31T15:00:48Z</time>
      </trkpt>
      <trkpt lat="49.67504" lon="0.69904">
        <ele>123</ele>
        <time>2012-05-31T15:00:56Z</time>
      </trkpt>
      <trkpt lat="49.67496" lon="0.69914">
        <ele>123</ele>
        <time>2012-05-31T15:01:04Z</time>
      </trkpt>
      <trkpt lat="49.67488" lon="0.69922">
        <ele>123</ele>
        <time>2012-05-31T15:01:11Z</time>
      </trkpt>
      <trkpt lat="49.67481" lon="0.69931">
        <ele>123</ele>
        <time>2012-05-31T15:01:18Z</time>
      </trkpt>
      <trkpt lat="49.67473" lon="0.69939">
        <ele>123</ele>
        <time>2012-05-31T15:01:25Z</time>
      </trkpt>
      <trkpt lat="49.67466" lon="0.69948">
        <ele>123</ele>
        <time>2012-05-31T15:01:32Z</time>
      </trkpt>
      <trkpt lat="49.67458" lon="0.69957">
        <ele>123</ele>
        <time>2012-05-31T15:01:40Z</time>
      </trkpt>
      <trkpt lat="49.6745" lon="0.69965">
        <ele>123</ele>
        <time>2012-05-31T15:01:48Z</time>
      </trkpt>
      <trkpt lat="49.67443" lon="0.69974">
        <ele>123</ele>
        <time>2012-05-31T15:01:57Z</time>
      </trkpt>
      <trkpt lat="49.67435" lon="0.69982">
        <ele>123</ele>
        <time>2012-05-31T15:02:08Z</time>
      </trkpt>
      <trkpt lat="49.67427" lon="0.69991">
        <ele>123</ele>
        <time>2012-05-31T15:02:16Z</time>
      </trkpt>
      <trkpt lat="49.67419" lon="0.7">
        <ele>123</ele>
        <time>2012-05-31T15:02:24Z</time>
      </trkpt>
      <trkpt lat="49.67412" lon="0.7001">
        <ele>123</ele>
        <time>2012-05-31T15:02:31Z</time>
      </trkpt>
      <trkpt lat="49.67404" lon="0.70019">
        <ele>123</ele>
        <time>2012-05-31T15:02:38Z</time>
      </trkpt>
      <trkpt lat="49.67397" lon="0.70028">
        <ele>123</ele>
        <time>2012-05-31T15:02:45Z</time>
      </trkpt>
      <trkpt lat="49.67389" lon="0.70037">
        <ele>123</ele>
        <time>2012-05-31T15:02:52Z</time>
      </trkpt>
      <trkpt lat="49.67382" lon="0.70046">
        <ele>123</ele>
        <time>2012-05-31T15:02:59Z</time>
      </trkpt>
      <trkpt lat="49.67375" lon="0.70055">
        <ele>123</ele>
        <time>2012-05-31T15:03:06Z</time>
      </trkpt>
      <trkpt lat="49.67368" lon="0.70064">
        <ele>123</ele>
        <time>2012-05-31T15:03:13Z</time>
      </trkpt>
      <trkpt lat="49.67361" lon="0.70074">
        <ele>123</ele>
        <time>2012-05-31T15:03:20Z</time>
      </trkpt>
      <trkpt lat="49.67353" lon="0.70083">
        <ele>123</ele>
        <time>2012-05-31T15:03:27Z</time>
      </trkpt>
      <trkpt lat="49.67346" lon="0.70093">
        <ele>123</ele>
        <time>2012-05-31T15:03:34Z</time>
      </trkpt>
      <trkpt lat="49.67339" lon="0.70103">
        <ele>123</ele>
        <time>2012-05-31T15:03:41Z</time>
      </trkpt>
      <trkpt lat="49.67333" lon="0.70113">
        <ele>123</ele>
        <time>2012-05-31T15:03:48Z</time>
      </trkpt>
      <trkpt lat="49.67326" lon="0.70123">
        <ele>123</ele>
        <time>2012-05-31T15:03:55Z</time>
      </trkpt>
      <trkpt lat="49.67319" lon="0.70134">
        <ele>123</ele>
        <time>2012-05-31T15:04:03Z</time>
      </trkpt>
      <trkpt lat="49.67313" lon="0.70147">
        <ele>123</ele>
        <time>2012-05-31T15:04:11Z</time>
      </trkpt>
      <trkpt lat="49.67308" lon="0.7016">
        <ele>123</ele>
        <time>2012-05-31T15:04:19Z</time>
      </trkpt>
      <trkpt lat="49.67302" lon="0.70174">
        <ele>123</ele>
        <time>2012-05-31T15:04:28Z</time>
      </trkpt>
      <trkpt lat="49.67298" lon="0.70186">
        <ele>123</ele>
        <time>2012-05-31T15:04:37Z</time>
      </trkpt>
      <trkpt lat="49.67291" lon="0.70196">
        <ele>123</ele>
        <time>2012-05-31T15:04:45Z</time>
      </trkpt>
      <trkpt lat="49.67286" lon="0.70209">
        <ele>123</ele>
        <time>2012-05-31T15:04:52Z</time>
      </trkpt>
      <trkpt lat="49.67279" lon="0.7022">
        <ele>123</ele>
        <time>2012-05-31T15:05:00Z</time>
      </trkpt>
      <trkpt lat="49.67273" lon="0.70232">
        <ele>129</ele>
        <time>2012-05-31T15:05:08Z</time>
      </trkpt>
      <trkpt lat="49.67266" lon="0.70244">
        <ele>129</ele>
        <time>2012-05-31T15:05:15Z</time>
      </trkpt>
      <trkpt lat="49.6726" lon="0.70254">
        <ele>129</ele>
        <time>2012-05-31T15:05:23Z</time>
      </trkpt>
      <trkpt lat="49.67254" lon="0.70266">
        <ele>129</ele>
        <time>2012-05-31T15:05:30Z</time>
      </trkpt>
      <trkpt lat="49.67247" lon="0.70275">
        <ele>129</ele>
        <time>2012-05-31T15:05:39Z</time>
      </trkpt>
      <trkpt lat="49.67238" lon="0.70273">
        <ele>129</ele>
        <time>2012-05-31T15:05:47Z</time>
      </trkpt>
      <trkpt lat="49.67228" lon="0.7027">
        <ele>129</ele>
        <time>2012-05-31T15:05:54Z</time>
      </trkpt>
      <trkpt lat="49.67219" lon="0.70266">
        <ele>129</ele>
        <time>2012-05-31T15:06:01Z</time>
      </trkpt>
      <trkpt lat="49.6721" lon="0.70261">
        <ele>129</ele>
        <time>2012-05-31T15:06:08Z</time>
      </trkpt>
      <trkpt lat="49.67201" lon="0.70257">
        <ele>129</ele>
        <time>2012-05-31T15:06:15Z</time>
      </trkpt>
      <trkpt lat="49.67192" lon="0.70255">
        <ele>129</ele>
        <time>2012-05-31T15:06:23Z</time>
      </trkpt>
      <trkpt lat="49.67184" lon="0.70249">
        <ele>129</ele>
        <time>2012-05-31T15:06:29Z</time>
      </trkpt>
      <trkpt lat="49.67175" lon="0.70244">
        <ele>129</ele>
        <time>2012-05-31T15:06:35Z</time>
      </trkpt>
      <trkpt lat="49.67166" lon="0.70238">
        <ele>129</ele>
        <time>2012-05-31T15:06:43Z</time>
      </trkpt>
      <trkpt lat="49.67157" lon="0.70232">
        <ele>129</ele>
        <time>2012-05-31T15:06:51Z</time>
      </trkpt>
      <trkpt lat="49.67148" lon="0.70228">
        <ele>129</ele>
        <time>2012-05-31T15:06:58Z</time>
      </trkpt>
      <trkpt lat="49.67138" lon="0.70225">
        <ele>129</ele>
        <time>2012-05-31T15:07:05Z</time>
      </trkpt>
      <trkpt lat="49.67129" lon="0.7022">
        <ele>129</ele>
        <time>2012-05-31T15:07:11Z</time>
      </trkpt>
      <trkpt lat="49.6712" lon="0.70218">
        <ele>129</ele>
        <time>2012-05-31T15:07:18Z</time>
      </trkpt>
      <trkpt lat="49.6711" lon="0.70214">
        <ele>129</ele>
        <time>2012-05-31T15:07:25Z</time>
      </trkpt>
      <trkpt lat="49.67101" lon="0.70211">
        <ele>129</ele>
        <time>2012-05-31T15:07:33Z</time>
      </trkpt>
      <trkpt lat="49.67092" lon="0.70207">
        <ele>129</ele>
        <time>2012-05-31T15:07:41Z</time>
      </trkpt>
      <trkpt lat="49.67082" lon="0.70204">
        <ele>134</ele>
        <time>2012-05-31T15:07:48Z</time>
      </trkpt>
      <trkpt lat="49.67073" lon="0.70201">
        <ele>134</ele>
        <time>2012-05-31T15:07:57Z</time>
      </trkpt>
      <trkpt lat="49.67063" lon="0.70199">
        <ele>134</ele>
        <time>2012-05-31T15:08:05Z</time>
      </trkpt>
      <trkpt lat="49.67054" lon="0.70195">
        <ele>134</ele>
        <time>2012-05-31T15:08:12Z</time>
      </trkpt>
      <trkpt lat="49.67045" lon="0.70192">
        <ele>134</ele>
        <time>2012-05-31T15:08:20Z</time>
      </trkpt>
      <trkpt lat="49.67036" lon="0.70188">
        <ele>134</ele>
        <time>2012-05-31T15:08:29Z</time>
      </trkpt>
      <trkpt lat="49.67029" lon="0.70177">
        <ele>134</ele>
        <time>2012-05-31T15:08:35Z</time>
      </trkpt>
      <trkpt lat="49.67027" lon="0.70162">
        <ele>134</ele>
        <time>2012-05-31T15:08:42Z</time>
      </trkpt>
      <trkpt lat="49.67028" lon="0.70147">
        <ele>134</ele>
        <time>2012-05-31T15:08:49Z</time>
      </trkpt>
      <trkpt lat="49.67029" lon="0.70132">
        <ele>134</ele>
        <time>2012-05-31T15:08:57Z</time>
      </trkpt>
      <trkpt lat="49.67031" lon="0.70118">
        <ele>134</ele>
        <time>2012-05-31T15:09:16Z</time>
      </trkpt>
      <trkpt lat="49.67032" lon="0.70104">
        <ele>129</ele>
        <time>2012-05-31T15:09:24Z</time>
      </trkpt>
      <trkpt lat="49.67034" lon="0.70089">
        <ele>129</ele>
        <time>2012-05-31T15:09:55Z</time>
      </trkpt>
      <trkpt lat="49.67035" lon="0.70075">
        <ele>129</ele>
        <time>2012-05-31T15:10:05Z</time>
      </trkpt>
      <trkpt lat="49.67032" lon="0.70061">
        <ele>129</ele>
        <time>2012-05-31T15:10:17Z</time>
      </trkpt>
      <trkpt lat="49.67024" lon="0.70057">
        <ele>129</ele>
        <time>2012-05-31T15:10:50Z</time>
      </trkpt>
      <trkpt lat="49.67014" lon="0.70052">
        <ele>129</ele>
        <time>2012-05-31T15:10:58Z</time>
      </trkpt>
      <trkpt lat="49.67006" lon="0.70045">
        <ele>129</ele>
        <time>2012-05-31T15:11:06Z</time>
      </trkpt>
      <trkpt lat="49.67" lon="0.70035">
        <ele>129</ele>
        <time>2012-05-31T15:11:14Z</time>
      </trkpt>
      <trkpt lat="49.66996" lon="0.70021">
        <ele>129</ele>
        <time>2012-05-31T15:11:23Z</time>
      </trkpt>
      <trkpt lat="49.66991" lon="0.70008">
        <ele>129</ele>
        <time>2012-05-31T15:11:31Z</time>
      </trkpt>
      <trkpt lat="49.66985" lon="0.69995">
        <ele>129</ele>
        <time>2012-05-31T15:11:40Z</time>
      </trkpt>
      <trkpt lat="49.6698" lon="0.69982">
        <ele>129</ele>
        <time>2012-05-31T15:11:48Z</time>
      </trkpt>
      <trkpt lat="49.66975" lon="0.6997">
        <ele>129</ele>
        <time>2012-05-31T15:11:55Z</time>
      </trkpt>
      <trkpt lat="49.66971" lon="0.69956">
        <ele>129</ele>
        <time>2012-05-31T15:12:03Z</time>
      </trkpt>
      <trkpt lat="49.66966" lon="0.69944">
        <ele>129</ele>
        <time>2012-05-31T15:12:11Z</time>
      </trkpt>
      <trkpt lat="49.66962" lon="0.69931">
        <ele>129</ele>
        <time>2012-05-31T15:12:19Z</time>
      </trkpt>
    </trkseg>
  </trk>
</gpx>